Time,TemperatureF,DewpointF,PressureIn,WindDirection,WindDirectionDegrees,WindSpeedMPH,WindSpeedGustMPH,Humidity,HourlyPrecipIn,Conditions,Clouds,dailyrainin,SoftwareType,DateUTC
2013-09-09 00:00:00,77.5,58.0,29.94,North,0,0.0,0.0,51,0.00,,---,0.00,VWS V14.01,2013-09-09 04:00:00,
2013-09-09 00:01:00,77.2,58.2,29.97,North,0,0.0,0.0,52,0.00,,---,0.00,VWS V14.01,2013-09-09 04:01:00,
2013-09-09 00:02:00,77.4,57.8,29.97,North,0,0.0,0.0,51,0.00,,---,0.00,VWS V14.01,2013-09-09 04:02:00,
2013-09-09 00:03:00,77.4,57.8,29.97,North,0,0.0,0.0,51,0.00,,---,0.00,VWS V14.01,2013-09-09 04:03:00,
2013-09-09 00:04:00,77.4,58.4,29.97,North,0,0.0,0.0,52,0.00,,---,0.00,VWS V14.01,2013-09-09 04:04:00,
2013-09-09 00:05:00,77.4,58.4,29.97,North,0,0.0,0.0,52,0.00,,---,0.00,VWS V14.01,2013-09-09 04:05:00,
2013-09-09 00:06:00,77.2,58.7,29.97,North,0,0.0,0.0,53,0.00,,---,0.00,VWS V14.01,2013-09-09 04:06:00,
2013-09-09 00:07:00,77.4,58.4,29.97,North,0,0.0,0.0,52,0.00,,---,0.00,VWS V14.01,2013-09-09 04:07:00,
2013-09-09 00:08:00,77.4,58.4,29.97,North,0,0.0,0.0,52,0.00,,---,0.00,VWS V14.01,2013-09-09 04:08:00,
2013-09-09 00:09:00,77.4,58.4,29.97,North,0,0.0,0.0,52,0.00,,---,0.00,VWS V14.01,2013-09-09 04:09:00,
2013-09-09 00:10:00,77.4,58.4,29.97,North,0,0.0,0.0,52,0.00,,---,0.00,VWS V14.01,2013-09-09 04:10:00,
2013-09-09 00:11:00,77.0,58.6,29.97,North,0,0.0,0.0,53,0.00,,---,0.00,VWS V14.01,2013-09-09 04:11:00,
2013-09-09 00:12:00,77.2,58.2,29.97,North,0,0.0,0.0,52,0.00,,---,0.00,VWS V14.01,2013-09-09 04:12:00,
2013-09-09 00:13:00,77.2,58.7,29.97,North,0,0.0,0.0,53,0.00,,---,0.00,VWS V14.01,2013-09-09 04:13:00,
2013-09-09 00:14:00,77.2,58.7,29.97,North,0,0.0,0.0,53,0.00,,---,0.00,VWS V14.01,2013-09-09 04:14:00,
2013-09-09 00:15:00,77.2,58.7,29.97,North,0,0.0,0.0,53,0.00,,---,0.00,VWS V14.01,2013-09-09 04:15:00,
2013-09-09 00:16:00,76.8,58.9,29.97,North,0,0.0,0.0,54,0.00,,---,0.00,VWS V14.01,2013-09-09 04:16:00,
2013-09-09 00:17:00,77.2,58.2,29.97,North,0,0.0,0.0,52,0.00,,---,0.00,VWS V14.01,2013-09-09 04:17:00,
2013-09-09 00:18:00,77.2,58.7,29.97,North,0,0.0,0.0,53,0.00,,---,0.00,VWS V14.01,2013-09-09 04:18:00,
2013-09-09 00:19:00,77.2,58.7,29.97,North,0,0.0,0.0,53,0.00,,---,0.00,VWS V14.01,2013-09-09 04:19:00,
2013-09-09 00:20:00,77.2,58.7,29.97,North,0,0.0,0.0,53,0.00,,---,0.00,VWS V14.01,2013-09-09 04:20:00,
2013-09-09 00:21:00,76.8,58.9,29.97,North,0,0.0,0.0,54,0.00,,---,0.00,VWS V14.01,2013-09-09 04:21:00,
2013-09-09 00:22:00,77.2,58.7,29.97,North,0,0.0,0.0,53,0.00,,---,0.00,VWS V14.01,2013-09-09 04:22:00,
2013-09-09 00:23:00,77.0,58.6,29.97,North,0,0.0,0.0,53,0.00,,---,0.00,VWS V14.01,2013-09-09 04:23:00,
2013-09-09 00:24:00,77.0,58.6,29.97,North,0,0.0,0.0,53,0.00,,---,0.00,VWS V14.01,2013-09-09 04:24:00,
2013-09-09 00:25:00,77.0,58.6,29.97,North,0,0.0,0.0,53,0.00,,---,0.00,VWS V14.01,2013-09-09 04:25:00,
2013-09-09 00:26:00,76.6,59.3,29.97,North,0,0.0,0.0,55,0.00,,---,0.00,VWS V14.01,2013-09-09 04:26:00,
2013-09-09 00:27:00,77.0,58.6,29.97,North,0,0.0,0.0,53,0.00,,---,0.00,VWS V14.01,2013-09-09 04:27:00,
2013-09-09 00:28:00,76.8,58.9,29.97,North,0,0.0,0.0,54,0.00,,---,0.00,VWS V14.01,2013-09-09 04:28:00,
2013-09-09 00:29:00,76.8,58.4,29.97,North,0,0.0,0.0,53,0.00,,---,0.00,VWS V14.01,2013-09-09 04:29:00,
2013-09-09 00:30:00,76.8,58.4,29.97,North,0,0.0,0.0,53,0.00,,---,0.00,VWS V14.01,2013-09-09 04:30:00,
2013-09-09 00:31:00,76.3,58.4,29.97,North,0,0.0,0.0,54,0.00,,---,0.00,VWS V14.01,2013-09-09 04:31:00,
2013-09-09 00:32:00,76.8,59.5,29.97,North,0,0.0,0.0,55,0.00,,---,0.00,VWS V14.01,2013-09-09 04:32:00,
2013-09-09 00:33:00,76.8,58.9,29.97,North,0,0.0,0.0,54,0.00,,---,0.00,VWS V14.01,2013-09-09 04:33:00,
2013-09-09 00:34:00,76.8,58.9,29.97,North,0,0.0,0.0,54,0.00,,---,0.00,VWS V14.01,2013-09-09 04:34:00,
2013-09-09 00:35:00,76.6,58.8,29.97,North,0,0.0,0.0,54,0.00,,---,0.00,VWS V14.01,2013-09-09 04:35:00,
2013-09-09 00:36:00,76.3,58.9,29.97,North,0,0.0,0.0,55,0.00,,---,0.00,VWS V14.01,2013-09-09 04:36:00,
2013-09-09 00:37:00,76.6,59.3,29.97,North,0,0.0,0.0,55,0.00,,---,0.00,VWS V14.01,2013-09-09 04:37:00,
2013-09-09 00:38:00,76.6,59.3,29.97,North,0,0.0,0.0,55,0.00,,---,0.00,VWS V14.01,2013-09-09 04:38:00,
2013-09-09 00:39:00,76.5,58.6,29.97,North,0,0.0,0.0,54,0.00,,---,0.00,VWS V14.01,2013-09-09 04:39:00,
2013-09-09 00:40:00,76.5,58.6,29.97,North,0,0.0,0.0,54,0.00,,---,0.00,VWS V14.01,2013-09-09 04:40:00,
2013-09-09 00:41:00,76.1,58.8,29.97,North,0,0.0,0.0,55,0.00,,---,0.00,VWS V14.01,2013-09-09 04:41:00,
2013-09-09 00:42:00,76.3,58.4,29.97,North,0,0.0,0.0,54,0.00,,---,0.00,VWS V14.01,2013-09-09 04:42:00,
2013-09-09 00:43:00,76.3,58.4,29.97,North,0,0.0,0.0,54,0.00,,---,0.00,VWS V14.01,2013-09-09 04:43:00,
2013-09-09 00:44:00,76.3,58.9,29.97,North,0,0.0,0.0,55,0.00,,---,0.00,VWS V14.01,2013-09-09 04:44:00,
2013-09-09 00:45:00,76.3,58.4,29.97,North,0,0.0,0.0,54,0.00,,---,0.00,VWS V14.01,2013-09-09 04:45:00,
2013-09-09 00:46:00,75.9,59.1,29.97,North,0,0.0,0.0,56,0.00,,---,0.00,VWS V14.01,2013-09-09 04:46:00,
2013-09-09 00:47:00,76.3,58.9,29.97,North,0,0.0,0.0,55,0.00,,---,0.00,VWS V14.01,2013-09-09 04:47:00,
2013-09-09 00:48:00,76.3,58.9,29.97,North,0,0.0,0.0,55,0.00,,---,0.00,VWS V14.01,2013-09-09 04:48:00,
2013-09-09 00:49:00,76.1,58.8,29.97,North,0,0.0,0.0,55,0.00,,---,0.00,VWS V14.01,2013-09-09 04:49:00,
2013-09-09 00:50:00,76.1,58.8,29.97,North,0,0.0,0.0,55,0.00,,---,0.00,VWS V14.01,2013-09-09 04:50:00,
2013-09-09 00:51:00,75.9,59.6,29.97,North,0,0.0,0.0,57,0.00,,---,0.00,VWS V14.01,2013-09-09 04:51:00,
2013-09-09 00:52:00,76.1,58.8,29.97,North,0,0.0,0.0,55,0.00,,---,0.00,VWS V14.01,2013-09-09 04:52:00,
2013-09-09 00:53:00,76.1,58.8,29.97,North,0,0.0,0.0,55,0.00,,---,0.00,VWS V14.01,2013-09-09 04:53:00,
2013-09-09 00:54:00,76.1,58.8,29.97,North,0,0.0,0.0,55,0.00,,---,0.00,VWS V14.01,2013-09-09 04:54:00,
2013-09-09 00:55:00,76.1,59.3,29.97,North,0,0.0,0.0,56,0.00,,---,0.00,VWS V14.01,2013-09-09 04:55:00,
2013-09-09 00:56:00,75.9,59.6,29.97,North,0,0.0,0.0,57,0.00,,---,0.00,VWS V14.01,2013-09-09 04:56:00,
2013-09-09 00:57:00,76.1,59.3,29.97,North,0,0.0,0.0,56,0.00,,---,0.00,VWS V14.01,2013-09-09 04:57:00,
2013-09-09 00:58:00,76.1,59.3,29.97,North,0,0.0,0.0,56,0.00,,---,0.00,VWS V14.01,2013-09-09 04:58:00,
2013-09-09 00:59:00,75.9,59.6,29.97,North,0,0.0,0.0,57,0.00,,---,0.00,VWS V14.01,2013-09-09 04:59:00,
2013-09-09 01:00:00,75.9,59.6,29.97,North,0,0.0,0.0,57,0.00,,---,0.00,VWS V14.01,2013-09-09 05:00:00,
2013-09-09 01:01:00,75.9,59.6,29.97,North,0,0.0,0.0,57,0.00,,---,0.00,VWS V14.01,2013-09-09 05:01:00,
2013-09-09 01:02:00,75.9,59.6,29.97,North,0,0.0,0.0,57,0.00,,---,0.00,VWS V14.01,2013-09-09 05:02:00,
2013-09-09 01:03:00,75.9,59.6,29.97,North,0,0.0,0.0,57,0.00,,---,0.00,VWS V14.01,2013-09-09 05:03:00,
2013-09-09 01:04:00,75.9,59.6,29.97,North,0,0.0,0.0,57,0.00,,---,0.00,VWS V14.01,2013-09-09 05:04:00,
2013-09-09 01:05:00,75.9,59.6,29.97,North,0,0.0,0.0,57,0.00,,---,0.00,VWS V14.01,2013-09-09 05:05:00,
2013-09-09 01:06:00,75.7,59.9,29.97,North,0,0.0,0.0,58,0.00,,---,0.00,VWS V14.01,2013-09-09 05:06:00,
2013-09-09 01:07:00,75.9,59.6,29.97,North,0,0.0,0.0,57,0.00,,---,0.00,VWS V14.01,2013-09-09 05:07:00,
2013-09-09 01:08:00,75.9,59.6,29.97,North,0,0.0,0.0,57,0.00,,---,0.00,VWS V14.01,2013-09-09 05:08:00,
2013-09-09 01:09:00,75.9,59.6,29.97,North,0,0.0,0.0,57,0.00,,---,0.00,VWS V14.01,2013-09-09 05:09:00,
2013-09-09 01:10:00,75.9,59.6,29.97,North,0,0.0,0.0,57,0.00,,---,0.00,VWS V14.01,2013-09-09 05:10:00,
2013-09-09 01:11:00,75.6,59.8,29.97,North,0,0.0,0.0,58,0.00,,---,0.00,VWS V14.01,2013-09-09 05:11:00,
2013-09-09 01:12:00,75.9,59.6,29.97,North,0,0.0,0.0,57,0.00,,---,0.00,VWS V14.01,2013-09-09 05:12:00,
2013-09-09 01:13:00,75.9,60.1,29.97,North,0,0.0,0.0,58,0.00,,---,0.00,VWS V14.01,2013-09-09 05:13:00,
2013-09-09 01:14:00,75.9,60.1,29.97,North,0,0.0,0.0,58,0.00,,---,0.00,VWS V14.01,2013-09-09 05:14:00,
2013-09-09 01:15:00,75.9,60.1,29.97,North,0,0.0,0.0,58,0.00,,---,0.00,VWS V14.01,2013-09-09 05:15:00,
2013-09-09 01:16:00,75.6,60.2,29.97,North,0,0.0,0.0,59,0.00,,---,0.00,VWS V14.01,2013-09-09 05:16:00,
2013-09-09 01:17:00,75.7,59.9,29.97,North,0,0.0,0.0,58,0.00,,---,0.00,VWS V14.01,2013-09-09 05:17:00,
2013-09-09 01:18:00,75.7,59.9,29.97,North,0,0.0,0.0,58,0.00,,---,0.00,VWS V14.01,2013-09-09 05:18:00,
2013-09-09 01:19:00,75.7,59.4,29.97,North,0,0.0,0.0,57,0.00,,---,0.00,VWS V14.01,2013-09-09 05:19:00,
2013-09-09 01:20:00,75.7,59.9,29.97,North,0,0.0,0.0,58,0.00,,---,0.00,VWS V14.01,2013-09-09 05:20:00,
2013-09-09 01:21:00,75.4,60.1,29.97,North,0,0.0,0.0,59,0.00,,---,0.00,VWS V14.01,2013-09-09 05:21:00,
2013-09-09 01:22:00,75.6,59.8,29.97,North,0,0.0,0.0,58,0.00,,---,0.00,VWS V14.01,2013-09-09 05:22:00,
2013-09-09 01:23:00,75.6,59.8,29.97,North,0,0.0,0.0,58,0.00,,---,0.00,VWS V14.01,2013-09-09 05:23:00,
2013-09-09 01:24:00,75.6,59.8,29.97,North,0,0.0,0.0,58,0.00,,---,0.00,VWS V14.01,2013-09-09 05:24:00,
2013-09-09 01:25:00,75.6,59.8,29.97,North,0,0.0,0.0,58,0.00,,---,0.00,VWS V14.01,2013-09-09 05:25:00,
2013-09-09 01:26:00,75.2,60.4,29.97,North,0,0.0,0.0,60,0.00,,---,0.00,VWS V14.01,2013-09-09 05:26:00,
2013-09-09 01:27:00,75.6,60.2,29.97,North,0,0.0,0.0,59,0.00,,---,0.00,VWS V14.01,2013-09-09 05:27:00,
2013-09-09 01:28:00,75.6,60.2,29.97,North,0,0.0,0.0,59,0.00,,---,0.00,VWS V14.01,2013-09-09 05:28:00,
2013-09-09 01:29:00,75.4,60.1,29.97,North,0,0.0,0.0,59,0.00,,---,0.00,VWS V14.01,2013-09-09 05:29:00,
2013-09-09 01:30:00,75.4,60.1,29.97,North,0,0.0,0.0,59,0.00,,---,0.00,VWS V14.01,2013-09-09 05:30:00,
2013-09-09 01:31:00,75.0,60.7,29.97,North,0,0.0,0.0,61,0.00,,---,0.00,VWS V14.01,2013-09-09 05:31:00,
2013-09-09 01:32:00,75.4,60.1,29.97,North,0,0.0,0.0,59,0.00,,---,0.00,VWS V14.01,2013-09-09 05:32:00,
2013-09-09 01:33:00,75.4,60.1,29.97,North,0,0.0,0.0,59,0.00,,---,0.00,VWS V14.01,2013-09-09 05:33:00,
2013-09-09 01:34:00,75.4,60.1,29.97,North,0,0.0,0.0,59,0.00,,---,0.00,VWS V14.01,2013-09-09 05:34:00,
2013-09-09 01:35:00,75.4,60.1,29.97,North,0,0.0,0.0,59,0.00,,---,0.00,VWS V14.01,2013-09-09 05:35:00,
2013-09-09 01:36:00,74.8,60.5,29.97,North,0,0.0,0.0,61,0.00,,---,0.00,VWS V14.01,2013-09-09 05:36:00,
2013-09-09 01:37:00,75.4,60.5,29.97,North,0,0.0,0.0,60,0.00,,---,0.00,VWS V14.01,2013-09-09 05:37:00,
2013-09-09 01:38:00,75.2,60.4,29.97,North,0,0.0,0.0,60,0.00,,---,0.00,VWS V14.01,2013-09-09 05:38:00,
2013-09-09 01:39:00,75.2,60.4,29.97,North,0,0.0,0.0,60,0.00,,---,0.00,VWS V14.01,2013-09-09 05:39:00,
2013-09-09 01:40:00,75.2,60.4,29.97,North,0,0.0,0.0,60,0.00,,---,0.00,VWS V14.01,2013-09-09 05:40:00,
2013-09-09 01:41:00,74.8,61.0,29.97,North,0,0.0,0.0,62,0.00,,---,0.00,VWS V14.01,2013-09-09 05:41:00,
2013-09-09 01:42:00,75.2,60.4,29.97,North,0,0.0,0.0,60,0.00,,---,0.00,VWS V14.01,2013-09-09 05:42:00,
2013-09-09 01:43:00,75.0,60.7,29.97,North,0,0.0,0.0,61,0.00,,---,0.00,VWS V14.01,2013-09-09 05:43:00,
2013-09-09 01:44:00,75.0,60.7,29.97,North,0,0.0,0.0,61,0.00,,---,0.00,VWS V14.01,2013-09-09 05:44:00,
2013-09-09 01:45:00,75.0,60.7,29.97,North,0,0.0,0.0,61,0.00,,---,0.00,VWS V14.01,2013-09-09 05:45:00,
2013-09-09 01:46:00,74.7,61.2,29.97,North,0,0.0,0.0,63,0.00,,---,0.00,VWS V14.01,2013-09-09 05:46:00,
2013-09-09 01:47:00,74.8,60.5,29.97,North,0,0.0,0.0,61,0.00,,---,0.00,VWS V14.01,2013-09-09 05:47:00,
2013-09-09 01:48:00,74.8,60.5,29.97,North,0,0.0,0.0,61,0.00,,---,0.00,VWS V14.01,2013-09-09 05:48:00,
2013-09-09 01:49:00,74.8,61.0,29.97,North,0,0.0,0.0,62,0.00,,---,0.00,VWS V14.01,2013-09-09 05:49:00,
2013-09-09 01:50:00,74.8,61.0,29.97,North,0,0.0,0.0,62,0.00,,---,0.00,VWS V14.01,2013-09-09 05:50:00,
2013-09-09 01:51:00,74.7,61.2,29.97,North,0,0.0,0.0,63,0.00,,---,0.00,VWS V14.01,2013-09-09 05:51:00,
2013-09-09 01:52:00,74.8,61.0,29.97,North,0,0.0,0.0,62,0.00,,---,0.00,VWS V14.01,2013-09-09 05:52:00,
2013-09-09 01:53:00,74.8,61.0,29.97,North,0,0.0,0.0,62,0.00,,---,0.00,VWS V14.01,2013-09-09 05:53:00,
2013-09-09 01:54:00,74.8,61.0,29.97,North,0,0.0,0.0,62,0.00,,---,0.00,VWS V14.01,2013-09-09 05:54:00,
2013-09-09 01:55:00,74.5,61.5,29.97,North,0,0.0,0.0,64,0.00,,---,0.00,VWS V14.01,2013-09-09 05:55:00,
2013-09-09 01:56:00,74.8,61.0,29.97,North,0,0.0,0.0,62,0.00,,---,0.00,VWS V14.01,2013-09-09 05:56:00,
2013-09-09 01:57:00,74.8,61.4,29.97,North,0,0.0,0.0,63,0.00,,---,0.00,VWS V14.01,2013-09-09 05:57:00,
2013-09-09 01:58:00,74.7,61.2,29.97,North,0,0.0,0.0,63,0.00,,---,0.00,VWS V14.01,2013-09-09 05:58:00,
2013-09-09 01:59:00,74.7,61.2,29.97,North,0,0.0,0.0,63,0.00,,---,0.00,VWS V14.01,2013-09-09 05:59:00,
2013-09-09 02:00:00,74.5,61.5,29.97,North,0,0.0,0.0,64,0.00,,---,0.00,VWS V14.01,2013-09-09 06:00:00,
2013-09-09 02:01:00,74.7,61.2,29.97,North,0,0.0,0.0,63,0.00,,---,0.00,VWS V14.01,2013-09-09 06:01:00,
2013-09-09 02:02:00,74.7,61.2,29.97,North,0,0.0,0.0,63,0.00,,---,0.00,VWS V14.01,2013-09-09 06:02:00,
2013-09-09 02:03:00,74.7,61.2,29.97,North,0,0.0,0.0,63,0.00,,---,0.00,VWS V14.01,2013-09-09 06:03:00,
2013-09-09 02:04:00,74.7,61.2,29.97,North,0,0.0,0.0,63,0.00,,---,0.00,VWS V14.01,2013-09-09 06:04:00,
2013-09-09 02:05:00,74.5,61.5,29.97,North,0,0.0,0.0,64,0.00,,---,0.00,VWS V14.01,2013-09-09 06:05:00,
2013-09-09 02:06:00,74.7,61.2,29.97,North,0,0.0,0.0,63,0.00,,---,0.00,VWS V14.01,2013-09-09 06:06:00,
2013-09-09 02:07:00,74.5,61.1,29.97,North,0,0.0,0.0,63,0.00,,---,0.00,VWS V14.01,2013-09-09 06:07:00,
2013-09-09 02:08:00,74.5,61.5,29.97,North,0,0.0,0.0,64,0.00,,---,0.00,VWS V14.01,2013-09-09 06:08:00,
2013-09-09 02:09:00,74.5,61.5,29.97,North,0,0.0,0.0,64,0.00,,---,0.00,VWS V14.01,2013-09-09 06:09:00,
2013-09-09 02:10:00,74.3,61.8,29.97,North,0,0.0,0.0,65,0.00,,---,0.00,VWS V14.01,2013-09-09 06:10:00,
2013-09-09 02:11:00,74.5,61.5,29.97,North,0,0.0,0.0,64,0.00,,---,0.00,VWS V14.01,2013-09-09 06:11:00,
2013-09-09 02:12:00,74.5,61.5,29.97,North,0,0.0,0.0,64,0.00,,---,0.00,VWS V14.01,2013-09-09 06:12:00,
2013-09-09 02:13:00,74.5,61.5,29.97,North,0,0.0,0.0,64,0.00,,---,0.00,VWS V14.01,2013-09-09 06:13:00,
2013-09-09 02:14:00,74.5,61.5,29.97,North,0,0.0,0.0,64,0.00,,---,0.00,VWS V14.01,2013-09-09 06:14:00,
2013-09-09 02:15:00,74.5,62.0,29.97,North,0,0.0,0.0,65,0.00,,---,0.00,VWS V14.01,2013-09-09 06:15:00,
2013-09-09 02:16:00,74.5,61.5,29.97,North,0,0.0,0.0,64,0.00,,---,0.00,VWS V14.01,2013-09-09 06:16:00,
2013-09-09 02:17:00,74.5,61.5,29.97,North,0,0.0,0.0,64,0.00,,---,0.00,VWS V14.01,2013-09-09 06:17:00,
2013-09-09 02:18:00,74.5,61.5,29.97,North,0,0.0,0.0,64,0.00,,---,0.00,VWS V14.01,2013-09-09 06:18:00,
2013-09-09 02:19:00,74.3,61.3,29.97,North,0,0.0,0.0,64,0.00,,---,0.00,VWS V14.01,2013-09-09 06:19:00,
2013-09-09 02:20:00,74.8,62.7,29.97,North,0,0.0,0.0,66,0.00,,---,0.00,VWS V14.01,2013-09-09 06:20:00,
2013-09-09 02:21:00,74.3,61.8,29.97,North,0,0.0,0.0,65,0.00,,---,0.00,VWS V14.01,2013-09-09 06:21:00,
2013-09-09 02:22:00,74.3,61.8,29.97,North,0,0.0,0.0,65,0.00,,---,0.00,VWS V14.01,2013-09-09 06:22:00,
2013-09-09 02:23:00,74.3,61.8,29.97,North,0,0.0,0.0,65,0.00,,---,0.00,VWS V14.01,2013-09-09 06:23:00,
2013-09-09 02:24:00,74.3,61.8,29.97,North,0,0.0,0.0,65,0.00,,---,0.00,VWS V14.01,2013-09-09 06:24:00,
2013-09-09 02:25:00,74.7,62.6,29.97,North,0,0.0,0.0,66,0.00,,---,0.00,VWS V14.01,2013-09-09 06:25:00,
2013-09-09 02:26:00,74.3,61.8,29.97,North,0,0.0,0.0,65,0.00,,---,0.00,VWS V14.01,2013-09-09 06:26:00,
2013-09-09 02:27:00,74.5,62.0,29.97,North,0,0.0,0.0,65,0.00,,---,0.00,VWS V14.01,2013-09-09 06:27:00,
2013-09-09 02:28:00,74.5,62.0,29.97,North,0,0.0,0.0,65,0.00,,---,0.00,VWS V14.01,2013-09-09 06:28:00,
2013-09-09 02:29:00,74.5,62.0,29.97,North,0,0.0,0.0,65,0.00,,---,0.00,VWS V14.01,2013-09-09 06:29:00,
2013-09-09 02:30:00,74.7,62.6,29.97,North,0,0.0,0.0,66,0.00,,---,0.00,VWS V14.01,2013-09-09 06:30:00,
2013-09-09 02:31:00,74.7,62.1,29.97,North,0,0.0,0.0,65,0.00,,---,0.00,VWS V14.01,2013-09-09 06:31:00,
2013-09-09 02:32:00,74.8,62.7,29.97,North,0,0.0,0.0,66,0.00,,---,0.00,VWS V14.01,2013-09-09 06:32:00,
2013-09-09 02:33:00,74.8,62.7,29.97,North,0,0.0,0.0,66,0.00,,---,0.00,VWS V14.01,2013-09-09 06:33:00,
2013-09-09 02:34:00,74.8,62.7,29.97,North,0,0.0,0.0,66,0.00,,---,0.00,VWS V14.01,2013-09-09 06:34:00,
2013-09-09 02:35:00,74.5,62.4,29.97,North,0,0.0,0.0,66,0.00,,---,0.00,VWS V14.01,2013-09-09 06:35:00,
2013-09-09 02:36:00,74.8,62.7,29.97,North,0,0.0,0.0,66,0.00,,---,0.00,VWS V14.01,2013-09-09 06:36:00,
2013-09-09 02:37:00,74.7,62.6,29.97,North,0,0.0,0.0,66,0.00,,---,0.00,VWS V14.01,2013-09-09 06:37:00,
2013-09-09 02:38:00,74.7,62.6,29.97,North,0,0.0,0.0,66,0.00,,---,0.00,VWS V14.01,2013-09-09 06:38:00,
2013-09-09 02:39:00,74.7,62.6,29.97,North,0,0.0,0.0,66,0.00,,---,0.00,VWS V14.01,2013-09-09 06:39:00,
2013-09-09 02:40:00,74.5,62.4,29.97,North,0,0.0,0.0,66,0.00,,---,0.00,VWS V14.01,2013-09-09 06:40:00,
2013-09-09 02:41:00,74.7,62.6,29.97,North,0,0.0,0.0,66,0.00,,---,0.00,VWS V14.01,2013-09-09 06:41:00,
2013-09-09 02:42:00,74.7,62.6,29.97,North,0,0.0,0.0,66,0.00,,---,0.00,VWS V14.01,2013-09-09 06:42:00,
2013-09-09 02:43:00,74.7,62.6,29.97,North,0,0.0,0.0,66,0.00,,---,0.00,VWS V14.01,2013-09-09 06:43:00,
2013-09-09 02:44:00,74.7,62.6,29.97,North,0,0.0,0.0,66,0.00,,---,0.00,VWS V14.01,2013-09-09 06:44:00,
2013-09-09 02:45:00,74.5,62.8,29.97,North,0,0.0,0.0,67,0.00,,---,0.00,VWS V14.01,2013-09-09 06:45:00,
2013-09-09 02:46:00,74.5,62.4,29.97,North,0,0.0,0.0,66,0.00,,---,0.00,VWS V14.01,2013-09-09 06:46:00,
2013-09-09 02:47:00,74.5,62.4,29.97,North,0,0.0,0.0,66,0.00,,---,0.00,VWS V14.01,2013-09-09 06:47:00,
2013-09-09 02:48:00,74.5,62.4,29.97,North,0,0.0,0.0,66,0.00,,---,0.00,VWS V14.01,2013-09-09 06:48:00,
2013-09-09 02:49:00,74.5,62.4,29.97,North,0,0.0,0.0,66,0.00,,---,0.00,VWS V14.01,2013-09-09 06:49:00,
2013-09-09 02:50:00,74.3,62.6,29.97,North,0,0.0,0.0,67,0.00,,---,0.00,VWS V14.01,2013-09-09 06:50:00,
2013-09-09 02:51:00,74.5,62.4,29.97,North,0,0.0,0.0,66,0.00,,---,0.00,VWS V14.01,2013-09-09 06:51:00,
2013-09-09 02:52:00,74.5,62.4,29.97,North,0,0.0,0.0,66,0.00,,---,0.00,VWS V14.01,2013-09-09 06:52:00,
2013-09-09 02:53:00,74.5,62.4,29.97,North,0,0.0,0.0,66,0.00,,---,0.00,VWS V14.01,2013-09-09 06:53:00,
2013-09-09 02:54:00,74.5,62.4,29.97,North,0,0.0,0.0,66,0.00,,---,0.00,VWS V14.01,2013-09-09 06:54:00,
2013-09-09 02:55:00,74.1,62.5,29.97,North,0,0.0,0.0,67,0.00,,---,0.00,VWS V14.01,2013-09-09 06:55:00,
2013-09-09 02:56:00,74.5,62.4,29.97,North,0,0.0,0.0,66,0.00,,---,0.00,VWS V14.01,2013-09-09 06:56:00,
2013-09-09 02:57:00,74.5,62.4,29.97,North,0,0.0,0.0,66,0.00,,---,0.00,VWS V14.01,2013-09-09 06:57:00,
2013-09-09 02:58:00,74.5,62.8,29.97,North,0,0.0,0.0,67,0.00,,---,0.00,VWS V14.01,2013-09-09 06:58:00,
2013-09-09 02:59:00,74.3,62.2,29.97,North,0,0.0,0.0,66,0.00,,---,0.00,VWS V14.01,2013-09-09 06:59:00,
2013-09-09 03:00:00,73.9,62.7,29.97,North,0,0.0,0.0,68,0.00,,---,0.00,VWS V14.01,2013-09-09 07:00:00,
2013-09-09 03:01:00,74.3,62.6,29.97,North,0,0.0,0.0,67,0.00,,---,0.00,VWS V14.01,2013-09-09 07:01:00,
2013-09-09 03:02:00,74.3,62.6,29.97,North,0,0.0,0.0,67,0.00,,---,0.00,VWS V14.01,2013-09-09 07:02:00,
2013-09-09 03:03:00,74.3,62.6,29.97,North,0,0.0,0.0,67,0.00,,---,0.00,VWS V14.01,2013-09-09 07:03:00,
2013-09-09 03:04:00,74.3,62.6,29.97,North,0,0.0,0.0,67,0.00,,---,0.00,VWS V14.01,2013-09-09 07:04:00,
2013-09-09 03:05:00,74.1,63.3,29.97,North,0,0.0,0.0,69,0.00,,---,0.00,VWS V14.01,2013-09-09 07:05:00,
2013-09-09 03:06:00,74.1,62.5,29.97,North,0,0.0,0.0,67,0.00,,---,0.00,VWS V14.01,2013-09-09 07:06:00,
2013-09-09 03:07:00,74.1,62.5,29.97,North,0,0.0,0.0,67,0.00,,---,0.00,VWS V14.01,2013-09-09 07:07:00,
2013-09-09 03:08:00,74.1,62.9,29.97,North,0,0.0,0.0,68,0.00,,---,0.00,VWS V14.01,2013-09-09 07:08:00,
2013-09-09 03:09:00,73.9,62.3,29.97,North,0,0.0,0.0,67,0.00,,---,0.00,VWS V14.01,2013-09-09 07:09:00,
2013-09-09 03:10:00,74.1,63.7,29.97,North,0,0.0,0.0,70,0.00,,---,0.00,VWS V14.01,2013-09-09 07:10:00,
2013-09-09 03:11:00,73.9,62.7,29.97,North,0,0.0,0.0,68,0.00,,---,0.00,VWS V14.01,2013-09-09 07:11:00,
2013-09-09 03:12:00,73.9,62.7,29.97,North,0,0.0,0.0,68,0.00,,---,0.00,VWS V14.01,2013-09-09 07:12:00,
2013-09-09 03:13:00,73.9,62.7,29.97,North,0,0.0,0.0,68,0.00,,---,0.00,VWS V14.01,2013-09-09 07:13:00,
2013-09-09 03:14:00,73.9,62.7,29.97,North,0,0.0,0.0,68,0.00,,---,0.00,VWS V14.01,2013-09-09 07:14:00,
2013-09-09 03:15:00,73.9,63.1,29.97,North,0,0.0,0.0,69,0.00,,---,0.00,VWS V14.01,2013-09-09 07:15:00,
2013-09-09 03:16:00,74.1,62.9,29.97,North,0,0.0,0.0,68,0.00,,---,0.00,VWS V14.01,2013-09-09 07:16:00,
2013-09-09 03:17:00,74.1,62.9,29.97,North,0,0.0,0.0,68,0.00,,---,0.00,VWS V14.01,2013-09-09 07:17:00,
2013-09-09 03:18:00,74.1,63.3,29.97,North,0,0.0,0.0,69,0.00,,---,0.00,VWS V14.01,2013-09-09 07:18:00,
2013-09-09 03:19:00,74.1,63.3,29.97,North,0,0.0,0.0,69,0.00,,---,0.00,VWS V14.01,2013-09-09 07:19:00,
2013-09-09 03:20:00,73.6,62.8,29.94,North,0,0.0,0.0,69,0.00,,---,0.00,VWS V14.01,2013-09-09 07:20:00,
2013-09-09 03:21:00,74.1,63.3,29.97,North,0,0.0,0.0,69,0.00,,---,0.00,VWS V14.01,2013-09-09 07:21:00,
2013-09-09 03:22:00,74.1,63.7,29.97,North,0,0.0,0.0,70,0.00,,---,0.00,VWS V14.01,2013-09-09 07:22:00,
2013-09-09 03:23:00,74.1,63.7,29.97,North,0,0.0,0.0,70,0.00,,---,0.00,VWS V14.01,2013-09-09 07:23:00,
2013-09-09 03:24:00,74.1,63.7,29.97,North,0,0.0,0.0,70,0.00,,---,0.00,VWS V14.01,2013-09-09 07:24:00,
2013-09-09 03:25:00,73.6,62.8,29.94,North,0,0.0,0.0,69,0.00,,---,0.00,VWS V14.01,2013-09-09 07:25:00,
2013-09-09 03:26:00,73.9,63.1,29.97,North,0,0.0,0.0,69,0.00,,---,0.00,VWS V14.01,2013-09-09 07:26:00,
2013-09-09 03:27:00,73.9,63.1,29.97,North,0,0.0,0.0,69,0.00,,---,0.00,VWS V14.01,2013-09-09 07:27:00,
2013-09-09 03:28:00,73.9,63.1,29.97,North,0,0.0,0.0,69,0.00,,---,0.00,VWS V14.01,2013-09-09 07:28:00,
2013-09-09 03:29:00,73.9,63.1,29.97,North,0,0.0,0.0,69,0.00,,---,0.00,VWS V14.01,2013-09-09 07:29:00,
2013-09-09 03:30:00,73.4,63.0,29.94,North,0,0.0,0.0,70,0.00,,---,0.00,VWS V14.01,2013-09-09 07:30:00,
2013-09-09 03:31:00,73.8,63.0,29.94,North,0,0.0,0.0,69,0.00,,---,0.00,VWS V14.01,2013-09-09 07:31:00,
2013-09-09 03:32:00,73.8,63.0,29.94,North,0,0.0,0.0,69,0.00,,---,0.00,VWS V14.01,2013-09-09 07:32:00,
2013-09-09 03:33:00,73.6,62.8,29.94,North,0,0.0,0.0,69,0.00,,---,0.00,VWS V14.01,2013-09-09 07:33:00,
2013-09-09 03:34:00,73.6,62.4,29.94,North,0,0.0,0.0,68,0.00,,---,0.00,VWS V14.01,2013-09-09 07:34:00,
2013-09-09 03:35:00,73.2,62.9,29.94,North,0,0.0,0.0,70,0.00,,---,0.00,VWS V14.01,2013-09-09 07:35:00,
2013-09-09 03:36:00,73.6,62.8,29.94,North,0,0.0,0.0,69,0.00,,---,0.00,VWS V14.01,2013-09-09 07:36:00,
2013-09-09 03:37:00,73.6,62.8,29.94,North,0,0.0,0.0,69,0.00,,---,0.00,VWS V14.01,2013-09-09 07:37:00,
2013-09-09 03:38:00,73.4,62.6,29.94,North,0,0.0,0.0,69,0.00,,---,0.00,VWS V14.01,2013-09-09 07:38:00,
2013-09-09 03:39:00,73.4,62.6,29.94,North,0,0.0,0.0,69,0.00,,---,0.00,VWS V14.01,2013-09-09 07:39:00,
2013-09-09 03:40:00,73.0,62.7,29.94,North,0,0.0,0.0,70,0.00,,---,0.00,VWS V14.01,2013-09-09 07:40:00,
2013-09-09 03:41:00,73.4,62.6,29.94,North,0,0.0,0.0,69,0.00,,---,0.00,VWS V14.01,2013-09-09 07:41:00,
2013-09-09 03:42:00,73.4,62.6,29.94,North,0,0.0,0.0,69,0.00,,---,0.00,VWS V14.01,2013-09-09 07:42:00,
2013-09-09 03:43:00,73.4,63.0,29.94,North,0,0.0,0.0,70,0.00,,---,0.00,VWS V14.01,2013-09-09 07:43:00,
2013-09-09 03:44:00,73.2,62.9,29.94,North,0,0.0,0.0,70,0.00,,---,0.00,VWS V14.01,2013-09-09 07:44:00,
2013-09-09 03:45:00,73.0,63.1,29.94,North,0,0.0,0.0,71,0.00,,---,0.00,VWS V14.01,2013-09-09 07:45:00,
2013-09-09 03:46:00,73.2,62.9,29.94,North,0,0.0,0.0,70,0.00,,---,0.00,VWS V14.01,2013-09-09 07:46:00,
2013-09-09 03:47:00,73.2,62.9,29.94,North,0,0.0,0.0,70,0.00,,---,0.00,VWS V14.01,2013-09-09 07:47:00,
2013-09-09 03:48:00,73.0,62.7,29.94,North,0,0.0,0.0,70,0.00,,---,0.00,VWS V14.01,2013-09-09 07:48:00,
2013-09-09 03:49:00,73.0,62.7,29.94,North,0,0.0,0.0,70,0.00,,---,0.00,VWS V14.01,2013-09-09 07:49:00,
2013-09-09 03:50:00,73.0,63.1,29.97,North,0,0.0,0.0,71,0.00,,---,0.00,VWS V14.01,2013-09-09 07:50:00,
2013-09-09 03:51:00,73.0,62.7,29.94,North,0,0.0,0.0,70,0.00,,---,0.00,VWS V14.01,2013-09-09 07:51:00,
2013-09-09 03:52:00,73.0,62.7,29.94,North,0,0.0,0.0,70,0.00,,---,0.00,VWS V14.01,2013-09-09 07:52:00,
2013-09-09 03:53:00,73.0,62.7,29.94,North,0,0.0,0.0,70,0.00,,---,0.00,VWS V14.01,2013-09-09 07:53:00,
2013-09-09 03:54:00,73.0,63.1,29.94,North,0,0.0,0.0,71,0.00,,---,0.00,VWS V14.01,2013-09-09 07:54:00,
2013-09-09 03:55:00,73.0,63.5,29.97,North,0,0.0,0.0,72,0.00,,---,0.00,VWS V14.01,2013-09-09 07:55:00,
2013-09-09 03:56:00,73.0,63.1,29.94,North,0,0.0,0.0,71,0.00,,---,0.00,VWS V14.01,2013-09-09 07:56:00,
2013-09-09 03:57:00,73.0,63.1,29.94,North,0,0.0,0.0,71,0.00,,---,0.00,VWS V14.01,2013-09-09 07:57:00,
2013-09-09 03:58:00,73.0,63.1,29.94,North,0,0.0,0.0,71,0.00,,---,0.00,VWS V14.01,2013-09-09 07:58:00,
2013-09-09 03:59:00,73.0,63.1,29.94,North,0,0.0,0.0,71,0.00,,---,0.00,VWS V14.01,2013-09-09 07:59:00,
2013-09-09 04:00:00,72.9,63.3,29.97,North,0,0.0,0.0,72,0.00,,---,0.00,VWS V14.01,2013-09-09 08:00:00,
2013-09-09 04:01:00,73.0,63.1,29.97,North,0,0.0,0.0,71,0.00,,---,0.00,VWS V14.01,2013-09-09 08:01:00,
2013-09-09 04:02:00,73.0,63.1,29.97,North,0,0.0,0.0,71,0.00,,---,0.00,VWS V14.01,2013-09-09 08:02:00,
2013-09-09 04:03:00,73.0,63.1,29.97,North,0,0.0,0.0,71,0.00,,---,0.00,VWS V14.01,2013-09-09 08:03:00,
2013-09-09 04:04:00,73.0,63.5,29.97,North,0,0.0,0.0,72,0.00,,---,0.00,VWS V14.01,2013-09-09 08:04:00,
2013-09-09 04:05:00,72.9,63.7,29.94,North,0,0.0,0.0,73,0.00,,---,0.00,VWS V14.01,2013-09-09 08:05:00,
2013-09-09 04:06:00,73.0,63.5,29.97,North,0,0.0,0.0,72,0.00,,---,0.00,VWS V14.01,2013-09-09 08:06:00,
2013-09-09 04:07:00,72.9,63.3,29.97,North,0,0.0,0.0,72,0.00,,---,0.00,VWS V14.01,2013-09-09 08:07:00,
2013-09-09 04:08:00,73.0,63.5,29.97,North,0,0.0,0.0,72,0.00,,---,0.00,VWS V14.01,2013-09-09 08:08:00,
2013-09-09 04:09:00,72.9,63.3,29.97,North,0,0.0,0.0,72,0.00,,---,0.00,VWS V14.01,2013-09-09 08:09:00,
2013-09-09 04:10:00,72.7,63.5,29.94,North,0,0.0,0.0,73,0.00,,---,0.00,VWS V14.01,2013-09-09 08:10:00,
2013-09-09 04:11:00,72.9,63.3,29.97,North,0,0.0,0.0,72,0.00,,---,0.00,VWS V14.01,2013-09-09 08:11:00,
2013-09-09 04:12:00,72.9,63.3,29.97,North,0,0.0,0.0,72,0.00,,---,0.00,VWS V14.01,2013-09-09 08:12:00,
2013-09-09 04:13:00,72.9,63.3,29.97,North,0,0.0,0.0,72,0.00,,---,0.00,VWS V14.01,2013-09-09 08:13:00,
2013-09-09 04:14:00,72.9,63.3,29.97,North,0,0.0,0.0,72,0.00,,---,0.00,VWS V14.01,2013-09-09 08:14:00,
2013-09-09 04:15:00,72.9,64.1,29.94,North,0,0.0,0.0,74,0.00,,---,0.00,VWS V14.01,2013-09-09 08:15:00,
2013-09-09 04:16:00,72.9,63.7,29.94,North,0,0.0,0.0,73,0.00,,---,0.00,VWS V14.01,2013-09-09 08:16:00,
2013-09-09 04:17:00,72.9,63.7,29.94,North,0,0.0,0.0,73,0.00,,---,0.00,VWS V14.01,2013-09-09 08:17:00,
2013-09-09 04:18:00,72.9,63.7,29.94,North,0,0.0,0.0,73,0.00,,---,0.00,VWS V14.01,2013-09-09 08:18:00,
2013-09-09 04:19:00,72.9,63.7,29.94,North,0,0.0,0.0,73,0.00,,---,0.00,VWS V14.01,2013-09-09 08:19:00,
2013-09-09 04:20:00,72.7,63.9,29.94,North,0,0.0,0.0,74,0.00,,---,0.00,VWS V14.01,2013-09-09 08:20:00,
2013-09-09 04:21:00,72.7,63.5,29.94,North,0,0.0,0.0,73,0.00,,---,0.00,VWS V14.01,2013-09-09 08:21:00,
2013-09-09 04:22:00,72.7,63.5,29.94,North,0,0.0,0.0,73,0.00,,---,0.00,VWS V14.01,2013-09-09 08:22:00,
2013-09-09 04:23:00,72.7,63.5,29.94,North,0,0.0,0.0,73,0.00,,---,0.00,VWS V14.01,2013-09-09 08:23:00,
2013-09-09 04:24:00,72.7,63.5,29.94,North,0,0.0,0.0,73,0.00,,---,0.00,VWS V14.01,2013-09-09 08:24:00,
2013-09-09 04:25:00,72.7,64.3,29.94,North,0,0.0,0.0,75,0.00,,---,0.00,VWS V14.01,2013-09-09 08:25:00,
2013-09-09 04:26:00,72.7,63.9,29.94,North,0,0.0,0.0,74,0.00,,---,0.00,VWS V14.01,2013-09-09 08:26:00,
2013-09-09 04:27:00,72.9,64.1,29.94,North,0,0.0,0.0,74,0.00,,---,0.00,VWS V14.01,2013-09-09 08:27:00,
2013-09-09 04:28:00,72.9,64.1,29.94,North,0,0.0,0.0,74,0.00,,---,0.00,VWS V14.01,2013-09-09 08:28:00,
2013-09-09 04:29:00,72.9,64.5,29.94,North,0,0.0,0.0,75,0.00,,---,0.00,VWS V14.01,2013-09-09 08:29:00,
2013-09-09 04:30:00,72.7,63.9,29.94,North,0,0.0,0.0,74,0.00,,---,0.00,VWS V14.01,2013-09-09 08:30:00,
2013-09-09 04:31:00,72.7,64.3,29.94,North,0,0.0,0.0,75,0.00,,---,0.00,VWS V14.01,2013-09-09 08:31:00,
2013-09-09 04:32:00,72.7,63.9,29.94,North,0,0.0,0.0,74,0.00,,---,0.00,VWS V14.01,2013-09-09 08:32:00,
2013-09-09 04:33:00,72.7,63.9,29.94,North,0,0.0,0.0,74,0.00,,---,0.00,VWS V14.01,2013-09-09 08:33:00,
2013-09-09 04:34:00,72.7,63.9,29.94,North,0,0.0,0.0,74,0.00,,---,0.00,VWS V14.01,2013-09-09 08:34:00,
2013-09-09 04:35:00,72.5,64.1,29.97,North,0,0.0,0.0,75,0.00,,---,0.00,VWS V14.01,2013-09-09 08:35:00,
2013-09-09 04:36:00,72.7,64.3,29.94,North,0,0.0,0.0,75,0.00,,---,0.00,VWS V14.01,2013-09-09 08:36:00,
2013-09-09 04:37:00,72.7,64.3,29.94,North,0,0.0,0.0,75,0.00,,---,0.00,VWS V14.01,2013-09-09 08:37:00,
2013-09-09 04:38:00,72.7,63.9,29.94,North,0,0.0,0.0,74,0.00,,---,0.00,VWS V14.01,2013-09-09 08:38:00,
2013-09-09 04:39:00,72.7,63.9,29.94,North,0,0.0,0.0,74,0.00,,---,0.00,VWS V14.01,2013-09-09 08:39:00,
2013-09-09 04:40:00,72.5,64.1,29.97,North,0,0.0,0.0,75,0.00,,---,0.00,VWS V14.01,2013-09-09 08:40:00,
2013-09-09 04:41:00,72.7,64.3,29.94,North,0,0.0,0.0,75,0.00,,---,0.00,VWS V14.01,2013-09-09 08:41:00,
2013-09-09 04:42:00,72.7,64.3,29.94,North,0,0.0,0.0,75,0.00,,---,0.00,VWS V14.01,2013-09-09 08:42:00,
2013-09-09 04:43:00,72.7,63.9,29.94,North,0,0.0,0.0,74,0.00,,---,0.00,VWS V14.01,2013-09-09 08:43:00,
2013-09-09 04:44:00,72.7,63.9,29.94,North,0,0.0,0.0,74,0.00,,---,0.00,VWS V14.01,2013-09-09 08:44:00,
2013-09-09 04:45:00,72.5,64.1,29.97,North,0,0.0,0.0,75,0.00,,---,0.00,VWS V14.01,2013-09-09 08:45:00,
2013-09-09 04:46:00,72.5,64.1,29.97,North,0,0.0,0.0,75,0.00,,---,0.00,VWS V14.01,2013-09-09 08:46:00,
2013-09-09 04:47:00,72.5,64.1,29.97,North,0,0.0,0.0,75,0.00,,---,0.00,VWS V14.01,2013-09-09 08:47:00,
2013-09-09 04:48:00,72.5,64.1,29.97,North,0,0.0,0.0,75,0.00,,---,0.00,VWS V14.01,2013-09-09 08:48:00,
2013-09-09 04:49:00,72.5,64.1,29.97,North,0,0.0,0.0,75,0.00,,---,0.00,VWS V14.01,2013-09-09 08:49:00,
2013-09-09 04:50:00,72.3,64.0,29.94,North,0,0.0,0.0,75,0.00,,---,0.00,VWS V14.01,2013-09-09 08:50:00,
2013-09-09 04:51:00,72.5,64.1,29.97,North,0,0.0,0.0,75,0.00,,---,0.00,VWS V14.01,2013-09-09 08:51:00,
2013-09-09 04:52:00,72.5,64.1,29.97,North,0,0.0,0.0,75,0.00,,---,0.00,VWS V14.01,2013-09-09 08:52:00,
2013-09-09 04:53:00,72.5,64.1,29.97,North,0,0.0,0.0,75,0.00,,---,0.00,VWS V14.01,2013-09-09 08:53:00,
2013-09-09 04:54:00,72.5,64.5,29.97,North,0,0.0,0.0,76,0.00,,---,0.00,VWS V14.01,2013-09-09 08:54:00,
2013-09-09 04:55:00,72.3,64.3,29.94,North,0,0.0,0.0,76,0.00,,---,0.00,VWS V14.01,2013-09-09 08:55:00,
2013-09-09 04:56:00,72.5,64.1,29.97,North,0,0.0,0.0,75,0.00,,---,0.00,VWS V14.01,2013-09-09 08:56:00,
2013-09-09 04:57:00,72.5,64.1,29.97,North,0,0.0,0.0,75,0.00,,---,0.00,VWS V14.01,2013-09-09 08:57:00,
2013-09-09 04:58:00,72.5,64.1,29.97,North,0,0.0,0.0,75,0.00,,---,0.00,VWS V14.01,2013-09-09 08:58:00,
2013-09-09 04:59:00,72.3,64.0,29.97,North,0,0.0,0.0,75,0.00,,---,0.00,VWS V14.01,2013-09-09 08:59:00,
2013-09-09 05:00:00,72.1,64.2,29.94,North,0,0.0,0.0,76,0.00,,---,0.00,VWS V14.01,2013-09-09 09:00:00,
2013-09-09 05:01:00,72.3,64.0,29.94,North,0,0.0,0.0,75,0.00,,---,0.00,VWS V14.01,2013-09-09 09:01:00,
2013-09-09 05:02:00,72.3,64.0,29.94,North,0,0.0,0.0,75,0.00,,---,0.00,VWS V14.01,2013-09-09 09:02:00,
2013-09-09 05:03:00,72.3,64.0,29.94,North,0,0.0,0.0,75,0.00,,---,0.00,VWS V14.01,2013-09-09 09:03:00,
2013-09-09 05:04:00,72.3,64.3,29.94,North,0,0.0,0.0,76,0.00,,---,0.00,VWS V14.01,2013-09-09 09:04:00,
2013-09-09 05:05:00,72.1,64.5,29.94,North,0,0.0,0.0,77,0.00,,---,0.00,VWS V14.01,2013-09-09 09:05:00,
2013-09-09 05:06:00,72.1,64.2,29.94,North,0,0.0,0.0,76,0.00,,---,0.00,VWS V14.01,2013-09-09 09:06:00,
2013-09-09 05:07:00,72.3,64.3,29.94,North,0,0.0,0.0,76,0.00,,---,0.00,VWS V14.01,2013-09-09 09:07:00,
2013-09-09 05:08:00,72.3,64.3,29.94,North,0,0.0,0.0,76,0.00,,---,0.00,VWS V14.01,2013-09-09 09:08:00,
2013-09-09 05:09:00,72.1,64.2,29.94,North,0,0.0,0.0,76,0.00,,---,0.00,VWS V14.01,2013-09-09 09:09:00,
2013-09-09 05:10:00,72.1,64.5,29.94,North,0,0.0,0.0,77,0.00,,---,0.00,VWS V14.01,2013-09-09 09:10:00,
2013-09-09 05:11:00,72.1,64.2,29.94,North,0,0.0,0.0,76,0.00,,---,0.00,VWS V14.01,2013-09-09 09:11:00,
2013-09-09 05:12:00,72.1,64.2,29.94,North,0,0.0,0.0,76,0.00,,---,0.00,VWS V14.01,2013-09-09 09:12:00,
2013-09-09 05:13:00,72.1,64.2,29.94,North,0,0.0,0.0,76,0.00,,---,0.00,VWS V14.01,2013-09-09 09:13:00,
2013-09-09 05:14:00,72.1,64.2,29.94,North,0,0.0,0.0,76,0.00,,---,0.00,VWS V14.01,2013-09-09 09:14:00,
2013-09-09 05:15:00,72.1,64.5,29.94,North,0,0.0,0.0,77,0.00,,---,0.00,VWS V14.01,2013-09-09 09:15:00,
2013-09-09 05:16:00,72.1,64.5,29.94,North,0,0.0,0.0,77,0.00,,---,0.00,VWS V14.01,2013-09-09 09:16:00,
2013-09-09 05:17:00,72.1,64.5,29.94,North,0,0.0,0.0,77,0.00,,---,0.00,VWS V14.01,2013-09-09 09:17:00,
2013-09-09 05:18:00,72.1,64.5,29.94,North,0,0.0,0.0,77,0.00,,---,0.00,VWS V14.01,2013-09-09 09:18:00,
2013-09-09 05:19:00,72.1,64.5,29.94,North,0,0.0,0.0,77,0.00,,---,0.00,VWS V14.01,2013-09-09 09:19:00,
2013-09-09 05:20:00,72.0,64.4,29.97,North,0,0.0,0.0,77,0.00,,---,0.00,VWS V14.01,2013-09-09 09:20:00,
2013-09-09 05:21:00,72.1,64.5,29.94,North,0,0.0,0.0,77,0.00,,---,0.00,VWS V14.01,2013-09-09 09:21:00,
2013-09-09 05:22:00,72.1,64.5,29.94,North,0,0.0,0.0,77,0.00,,---,0.00,VWS V14.01,2013-09-09 09:22:00,
2013-09-09 05:23:00,72.1,64.5,29.94,North,0,0.0,0.0,77,0.00,,---,0.00,VWS V14.01,2013-09-09 09:23:00,
2013-09-09 05:24:00,72.1,64.5,29.94,North,0,0.0,0.0,77,0.00,,---,0.00,VWS V14.01,2013-09-09 09:24:00,
2013-09-09 05:25:00,72.0,64.7,29.97,North,0,0.0,0.0,78,0.00,,---,0.00,VWS V14.01,2013-09-09 09:25:00,
2013-09-09 05:26:00,72.1,64.5,29.94,North,0,0.0,0.0,77,0.00,,---,0.00,VWS V14.01,2013-09-09 09:26:00,
2013-09-09 05:27:00,72.1,64.5,29.94,North,0,0.0,0.0,77,0.00,,---,0.00,VWS V14.01,2013-09-09 09:27:00,
2013-09-09 05:28:00,72.0,64.4,29.94,North,0,0.0,0.0,77,0.00,,---,0.00,VWS V14.01,2013-09-09 09:28:00,
2013-09-09 05:29:00,72.0,64.4,29.94,North,0,0.0,0.0,77,0.00,,---,0.00,VWS V14.01,2013-09-09 09:29:00,
2013-09-09 05:30:00,71.8,64.6,29.97,North,0,0.0,0.0,78,0.00,,---,0.00,VWS V14.01,2013-09-09 09:30:00,
2013-09-09 05:31:00,72.0,64.4,29.97,North,0,0.0,0.0,77,0.00,,---,0.00,VWS V14.01,2013-09-09 09:31:00,
2013-09-09 05:32:00,72.0,64.4,29.97,North,0,0.0,0.0,77,0.00,,---,0.00,VWS V14.01,2013-09-09 09:32:00,
2013-09-09 05:33:00,72.0,64.4,29.97,North,0,0.0,0.0,77,0.00,,---,0.00,VWS V14.01,2013-09-09 09:33:00,
2013-09-09 05:34:00,72.0,64.4,29.97,North,0,0.0,0.0,77,0.00,,---,0.00,VWS V14.01,2013-09-09 09:34:00,
2013-09-09 05:35:00,71.8,64.6,29.97,North,0,0.0,0.0,78,0.00,,---,0.00,VWS V14.01,2013-09-09 09:35:00,
2013-09-09 05:36:00,71.8,64.6,29.97,North,0,0.0,0.0,78,0.00,,---,0.00,VWS V14.01,2013-09-09 09:36:00,
2013-09-09 05:37:00,72.0,64.7,29.97,North,0,0.0,0.0,78,0.00,,---,0.00,VWS V14.01,2013-09-09 09:37:00,
2013-09-09 05:38:00,72.0,64.7,29.97,North,0,0.0,0.0,78,0.00,,---,0.00,VWS V14.01,2013-09-09 09:38:00,
2013-09-09 05:39:00,71.8,64.6,29.97,North,0,0.0,0.0,78,0.00,,---,0.00,VWS V14.01,2013-09-09 09:39:00,
2013-09-09 05:40:00,71.6,64.4,29.97,North,0,0.0,0.0,78,0.00,,---,0.00,VWS V14.01,2013-09-09 09:40:00,
2013-09-09 05:41:00,71.8,64.6,29.97,North,0,0.0,0.0,78,0.00,,---,0.00,VWS V14.01,2013-09-09 09:41:00,
2013-09-09 05:42:00,71.8,64.6,29.97,North,0,0.0,0.0,78,0.00,,---,0.00,VWS V14.01,2013-09-09 09:42:00,
2013-09-09 05:43:00,71.8,64.6,29.97,North,0,0.0,0.0,78,0.00,,---,0.00,VWS V14.01,2013-09-09 09:43:00,
2013-09-09 05:44:00,71.8,64.6,29.97,North,0,0.0,0.0,78,0.00,,---,0.00,VWS V14.01,2013-09-09 09:44:00,
2013-09-09 05:45:00,71.8,64.9,29.97,North,0,0.0,0.0,79,0.00,,---,0.00,VWS V14.01,2013-09-09 09:45:00,
2013-09-09 05:46:00,71.8,64.6,29.97,North,0,0.0,0.0,78,0.00,,---,0.00,VWS V14.01,2013-09-09 09:46:00,
2013-09-09 05:47:00,71.8,64.6,29.97,North,0,0.0,0.0,78,0.00,,---,0.00,VWS V14.01,2013-09-09 09:47:00,
2013-09-09 05:48:00,71.8,64.6,29.97,North,0,0.0,0.0,78,0.00,,---,0.00,VWS V14.01,2013-09-09 09:48:00,
2013-09-09 05:49:00,71.8,64.6,29.97,North,0,0.0,0.0,78,0.00,,---,0.00,VWS V14.01,2013-09-09 09:49:00,
2013-09-09 05:50:00,71.6,64.8,29.97,North,0,0.0,0.0,79,0.00,,---,0.00,VWS V14.01,2013-09-09 09:50:00,
2013-09-09 05:51:00,71.8,64.6,29.97,North,0,0.0,0.0,78,0.00,,---,0.00,VWS V14.01,2013-09-09 09:51:00,
2013-09-09 05:52:00,71.8,64.9,29.97,North,0,0.0,0.0,79,0.00,,---,0.00,VWS V14.01,2013-09-09 09:52:00,
2013-09-09 05:53:00,71.6,64.4,29.97,North,0,0.0,0.0,78,0.00,,---,0.00,VWS V14.01,2013-09-09 09:53:00,
2013-09-09 05:54:00,71.8,64.6,29.97,North,0,0.0,0.0,78,0.00,,---,0.00,VWS V14.01,2013-09-09 09:54:00,
2013-09-09 05:55:00,71.6,64.8,29.97,North,0,0.0,0.0,79,0.00,,---,0.00,VWS V14.01,2013-09-09 09:55:00,
2013-09-09 05:56:00,71.8,64.9,29.97,North,0,0.0,0.0,79,0.00,,---,0.00,VWS V14.01,2013-09-09 09:56:00,
2013-09-09 05:57:00,71.8,64.9,29.97,North,0,0.0,0.0,79,0.00,,---,0.00,VWS V14.01,2013-09-09 09:57:00,
2013-09-09 05:58:00,71.6,64.8,29.97,North,0,0.0,0.0,79,0.00,,---,0.00,VWS V14.01,2013-09-09 09:58:00,
2013-09-09 05:59:00,71.6,64.8,29.97,North,0,0.0,0.0,79,0.00,,---,0.00,VWS V14.01,2013-09-09 09:59:00,
2013-09-09 06:00:00,71.6,64.8,29.97,North,0,0.0,0.0,79,0.00,,---,0.00,VWS V14.01,2013-09-09 10:00:00,
2013-09-09 06:01:00,71.6,64.8,29.97,North,0,0.0,0.0,79,0.00,,---,0.00,VWS V14.01,2013-09-09 10:01:00,
2013-09-09 06:02:00,71.6,64.8,29.97,North,0,0.0,0.0,79,0.00,,---,0.00,VWS V14.01,2013-09-09 10:02:00,
2013-09-09 06:03:00,71.6,64.8,29.97,North,0,0.0,0.0,79,0.00,,---,0.00,VWS V14.01,2013-09-09 10:03:00,
2013-09-09 06:04:00,71.6,64.8,29.97,North,0,0.0,0.0,79,0.00,,---,0.00,VWS V14.01,2013-09-09 10:04:00,
2013-09-09 06:05:00,71.4,64.9,29.97,North,0,0.0,0.0,80,0.00,,---,0.00,VWS V14.01,2013-09-09 10:05:00,
2013-09-09 06:06:00,71.6,64.8,29.97,North,0,0.0,0.0,79,0.00,,---,0.00,VWS V14.01,2013-09-09 10:06:00,
2013-09-09 06:07:00,71.6,64.8,29.97,North,0,0.0,0.0,79,0.00,,---,0.00,VWS V14.01,2013-09-09 10:07:00,
2013-09-09 06:08:00,71.6,64.8,29.97,North,0,0.0,0.0,79,0.00,,---,0.00,VWS V14.01,2013-09-09 10:08:00,
2013-09-09 06:09:00,71.6,64.8,29.97,North,0,0.0,0.0,79,0.00,,---,0.00,VWS V14.01,2013-09-09 10:09:00,
2013-09-09 06:10:00,71.4,64.9,29.97,North,0,0.0,0.0,80,0.00,,---,0.00,VWS V14.01,2013-09-09 10:10:00,
2013-09-09 06:11:00,71.6,64.8,29.97,North,0,0.0,0.0,79,0.00,,---,0.00,VWS V14.01,2013-09-09 10:11:00,
2013-09-09 06:12:00,71.6,64.8,29.97,North,0,0.0,0.0,79,0.00,,---,0.00,VWS V14.01,2013-09-09 10:12:00,
2013-09-09 06:13:00,71.6,64.8,29.97,North,0,0.0,0.0,79,0.00,,---,0.00,VWS V14.01,2013-09-09 10:13:00,
2013-09-09 06:14:00,71.4,64.9,29.97,North,0,0.0,0.0,80,0.00,,---,0.00,VWS V14.01,2013-09-09 10:14:00,
2013-09-09 06:15:00,71.4,65.3,29.97,North,0,0.0,0.0,81,0.00,,---,0.00,VWS V14.01,2013-09-09 10:15:00,
2013-09-09 06:16:00,71.4,64.9,29.97,North,0,0.0,0.0,80,0.00,,---,0.00,VWS V14.01,2013-09-09 10:16:00,
2013-09-09 06:17:00,71.4,64.9,29.97,North,0,0.0,0.0,80,0.00,,---,0.00,VWS V14.01,2013-09-09 10:17:00,
2013-09-09 06:18:00,71.4,64.9,29.97,North,0,0.0,0.0,80,0.00,,---,0.00,VWS V14.01,2013-09-09 10:18:00,
2013-09-09 06:19:00,71.4,64.9,29.97,North,0,0.0,0.0,80,0.00,,---,0.00,VWS V14.01,2013-09-09 10:19:00,
2013-09-09 06:20:00,71.4,65.3,29.97,North,0,0.0,0.0,81,0.00,,---,0.00,VWS V14.01,2013-09-09 10:20:00,
2013-09-09 06:21:00,71.4,64.9,29.97,North,0,0.0,0.0,80,0.00,,---,0.00,VWS V14.01,2013-09-09 10:21:00,
2013-09-09 06:22:00,71.4,64.9,29.97,North,0,0.0,0.0,80,0.00,,---,0.00,VWS V14.01,2013-09-09 10:22:00,
2013-09-09 06:23:00,71.4,64.9,29.97,North,0,0.0,0.0,80,0.00,,---,0.00,VWS V14.01,2013-09-09 10:23:00,
2013-09-09 06:24:00,71.4,65.3,29.97,North,0,0.0,0.0,81,0.00,,---,0.00,VWS V14.01,2013-09-09 10:24:00,
2013-09-09 06:25:00,71.4,65.3,29.97,North,0,0.0,0.0,81,0.00,,---,0.00,VWS V14.01,2013-09-09 10:25:00,
2013-09-09 06:26:00,71.4,65.3,29.97,North,0,0.0,0.0,81,0.00,,---,0.00,VWS V14.01,2013-09-09 10:26:00,
2013-09-09 06:27:00,71.4,65.3,29.97,North,0,0.0,0.0,81,0.00,,---,0.00,VWS V14.01,2013-09-09 10:27:00,
2013-09-09 06:28:00,71.4,65.3,29.97,North,0,0.0,0.0,81,0.00,,---,0.00,VWS V14.01,2013-09-09 10:28:00,
2013-09-09 06:29:00,71.4,65.3,29.97,North,0,0.0,0.0,81,0.00,,---,0.00,VWS V14.01,2013-09-09 10:29:00,
2013-09-09 06:30:00,71.6,65.5,29.97,North,0,0.0,0.0,81,0.00,,---,0.00,VWS V14.01,2013-09-09 10:30:00,
2013-09-09 06:31:00,71.4,65.3,29.97,North,0,0.0,0.0,81,0.00,,---,0.00,VWS V14.01,2013-09-09 10:31:00,
2013-09-09 06:32:00,71.4,65.3,29.97,North,0,0.0,0.0,81,0.00,,---,0.00,VWS V14.01,2013-09-09 10:32:00,
2013-09-09 06:33:00,71.4,65.3,29.97,North,0,0.0,0.0,81,0.00,,---,0.00,VWS V14.01,2013-09-09 10:33:00,
2013-09-09 06:34:00,71.4,65.3,29.97,North,0,0.0,0.0,81,0.00,,---,0.00,VWS V14.01,2013-09-09 10:34:00,
2013-09-09 06:35:00,71.8,65.6,29.97,North,0,0.0,0.0,81,0.00,,---,0.00,VWS V14.01,2013-09-09 10:35:00,
2013-09-09 06:36:00,71.4,65.3,29.97,North,0,0.0,0.0,81,0.00,,---,0.00,VWS V14.01,2013-09-09 10:36:00,
2013-09-09 06:37:00,71.4,65.3,29.97,North,0,0.0,0.0,81,0.00,,---,0.00,VWS V14.01,2013-09-09 10:37:00,
2013-09-09 06:38:00,71.4,65.3,29.97,North,0,0.0,0.0,81,0.00,,---,0.00,VWS V14.01,2013-09-09 10:38:00,
2013-09-09 06:39:00,71.6,65.5,29.97,North,0,0.0,0.0,81,0.00,,---,0.00,VWS V14.01,2013-09-09 10:39:00,
2013-09-09 06:40:00,71.8,65.6,29.97,North,0,0.0,0.0,81,0.00,,---,0.00,VWS V14.01,2013-09-09 10:40:00,
2013-09-09 06:41:00,71.6,65.5,29.97,North,0,0.0,0.0,81,0.00,,---,0.00,VWS V14.01,2013-09-09 10:41:00,
2013-09-09 06:42:00,71.6,65.5,29.97,North,0,0.0,0.0,81,0.00,,---,0.00,VWS V14.01,2013-09-09 10:42:00,
2013-09-09 06:43:00,71.6,65.5,29.97,North,0,0.0,0.0,81,0.00,,---,0.00,VWS V14.01,2013-09-09 10:43:00,
2013-09-09 06:44:00,71.6,65.5,29.97,North,0,0.0,0.0,81,0.00,,---,0.00,VWS V14.01,2013-09-09 10:44:00,
2013-09-09 06:45:00,71.8,65.6,29.97,North,0,0.0,0.0,81,0.00,,---,0.00,VWS V14.01,2013-09-09 10:45:00,
2013-09-09 06:46:00,71.6,65.5,29.97,North,0,0.0,0.0,81,0.00,,---,0.00,VWS V14.01,2013-09-09 10:46:00,
2013-09-09 06:47:00,71.8,65.6,29.97,North,0,0.0,0.0,81,0.00,,---,0.00,VWS V14.01,2013-09-09 10:47:00,
2013-09-09 06:48:00,71.8,65.6,29.97,North,0,0.0,0.0,81,0.00,,---,0.00,VWS V14.01,2013-09-09 10:48:00,
2013-09-09 06:49:00,71.8,65.6,29.97,North,0,0.0,0.0,81,0.00,,---,0.00,VWS V14.01,2013-09-09 10:49:00,
2013-09-09 06:50:00,71.8,65.6,29.97,North,0,0.0,0.0,81,0.00,,---,0.00,VWS V14.01,2013-09-09 10:50:00,
2013-09-09 06:51:00,71.8,65.6,29.97,North,0,0.0,0.0,81,0.00,,---,0.00,VWS V14.01,2013-09-09 10:51:00,
2013-09-09 06:52:00,71.8,65.6,29.97,North,0,0.0,0.0,81,0.00,,---,0.00,VWS V14.01,2013-09-09 10:52:00,
2013-09-09 06:53:00,71.8,65.6,29.97,North,0,0.0,0.0,81,0.00,,---,0.00,VWS V14.01,2013-09-09 10:53:00,
2013-09-09 06:54:00,71.8,65.6,29.97,North,0,0.0,0.0,81,0.00,,---,0.00,VWS V14.01,2013-09-09 10:54:00,
2013-09-09 06:55:00,71.8,65.6,29.97,North,0,0.0,0.0,81,0.00,,---,0.00,VWS V14.01,2013-09-09 10:55:00,
2013-09-09 06:56:00,71.8,65.6,29.97,North,0,0.0,0.0,81,0.00,,---,0.00,VWS V14.01,2013-09-09 10:56:00,
2013-09-09 06:57:00,71.8,65.6,29.97,North,0,0.0,0.0,81,0.00,,---,0.00,VWS V14.01,2013-09-09 10:57:00,
2013-09-09 06:58:00,71.8,65.6,29.97,North,0,0.0,0.0,81,0.00,,---,0.00,VWS V14.01,2013-09-09 10:58:00,
2013-09-09 06:59:00,71.8,65.6,29.97,North,0,0.0,0.0,81,0.00,,---,0.00,VWS V14.01,2013-09-09 10:59:00,
2013-09-09 07:00:00,71.8,66.0,29.97,North,0,0.0,0.0,82,0.00,,---,0.00,VWS V14.01,2013-09-09 11:00:00,
2013-09-09 07:01:00,71.8,65.6,29.97,North,0,0.0,0.0,81,0.00,,---,0.00,VWS V14.01,2013-09-09 11:01:00,
2013-09-09 07:02:00,71.8,65.6,29.97,North,0,0.0,0.0,81,0.00,,---,0.00,VWS V14.01,2013-09-09 11:02:00,
2013-09-09 07:03:00,71.8,65.6,29.97,North,0,0.0,0.0,81,0.00,,---,0.00,VWS V14.01,2013-09-09 11:03:00,
2013-09-09 07:04:00,71.8,65.6,29.97,North,0,0.0,0.0,81,0.00,,---,0.00,VWS V14.01,2013-09-09 11:04:00,
2013-09-09 07:05:00,71.8,66.0,29.94,North,0,0.0,0.0,82,0.00,,---,0.00,VWS V14.01,2013-09-09 11:05:00,
2013-09-09 07:06:00,71.8,65.6,29.97,North,0,0.0,0.0,81,0.00,,---,0.00,VWS V14.01,2013-09-09 11:06:00,
2013-09-09 07:07:00,71.8,65.6,29.97,North,0,0.0,0.0,81,0.00,,---,0.00,VWS V14.01,2013-09-09 11:07:00,
2013-09-09 07:08:00,71.8,65.6,29.97,North,0,0.0,0.0,81,0.00,,---,0.00,VWS V14.01,2013-09-09 11:08:00,
2013-09-09 07:09:00,71.8,65.6,29.97,North,0,0.0,0.0,81,0.00,,---,0.00,VWS V14.01,2013-09-09 11:09:00,
2013-09-09 07:10:00,71.8,66.0,29.94,North,0,0.0,0.0,82,0.00,,---,0.00,VWS V14.01,2013-09-09 11:10:00,
2013-09-09 07:11:00,71.8,66.0,29.97,North,0,0.0,0.0,82,0.00,,---,0.00,VWS V14.01,2013-09-09 11:11:00,
2013-09-09 07:12:00,71.8,66.0,29.97,North,0,0.0,0.0,82,0.00,,---,0.00,VWS V14.01,2013-09-09 11:12:00,
2013-09-09 07:13:00,71.8,66.0,29.97,North,0,0.0,0.0,82,0.00,,---,0.00,VWS V14.01,2013-09-09 11:13:00,
2013-09-09 07:14:00,71.8,66.0,29.97,North,0,0.0,0.0,82,0.00,,---,0.00,VWS V14.01,2013-09-09 11:14:00,
2013-09-09 07:15:00,71.8,66.0,29.94,North,0,0.0,0.0,82,0.00,,---,0.00,VWS V14.01,2013-09-09 11:15:00,
2013-09-09 07:16:00,71.8,66.0,29.94,North,0,0.0,0.0,82,0.00,,---,0.00,VWS V14.01,2013-09-09 11:16:00,
2013-09-09 07:17:00,71.8,66.0,29.94,North,0,0.0,0.0,82,0.00,,---,0.00,VWS V14.01,2013-09-09 11:17:00,
2013-09-09 07:18:00,71.8,66.0,29.94,North,0,0.0,0.0,82,0.00,,---,0.00,VWS V14.01,2013-09-09 11:18:00,
2013-09-09 07:19:00,71.8,66.0,29.94,North,0,0.0,0.0,82,0.00,,---,0.00,VWS V14.01,2013-09-09 11:19:00,
2013-09-09 07:20:00,71.8,66.0,29.94,North,0,0.0,0.0,82,0.00,,---,0.00,VWS V14.01,2013-09-09 11:20:00,
2013-09-09 07:21:00,71.8,66.0,29.94,North,0,0.0,0.0,82,0.00,,---,0.00,VWS V14.01,2013-09-09 11:21:00,
2013-09-09 07:22:00,71.8,66.0,29.94,North,0,0.0,0.0,82,0.00,,---,0.00,VWS V14.01,2013-09-09 11:22:00,
2013-09-09 07:23:00,71.8,66.0,29.94,North,0,0.0,0.0,82,0.00,,---,0.00,VWS V14.01,2013-09-09 11:23:00,
2013-09-09 07:24:00,71.8,66.0,29.94,North,0,0.0,0.0,82,0.00,,---,0.00,VWS V14.01,2013-09-09 11:24:00,
2013-09-09 07:25:00,71.6,65.8,29.94,North,0,0.0,0.0,82,0.00,,---,0.00,VWS V14.01,2013-09-09 11:25:00,
2013-09-09 07:26:00,71.8,66.0,29.94,North,0,0.0,0.0,82,0.00,,---,0.00,VWS V14.01,2013-09-09 11:26:00,
2013-09-09 07:27:00,71.8,66.0,29.94,North,0,0.0,0.0,82,0.00,,---,0.00,VWS V14.01,2013-09-09 11:27:00,
2013-09-09 07:28:00,71.8,66.0,29.94,North,0,0.0,0.0,82,0.00,,---,0.00,VWS V14.01,2013-09-09 11:28:00,
2013-09-09 07:29:00,71.8,66.0,29.94,North,0,0.0,0.0,82,0.00,,---,0.00,VWS V14.01,2013-09-09 11:29:00,
2013-09-09 07:30:00,71.8,66.0,29.94,North,0,0.0,0.0,82,0.00,,---,0.00,VWS V14.01,2013-09-09 11:30:00,
2013-09-09 07:31:00,71.8,66.0,29.94,North,0,0.0,0.0,82,0.00,,---,0.00,VWS V14.01,2013-09-09 11:31:00,
2013-09-09 07:32:00,71.6,65.5,29.94,North,0,0.0,0.0,81,0.00,,---,0.00,VWS V14.01,2013-09-09 11:32:00,
2013-09-09 07:33:00,71.6,65.5,29.94,North,0,0.0,0.0,81,0.00,,---,0.00,VWS V14.01,2013-09-09 11:33:00,
2013-09-09 07:34:00,71.8,66.3,29.97,North,0,0.0,0.0,83,0.00,,---,0.00,VWS V14.01,2013-09-09 11:34:00,
2013-09-09 07:35:00,71.6,65.8,29.94,North,0,0.0,0.0,82,0.00,,---,0.00,VWS V14.01,2013-09-09 11:35:00,
2013-09-09 07:36:00,71.6,65.8,29.94,North,0,0.0,0.0,82,0.00,,---,0.00,VWS V14.01,2013-09-09 11:36:00,
2013-09-09 07:37:00,71.6,65.8,29.94,North,0,0.0,0.0,82,0.00,,---,0.00,VWS V14.01,2013-09-09 11:37:00,
2013-09-09 07:38:00,71.6,65.8,29.94,North,0,0.0,0.0,82,0.00,,---,0.00,VWS V14.01,2013-09-09 11:38:00,
2013-09-09 07:39:00,71.8,66.3,29.97,North,0,0.0,0.0,83,0.00,,---,0.00,VWS V14.01,2013-09-09 11:39:00,
2013-09-09 07:40:00,71.8,66.0,29.94,North,0,0.0,0.0,82,0.00,,---,0.00,VWS V14.01,2013-09-09 11:40:00,
2013-09-09 07:41:00,71.8,66.0,29.94,North,0,0.0,0.0,82,0.00,,---,0.00,VWS V14.01,2013-09-09 11:41:00,
2013-09-09 07:42:00,71.8,66.0,29.94,North,0,0.0,0.0,82,0.00,,---,0.00,VWS V14.01,2013-09-09 11:42:00,
2013-09-09 07:43:00,71.8,66.0,29.94,North,0,0.0,0.0,82,0.00,,---,0.00,VWS V14.01,2013-09-09 11:43:00,
2013-09-09 07:44:00,72.1,66.7,29.97,North,0,0.0,0.0,83,0.00,,---,0.00,VWS V14.01,2013-09-09 11:44:00,
2013-09-09 07:45:00,71.8,66.3,29.94,North,0,0.0,0.0,83,0.00,,---,0.00,VWS V14.01,2013-09-09 11:45:00,
2013-09-09 07:46:00,71.8,66.3,29.97,North,0,0.0,0.0,83,0.00,,---,0.00,VWS V14.01,2013-09-09 11:46:00,
2013-09-09 07:47:00,71.8,66.3,29.97,North,0,0.0,0.0,83,0.00,,---,0.00,VWS V14.01,2013-09-09 11:47:00,
2013-09-09 07:48:00,71.8,66.3,29.97,North,0,0.0,0.0,83,0.00,,---,0.00,VWS V14.01,2013-09-09 11:48:00,
2013-09-09 07:49:00,72.3,67.2,29.97,North,0,0.0,0.0,84,0.00,,---,0.00,VWS V14.01,2013-09-09 11:49:00,
2013-09-09 07:50:00,72.0,66.5,29.97,North,0,0.0,0.0,83,0.00,,---,0.00,VWS V14.01,2013-09-09 11:50:00,
2013-09-09 07:51:00,72.0,66.5,29.97,North,0,0.0,0.0,83,0.00,,---,0.00,VWS V14.01,2013-09-09 11:51:00,
2013-09-09 07:52:00,71.8,66.3,29.97,North,0,0.0,0.0,83,0.00,,---,0.00,VWS V14.01,2013-09-09 11:52:00,
2013-09-09 07:53:00,72.0,66.5,29.97,North,0,0.0,0.0,83,0.00,,---,0.00,VWS V14.01,2013-09-09 11:53:00,
2013-09-09 07:54:00,72.7,67.6,29.97,North,0,0.0,0.0,84,0.00,,---,0.00,VWS V14.01,2013-09-09 11:54:00,
2013-09-09 07:55:00,72.0,66.5,29.97,North,0,0.0,0.0,83,0.00,,---,0.00,VWS V14.01,2013-09-09 11:55:00,
2013-09-09 07:56:00,72.0,66.5,29.97,North,0,0.0,0.0,83,0.00,,---,0.00,VWS V14.01,2013-09-09 11:56:00,
2013-09-09 07:57:00,72.1,66.7,29.97,North,0,0.0,0.0,83,0.00,,---,0.00,VWS V14.01,2013-09-09 11:57:00,
2013-09-09 07:58:00,72.1,67.0,29.97,North,0,0.0,0.0,84,0.00,,---,0.00,VWS V14.01,2013-09-09 11:58:00,
2013-09-09 07:59:00,73.0,68.3,29.97,North,0,0.0,0.0,85,0.00,,---,0.00,VWS V14.01,2013-09-09 11:59:00,
2013-09-09 08:00:00,72.3,67.2,29.97,North,0,0.0,0.0,84,0.00,,---,0.00,VWS V14.01,2013-09-09 12:00:00,
2013-09-09 08:01:00,72.3,67.2,29.97,North,0,0.0,0.0,84,0.00,,---,0.00,VWS V14.01,2013-09-09 12:01:00,
2013-09-09 08:02:00,72.3,67.2,29.97,North,0,0.0,0.0,84,0.00,,---,0.00,VWS V14.01,2013-09-09 12:02:00,
2013-09-09 08:03:00,72.3,67.2,29.97,North,0,0.0,0.0,84,0.00,,---,0.00,VWS V14.01,2013-09-09 12:03:00,
2013-09-09 08:04:00,73.2,68.1,29.97,North,0,0.0,0.0,84,0.00,,---,0.00,VWS V14.01,2013-09-09 12:04:00,
2013-09-09 08:05:00,72.7,67.6,29.97,North,0,0.0,0.0,84,0.00,,---,0.00,VWS V14.01,2013-09-09 12:05:00,
2013-09-09 08:06:00,72.7,67.6,29.97,North,0,0.0,0.0,84,0.00,,---,0.00,VWS V14.01,2013-09-09 12:06:00,
2013-09-09 08:07:00,72.7,67.6,29.97,North,0,0.0,0.0,84,0.00,,---,0.00,VWS V14.01,2013-09-09 12:07:00,
2013-09-09 08:08:00,72.7,67.6,29.97,North,0,0.0,0.0,84,0.00,,---,0.00,VWS V14.01,2013-09-09 12:08:00,
2013-09-09 08:09:00,73.4,68.3,29.97,North,0,0.0,0.0,84,0.00,,---,0.00,VWS V14.01,2013-09-09 12:09:00,
2013-09-09 08:10:00,73.0,68.3,29.97,North,0,0.0,0.0,85,0.00,,---,0.00,VWS V14.01,2013-09-09 12:10:00,
2013-09-09 08:11:00,73.0,68.3,29.97,North,0,0.0,0.0,85,0.00,,---,0.00,VWS V14.01,2013-09-09 12:11:00,
2013-09-09 08:12:00,73.0,68.3,29.97,North,0,0.0,0.0,85,0.00,,---,0.00,VWS V14.01,2013-09-09 12:12:00,
2013-09-09 08:13:00,73.0,68.3,29.97,North,0,0.0,0.0,85,0.00,,---,0.00,VWS V14.01,2013-09-09 12:13:00,
2013-09-09 08:14:00,73.8,68.6,29.97,North,0,0.0,0.0,84,0.00,,---,0.00,VWS V14.01,2013-09-09 12:14:00,
2013-09-09 08:15:00,73.2,68.4,29.97,North,0,0.0,0.0,85,0.00,,---,0.00,VWS V14.01,2013-09-09 12:15:00,
2013-09-09 08:16:00,73.2,68.1,29.97,North,0,0.0,0.0,84,0.00,,---,0.00,VWS V14.01,2013-09-09 12:16:00,
2013-09-09 08:17:00,73.2,68.1,29.97,North,0,0.0,0.0,84,0.00,,---,0.00,VWS V14.01,2013-09-09 12:17:00,
2013-09-09 08:18:00,73.4,68.3,29.97,North,0,0.0,0.0,84,0.00,,---,0.00,VWS V14.01,2013-09-09 12:18:00,
2013-09-09 08:19:00,74.1,68.6,30.00,North,0,0.0,0.0,83,0.00,,---,0.00,VWS V14.01,2013-09-09 12:19:00,
2013-09-09 08:20:00,73.4,68.3,29.97,North,0,0.0,0.0,84,0.00,,---,0.00,VWS V14.01,2013-09-09 12:20:00,
2013-09-09 08:21:00,73.4,68.3,29.97,North,0,0.0,0.0,84,0.00,,---,0.00,VWS V14.01,2013-09-09 12:21:00,
2013-09-09 08:22:00,73.4,68.3,29.97,North,0,0.0,0.0,84,0.00,,---,0.00,VWS V14.01,2013-09-09 12:22:00,
2013-09-09 08:23:00,73.6,68.4,29.97,North,0,0.0,0.0,84,0.00,,---,0.00,VWS V14.01,2013-09-09 12:23:00,
2013-09-09 08:24:00,74.5,69.0,30.00,North,0,0.0,0.0,83,0.00,,---,0.00,VWS V14.01,2013-09-09 12:24:00,
2013-09-09 08:25:00,73.8,68.6,29.97,North,0,0.0,0.0,84,0.00,,---,0.00,VWS V14.01,2013-09-09 12:25:00,
2013-09-09 08:26:00,73.8,68.6,29.97,North,0,0.0,0.0,84,0.00,,---,0.00,VWS V14.01,2013-09-09 12:26:00,
2013-09-09 08:28:00,73.8,68.6,29.97,North,0,0.0,0.0,84,0.00,,---,0.00,VWS V14.01,2013-09-09 12:28:00,
2013-09-09 08:29:00,75.0,69.2,30.00,North,0,0.0,0.0,82,0.00,,---,0.00,VWS V14.01,2013-09-09 12:29:00,
2013-09-09 08:30:00,73.8,68.6,29.97,North,0,0.0,0.0,84,0.00,,---,0.00,VWS V14.01,2013-09-09 12:30:00,
2013-09-09 08:31:00,74.1,68.6,30.00,North,0,0.0,0.0,83,0.00,,---,0.00,VWS V14.01,2013-09-09 12:31:00,
2013-09-09 08:32:00,74.1,68.6,30.00,North,0,0.0,0.0,83,0.00,,---,0.00,VWS V14.01,2013-09-09 12:32:00,
2013-09-09 08:33:00,74.3,68.8,30.00,North,0,0.0,0.0,83,0.00,,---,0.00,VWS V14.01,2013-09-09 12:33:00,
2013-09-09 08:34:00,75.6,69.7,30.00,North,0,0.0,0.0,82,0.00,,---,0.00,VWS V14.01,2013-09-09 12:34:00,
2013-09-09 08:35:00,74.5,69.0,30.00,North,0,0.0,0.0,83,0.00,,---,0.00,VWS V14.01,2013-09-09 12:35:00,
2013-09-09 08:36:00,74.5,69.0,30.00,North,0,0.0,0.0,83,0.00,,---,0.00,VWS V14.01,2013-09-09 12:36:00,
2013-09-09 08:37:00,74.5,69.0,30.00,North,0,0.0,0.0,83,0.00,,---,0.00,VWS V14.01,2013-09-09 12:37:00,
2013-09-09 08:38:00,74.5,69.0,30.00,North,0,0.0,0.0,83,0.00,,---,0.00,VWS V14.01,2013-09-09 12:38:00,
2013-09-09 08:39:00,77.9,70.9,30.00,North,0,0.0,0.0,79,0.00,,---,0.00,VWS V14.01,2013-09-09 12:39:00,
2013-09-09 08:40:00,74.5,69.0,30.00,North,0,0.0,0.0,83,0.00,,---,0.00,VWS V14.01,2013-09-09 12:40:00,
2013-09-09 08:41:00,75.0,69.2,30.00,North,0,0.0,0.0,82,0.00,,---,0.00,VWS V14.01,2013-09-09 12:41:00,
2013-09-09 08:42:00,75.0,69.2,30.00,North,0,0.0,0.0,82,0.00,,---,0.00,VWS V14.01,2013-09-09 12:42:00,
2013-09-09 08:43:00,75.2,69.3,30.00,North,0,0.0,0.0,82,0.00,,---,0.00,VWS V14.01,2013-09-09 12:43:00,
2013-09-09 08:44:00,79.5,70.9,30.00,North,0,0.0,0.0,75,0.00,,---,0.00,VWS V14.01,2013-09-09 12:44:00,
2013-09-09 08:45:00,75.6,69.7,30.00,North,0,0.0,0.0,82,0.00,,---,0.00,VWS V14.01,2013-09-09 12:45:00,
2013-09-09 08:46:00,75.6,69.7,30.00,North,0,0.0,0.0,82,0.00,,---,0.00,VWS V14.01,2013-09-09 12:46:00,
2013-09-09 08:47:00,75.6,69.7,30.00,North,0,0.0,0.0,82,0.00,,---,0.00,VWS V14.01,2013-09-09 12:47:00,
2013-09-09 08:48:00,75.6,69.7,30.00,North,0,0.0,0.0,82,0.00,,---,0.00,VWS V14.01,2013-09-09 12:48:00,
2013-09-09 08:49:00,80.8,69.7,30.00,North,0,0.0,0.0,69,0.00,,---,0.00,VWS V14.01,2013-09-09 12:49:00,
2013-09-09 08:50:00,76.8,70.6,30.00,North,0,0.0,0.0,81,0.00,,---,0.00,VWS V14.01,2013-09-09 12:50:00,
2013-09-09 08:51:00,77.4,70.7,30.00,North,0,0.0,0.0,80,0.00,,---,0.00,VWS V14.01,2013-09-09 12:51:00,
2013-09-09 08:52:00,77.9,70.9,30.00,North,0,0.0,0.0,79,0.00,,---,0.00,VWS V14.01,2013-09-09 12:52:00,
2013-09-09 08:53:00,78.3,70.8,30.00,North,0,0.0,0.0,78,0.00,,---,0.00,VWS V14.01,2013-09-09 12:53:00,
2013-09-09 08:54:00,81.1,67.4,30.00,North,0,0.0,0.0,63,0.00,,---,0.00,VWS V14.01,2013-09-09 12:54:00,
2013-09-09 08:55:00,78.6,71.2,30.00,North,0,0.0,0.0,78,0.00,,---,0.00,VWS V14.01,2013-09-09 12:55:00,
2013-09-09 08:56:00,79.5,70.9,30.00,North,0,0.0,0.0,75,0.00,,---,0.00,VWS V14.01,2013-09-09 12:56:00,
2013-09-09 08:57:00,79.5,70.9,30.00,North,0,0.0,0.0,75,0.00,,---,0.00,VWS V14.01,2013-09-09 12:57:00,
2013-09-09 08:58:00,80.1,70.2,30.00,North,0,0.0,0.0,72,0.00,,---,0.00,VWS V14.01,2013-09-09 12:58:00,
2013-09-09 08:59:00,81.9,67.1,30.00,North,0,0.0,0.0,61,0.00,,---,0.00,VWS V14.01,2013-09-09 12:59:00,
2013-09-09 09:00:00,80.4,70.2,30.00,North,0,0.0,0.0,71,0.00,,---,0.00,VWS V14.01,2013-09-09 13:00:00,
2013-09-09 09:01:00,80.6,69.9,30.00,North,0,0.0,0.0,70,0.00,,---,0.00,VWS V14.01,2013-09-09 13:01:00,
2013-09-09 09:02:00,80.8,69.7,30.00,North,0,0.0,0.0,69,0.00,,---,0.00,VWS V14.01,2013-09-09 13:02:00,
2013-09-09 09:03:00,80.8,68.8,30.00,North,0,0.0,0.0,67,0.00,,---,0.00,VWS V14.01,2013-09-09 13:03:00,
2013-09-09 09:04:00,82.8,66.5,30.00,North,0,0.0,0.0,58,0.00,,---,0.00,VWS V14.01,2013-09-09 13:04:00,
2013-09-09 09:05:00,81.0,67.7,30.00,North,0,0.0,0.0,64,0.00,,---,0.00,VWS V14.01,2013-09-09 13:05:00,
2013-09-09 09:06:00,81.0,66.7,30.00,North,0,0.0,0.0,62,0.00,,---,0.00,VWS V14.01,2013-09-09 13:06:00,
2013-09-09 09:07:00,81.1,67.4,30.00,North,0,0.0,0.0,63,0.00,,---,0.00,VWS V14.01,2013-09-09 13:07:00,
2013-09-09 09:08:00,81.3,68.0,30.00,North,0,0.0,0.0,64,0.00,,---,0.00,VWS V14.01,2013-09-09 13:08:00,
2013-09-09 09:09:00,83.8,65.4,30.00,North,0,0.0,0.0,54,0.00,,---,0.00,VWS V14.01,2013-09-09 13:09:00,
2013-09-09 09:10:00,81.7,67.9,30.00,North,0,0.0,0.0,63,0.00,,---,0.00,VWS V14.01,2013-09-09 13:10:00,
2013-09-09 09:11:00,81.9,67.1,30.00,North,0,0.0,0.0,61,0.00,,---,0.00,VWS V14.01,2013-09-09 13:11:00,
2013-09-09 09:12:00,82.0,66.3,30.00,North,0,0.0,0.0,59,0.00,,---,0.00,VWS V14.01,2013-09-09 13:12:00,
2013-09-09 09:13:00,82.2,67.0,30.00,North,0,0.0,0.0,60,0.00,,---,0.00,VWS V14.01,2013-09-09 13:13:00,
2013-09-09 09:14:00,83.7,62.5,30.00,North,0,0.0,0.0,49,0.00,,---,0.00,VWS V14.01,2013-09-09 13:14:00,
2013-09-09 09:15:00,82.4,66.7,30.00,North,0,0.0,0.0,59,0.00,,---,0.00,VWS V14.01,2013-09-09 13:15:00,
2013-09-09 09:16:00,82.6,66.8,30.00,North,0,0.0,0.0,59,0.00,,---,0.00,VWS V14.01,2013-09-09 13:16:00,
2013-09-09 09:17:00,82.8,66.5,30.00,North,0,0.0,0.0,58,0.00,,---,0.00,VWS V14.01,2013-09-09 13:17:00,
2013-09-09 09:18:00,82.9,64.6,30.00,North,0,0.0,0.0,54,0.00,,---,0.00,VWS V14.01,2013-09-09 13:18:00,
2013-09-09 09:19:00,84.4,63.2,30.00,North,0,0.0,0.0,49,0.00,,---,0.00,VWS V14.01,2013-09-09 13:19:00,
2013-09-09 09:20:00,83.5,66.2,30.00,North,0,0.0,0.0,56,0.00,,---,0.00,VWS V14.01,2013-09-09 13:20:00,
2013-09-09 09:21:00,83.7,65.3,30.00,North,0,0.0,0.0,54,0.00,,---,0.00,VWS V14.01,2013-09-09 13:21:00,
2013-09-09 09:22:00,83.8,65.4,30.00,North,0,0.0,0.0,54,0.00,,---,0.00,VWS V14.01,2013-09-09 13:22:00,
2013-09-09 09:23:00,83.8,64.9,30.00,North,0,0.0,0.0,53,0.00,,---,0.00,VWS V14.01,2013-09-09 13:23:00,
2013-09-09 09:24:00,84.4,60.1,30.00,North,0,0.0,0.0,44,0.00,,---,0.00,VWS V14.01,2013-09-09 13:24:00,
2013-09-09 09:25:00,83.7,63.1,30.00,North,0,0.0,0.0,50,0.00,,---,0.00,VWS V14.01,2013-09-09 13:25:00,
2013-09-09 09:26:00,83.7,62.5,30.00,North,0,0.0,0.0,49,0.00,,---,0.00,VWS V14.01,2013-09-09 13:26:00,
2013-09-09 09:27:00,84.0,63.4,30.00,North,0,0.0,0.0,50,0.00,,---,0.00,VWS V14.01,2013-09-09 13:27:00,
2013-09-09 09:28:00,84.0,62.2,30.00,North,0,0.0,0.0,48,0.00,,---,0.00,VWS V14.01,2013-09-09 13:28:00,
2013-09-09 09:29:00,85.1,60.1,30.00,North,0,0.0,0.0,43,0.00,,---,0.00,VWS V14.01,2013-09-09 13:29:00,
2013-09-09 09:30:00,84.2,62.4,30.00,North,0,0.0,0.0,48,0.00,,---,0.00,VWS V14.01,2013-09-09 13:30:00,
2013-09-09 09:31:00,84.4,63.2,30.00,North,0,0.0,0.0,49,0.00,,---,0.00,VWS V14.01,2013-09-09 13:31:00,
2013-09-09 09:32:00,84.4,63.2,30.00,North,0,0.0,0.0,49,0.00,,---,0.00,VWS V14.01,2013-09-09 13:32:00,
2013-09-09 09:33:00,84.4,60.1,30.00,North,0,0.0,0.0,44,0.00,,---,0.00,VWS V14.01,2013-09-09 13:33:00,
2013-09-09 09:34:00,85.8,60.1,30.00,North,0,0.0,0.0,42,0.00,,---,0.00,VWS V14.01,2013-09-09 13:34:00,
2013-09-09 09:35:00,84.4,60.1,30.00,North,0,0.0,0.0,44,0.00,,---,0.00,VWS V14.01,2013-09-09 13:35:00,
2013-09-09 09:36:00,84.2,59.3,30.00,North,0,0.0,0.0,43,0.00,,---,0.00,VWS V14.01,2013-09-09 13:36:00,
2013-09-09 09:37:00,84.4,60.1,30.00,North,0,0.0,0.0,44,0.00,,---,0.00,VWS V14.01,2013-09-09 13:37:00,
2013-09-09 09:38:00,84.6,60.3,30.00,North,0,0.0,0.0,44,0.00,,---,0.00,VWS V14.01,2013-09-09 13:38:00,
2013-09-09 09:39:00,85.8,58.7,30.00,North,0,0.0,0.0,40,0.00,,---,0.00,VWS V14.01,2013-09-09 13:39:00,
2013-09-09 09:40:00,84.9,60.0,30.00,North,0,0.0,0.0,43,0.00,,---,0.00,VWS V14.01,2013-09-09 13:40:00,
2013-09-09 09:41:00,85.1,60.1,30.00,North,0,0.0,0.0,43,0.00,,---,0.00,VWS V14.01,2013-09-09 13:41:00,
2013-09-09 09:42:00,85.5,61.1,30.00,North,0,0.0,0.0,44,0.00,,---,0.00,VWS V14.01,2013-09-09 13:42:00,
2013-09-09 09:43:00,85.5,60.4,30.00,North,0,0.0,0.0,43,0.00,,---,0.00,VWS V14.01,2013-09-09 13:43:00,
2013-09-09 09:44:00,86.2,58.3,30.00,North,0,0.0,0.0,39,0.00,,---,0.00,VWS V14.01,2013-09-09 13:44:00,
2013-09-09 09:45:00,85.6,59.3,30.00,North,0,0.0,0.0,41,0.00,,---,0.00,VWS V14.01,2013-09-09 13:45:00,
2013-09-09 09:46:00,85.8,60.1,30.00,North,0,0.0,0.0,42,0.00,,---,0.00,VWS V14.01,2013-09-09 13:46:00,
2013-09-09 09:47:00,85.8,60.1,30.00,North,0,0.0,0.0,42,0.00,,---,0.00,VWS V14.01,2013-09-09 13:47:00,
2013-09-09 09:48:00,85.6,59.3,30.00,North,0,0.0,0.0,41,0.00,,---,0.00,VWS V14.01,2013-09-09 13:48:00,
2013-09-09 09:49:00,86.5,55.7,30.03,North,0,0.0,0.0,35,0.00,,---,0.00,VWS V14.01,2013-09-09 13:49:00,
2013-09-09 09:50:00,85.6,58.6,30.00,North,0,0.0,0.0,40,0.00,,---,0.00,VWS V14.01,2013-09-09 13:50:00,
2013-09-09 09:51:00,85.8,58.7,30.00,North,0,0.0,0.0,40,0.00,,---,0.00,VWS V14.01,2013-09-09 13:51:00,
2013-09-09 09:52:00,86.0,58.2,30.00,North,0,0.0,0.0,39,0.00,,---,0.00,VWS V14.01,2013-09-09 13:52:00,
2013-09-09 09:53:00,86.0,58.2,30.00,North,0,0.0,0.0,39,0.00,,---,0.00,VWS V14.01,2013-09-09 13:53:00,
2013-09-09 09:54:00,87.1,56.1,30.03,North,0,0.0,0.0,35,0.00,,---,0.00,VWS V14.01,2013-09-09 13:54:00,
2013-09-09 09:55:00,86.0,57.5,30.00,North,0,0.0,0.0,38,0.00,,---,0.00,VWS V14.01,2013-09-09 13:55:00,
2013-09-09 09:56:00,86.2,58.3,30.00,North,0,0.0,0.0,39,0.00,,---,0.00,VWS V14.01,2013-09-09 13:56:00,
2013-09-09 09:57:00,86.2,56.9,30.00,North,0,0.0,0.0,37,0.00,,---,0.00,VWS V14.01,2013-09-09 13:57:00,
2013-09-09 09:58:00,86.2,56.1,30.00,North,0,0.0,0.0,36,0.00,,---,0.00,VWS V14.01,2013-09-09 13:58:00,
2013-09-09 09:59:00,87.6,55.8,30.03,North,0,0.0,0.0,34,0.00,,---,0.00,VWS V14.01,2013-09-09 13:59:00,
2013-09-09 10:00:00,86.5,57.2,30.00,North,0,0.0,0.0,37,0.00,,---,0.00,VWS V14.01,2013-09-09 14:00:00,
2013-09-09 10:01:00,86.7,56.6,30.03,North,0,0.0,0.0,36,0.00,,---,0.00,VWS V14.01,2013-09-09 14:01:00,
2013-09-09 10:02:00,86.5,55.7,30.03,North,0,0.0,0.0,35,0.00,,---,0.00,VWS V14.01,2013-09-09 14:02:00,
2013-09-09 10:03:00,86.7,56.6,30.03,North,0,0.0,0.0,36,0.00,,---,0.00,VWS V14.01,2013-09-09 14:03:00,
2013-09-09 10:04:00,88.2,53.7,30.03,North,0,0.0,0.0,31,0.00,,---,0.00,VWS V14.01,2013-09-09 14:04:00,
2013-09-09 10:05:00,87.1,56.1,30.03,North,0,0.0,0.0,35,0.00,,---,0.00,VWS V14.01,2013-09-09 14:05:00,
2013-09-09 10:06:00,87.1,56.1,30.03,North,0,0.0,0.0,35,0.00,,---,0.00,VWS V14.01,2013-09-09 14:06:00,
2013-09-09 10:07:00,87.1,56.9,30.03,North,0,0.0,0.0,36,0.00,,---,0.00,VWS V14.01,2013-09-09 14:07:00,
2013-09-09 10:08:00,87.3,56.3,30.03,North,0,0.0,0.0,35,0.00,,---,0.00,VWS V14.01,2013-09-09 14:08:00,
2013-09-09 10:09:00,88.3,53.0,30.03,North,0,0.0,0.0,30,0.00,,---,0.00,VWS V14.01,2013-09-09 14:09:00,
2013-09-09 10:10:00,87.4,56.5,30.03,North,0,0.0,0.0,35,0.00,,---,0.00,VWS V14.01,2013-09-09 14:10:00,
2013-09-09 10:11:00,87.6,55.8,30.03,North,0,0.0,0.0,34,0.00,,---,0.00,VWS V14.01,2013-09-09 14:11:00,
2013-09-09 10:12:00,87.8,56.0,30.03,North,0,0.0,0.0,34,0.00,,---,0.00,VWS V14.01,2013-09-09 14:12:00,
2013-09-09 10:13:00,87.8,55.2,30.03,North,0,0.0,0.0,33,0.00,,---,0.00,VWS V14.01,2013-09-09 14:13:00,
2013-09-09 10:14:00,88.9,53.5,30.03,North,0,0.0,0.0,30,0.00,,---,0.00,VWS V14.01,2013-09-09 14:14:00,
2013-09-09 10:15:00,88.2,55.5,30.03,North,0,0.0,0.0,33,0.00,,---,0.00,VWS V14.01,2013-09-09 14:15:00,
2013-09-09 10:16:00,88.2,54.6,30.03,North,0,0.0,0.0,32,0.00,,---,0.00,VWS V14.01,2013-09-09 14:16:00,
2013-09-09 10:17:00,88.2,53.7,30.03,North,0,0.0,0.0,31,0.00,,---,0.00,VWS V14.01,2013-09-09 14:17:00,
2013-09-09 10:18:00,88.2,53.7,30.03,North,0,0.0,0.0,31,0.00,,---,0.00,VWS V14.01,2013-09-09 14:18:00,
2013-09-09 10:19:00,88.9,52.5,30.03,North,0,0.0,0.0,29,0.00,,---,0.00,VWS V14.01,2013-09-09 14:19:00,
2013-09-09 10:20:00,88.3,53.9,30.03,North,0,0.0,0.0,31,0.00,,---,0.00,VWS V14.01,2013-09-09 14:20:00,
2013-09-09 10:21:00,88.3,53.0,30.03,North,0,0.0,0.0,30,0.00,,---,0.00,VWS V14.01,2013-09-09 14:21:00,
2013-09-09 10:22:00,88.5,53.2,30.03,North,0,0.0,0.0,30,0.00,,---,0.00,VWS V14.01,2013-09-09 14:22:00,
2013-09-09 10:23:00,88.7,54.2,30.03,North,0,0.0,0.0,31,0.00,,---,0.00,VWS V14.01,2013-09-09 14:23:00,
2013-09-09 10:24:00,88.9,51.6,30.03,North,0,0.0,0.0,28,0.00,,---,0.00,VWS V14.01,2013-09-09 14:24:00,
2013-09-09 10:25:00,88.9,53.5,30.03,North,0,0.0,0.0,30,0.00,,---,0.00,VWS V14.01,2013-09-09 14:25:00,
2013-09-09 10:26:00,88.9,53.5,30.03,North,0,0.0,0.0,30,0.00,,---,0.00,VWS V14.01,2013-09-09 14:26:00,
2013-09-09 10:27:00,89.1,53.6,30.03,North,0,0.0,0.0,30,0.00,,---,0.00,VWS V14.01,2013-09-09 14:27:00,
2013-09-09 10:28:00,88.9,52.5,30.03,North,0,0.0,0.0,29,0.00,,---,0.00,VWS V14.01,2013-09-09 14:28:00,
2013-09-09 10:29:00,89.6,51.2,30.03,North,0,0.0,0.0,27,0.00,,---,0.00,VWS V14.01,2013-09-09 14:29:00,
2013-09-09 10:30:00,89.1,52.7,30.03,North,0,0.0,0.0,29,0.00,,---,0.00,VWS V14.01,2013-09-09 14:30:00,
2013-09-09 10:31:00,89.1,52.7,30.03,North,0,0.0,0.0,29,0.00,,---,0.00,VWS V14.01,2013-09-09 14:31:00,
2013-09-09 10:32:00,88.9,52.5,30.03,North,0,0.0,0.0,29,0.00,,---,0.00,VWS V14.01,2013-09-09 14:32:00,
2013-09-09 10:33:00,89.2,51.9,30.03,North,0,0.0,0.0,28,0.00,,---,0.00,VWS V14.01,2013-09-09 14:33:00,
2013-09-09 10:34:00,90.1,50.7,30.03,North,0,0.0,0.0,26,0.00,,---,0.00,VWS V14.01,2013-09-09 14:34:00,
2013-09-09 10:35:00,88.9,51.6,30.03,North,0,0.0,0.0,28,0.00,,---,0.00,VWS V14.01,2013-09-09 14:35:00,
2013-09-09 10:36:00,88.9,51.6,30.03,North,0,0.0,0.0,28,0.00,,---,0.00,VWS V14.01,2013-09-09 14:36:00,
2013-09-09 10:37:00,88.9,51.6,30.03,North,0,0.0,0.0,28,0.00,,---,0.00,VWS V14.01,2013-09-09 14:37:00,
2013-09-09 10:38:00,89.2,51.9,30.03,North,0,0.0,0.0,28,0.00,,---,0.00,VWS V14.01,2013-09-09 14:38:00,
2013-09-09 10:39:00,91.0,49.3,30.03,North,0,0.0,0.0,24,0.00,,---,0.00,VWS V14.01,2013-09-09 14:39:00,
2013-09-09 10:40:00,89.4,52.1,30.03,North,0,0.0,0.0,28,0.00,,---,0.00,VWS V14.01,2013-09-09 14:40:00,
2013-09-09 10:41:00,89.4,52.1,30.03,North,0,0.0,0.0,28,0.00,,---,0.00,VWS V14.01,2013-09-09 14:41:00,
2013-09-09 10:42:00,89.6,51.2,30.03,North,0,0.0,0.0,27,0.00,,---,0.00,VWS V14.01,2013-09-09 14:42:00,
2013-09-09 10:43:00,89.6,51.2,30.03,North,0,0.0,0.0,27,0.00,,---,0.00,VWS V14.01,2013-09-09 14:43:00,
2013-09-09 10:44:00,91.8,48.7,30.03,North,0,0.0,0.0,23,0.00,,---,0.00,VWS V14.01,2013-09-09 14:44:00,
2013-09-09 10:45:00,89.8,51.4,30.03,North,0,0.0,0.0,27,0.00,,---,0.00,VWS V14.01,2013-09-09 14:45:00,
2013-09-09 10:46:00,90.0,51.5,30.03,North,0,0.0,0.0,27,0.00,,---,0.00,VWS V14.01,2013-09-09 14:46:00,
2013-09-09 10:47:00,90.1,50.7,30.03,North,0,0.0,0.0,26,0.00,,---,0.00,VWS V14.01,2013-09-09 14:47:00,
2013-09-09 10:48:00,90.3,51.8,30.03,North,0,0.0,0.0,27,0.00,,---,0.00,VWS V14.01,2013-09-09 14:48:00,
2013-09-09 10:49:00,91.8,47.5,30.03,North,0,0.0,0.0,22,0.00,,---,0.00,VWS V14.01,2013-09-09 14:49:00,
2013-09-09 10:50:00,90.9,51.3,30.03,North,0,0.0,0.0,26,0.00,,---,0.00,VWS V14.01,2013-09-09 14:50:00,
2013-09-09 10:51:00,91.0,49.3,30.03,North,0,0.0,0.0,24,0.00,,---,0.00,VWS V14.01,2013-09-09 14:51:00,
2013-09-09 10:52:00,91.2,50.5,30.03,North,0,0.0,0.0,25,0.00,,---,0.00,VWS V14.01,2013-09-09 14:52:00,
2013-09-09 10:53:00,91.4,49.6,30.03,North,0,0.0,0.0,24,0.00,,---,0.00,VWS V14.01,2013-09-09 14:53:00,
2013-09-09 10:54:00,92.3,46.8,30.03,North,0,0.0,0.0,21,0.00,,---,0.00,VWS V14.01,2013-09-09 14:54:00,
2013-09-09 10:55:00,91.6,49.7,30.03,North,0,0.0,0.0,24,0.00,,---,0.00,VWS V14.01,2013-09-09 14:55:00,
2013-09-09 10:56:00,91.8,49.9,30.03,North,0,0.0,0.0,24,0.00,,---,0.00,VWS V14.01,2013-09-09 14:56:00,
2013-09-09 10:57:00,91.6,47.4,30.03,North,0,0.0,0.0,22,0.00,,---,0.00,VWS V14.01,2013-09-09 14:57:00,
2013-09-09 10:58:00,91.8,47.5,30.03,North,0,0.0,0.0,22,0.00,,---,0.00,VWS V14.01,2013-09-09 14:58:00,
2013-09-09 10:59:00,91.8,45.0,30.03,North,0,0.0,0.0,20,0.00,,---,0.00,VWS V14.01,2013-09-09 14:59:00,
2013-09-09 11:00:00,91.8,47.5,30.03,North,0,0.0,0.0,22,0.00,,---,0.00,VWS V14.01,2013-09-09 15:00:00,
2013-09-09 11:01:00,91.8,47.5,30.03,North,0,0.0,0.0,22,0.00,,---,0.00,VWS V14.01,2013-09-09 15:01:00,
2013-09-09 11:02:00,91.6,47.4,30.03,North,0,0.0,0.0,22,0.00,,---,0.00,VWS V14.01,2013-09-09 15:02:00,
2013-09-09 11:03:00,91.8,47.5,30.03,North,0,0.0,0.0,22,0.00,,---,0.00,VWS V14.01,2013-09-09 15:03:00,
2013-09-09 11:04:00,92.3,45.5,30.03,North,0,0.0,0.0,20,0.00,,---,0.00,VWS V14.01,2013-09-09 15:04:00,
2013-09-09 11:05:00,92.1,47.8,30.03,North,0,0.0,0.0,22,0.00,,---,0.00,VWS V14.01,2013-09-09 15:05:00,
2013-09-09 11:06:00,92.3,46.8,30.03,North,0,0.0,0.0,21,0.00,,---,0.00,VWS V14.01,2013-09-09 15:06:00,
2013-09-09 11:07:00,92.3,46.8,30.03,North,0,0.0,0.0,21,0.00,,---,0.00,VWS V14.01,2013-09-09 15:07:00,
2013-09-09 11:08:00,92.7,45.8,30.03,North,0,0.0,0.0,20,0.00,,---,0.00,VWS V14.01,2013-09-09 15:08:00,
2013-09-09 11:09:00,93.2,44.9,30.03,North,0,0.0,0.0,19,0.00,,---,0.00,VWS V14.01,2013-09-09 15:09:00,
2013-09-09 11:10:00,92.1,44.0,30.03,North,0,0.0,0.0,19,0.00,,---,0.00,VWS V14.01,2013-09-09 15:10:00,
2013-09-09 11:11:00,91.8,45.0,30.03,North,0,0.0,0.0,20,0.00,,---,0.00,VWS V14.01,2013-09-09 15:11:00,
2013-09-09 11:12:00,91.9,45.2,30.03,North,0,0.0,0.0,20,0.00,,---,0.00,VWS V14.01,2013-09-09 15:12:00,
2013-09-09 11:13:00,92.1,45.3,30.03,North,0,0.0,0.0,20,0.00,,---,0.00,VWS V14.01,2013-09-09 15:13:00,
2013-09-09 11:14:00,93.4,43.6,30.03,North,0,0.0,0.0,18,0.00,,---,0.00,VWS V14.01,2013-09-09 15:14:00,
2013-09-09 11:15:00,92.3,45.5,30.03,North,0,0.0,0.0,20,0.00,,---,0.00,VWS V14.01,2013-09-09 15:15:00,
2013-09-09 11:16:00,92.3,45.5,30.03,North,0,0.0,0.0,20,0.00,,---,0.00,VWS V14.01,2013-09-09 15:16:00,
2013-09-09 11:17:00,92.5,44.3,30.03,North,0,0.0,0.0,19,0.00,,---,0.00,VWS V14.01,2013-09-09 15:17:00,
2013-09-09 11:18:00,92.7,44.4,30.03,North,0,0.0,0.0,19,0.00,,---,0.00,VWS V14.01,2013-09-09 15:18:00,
2013-09-09 11:19:00,94.1,44.2,30.03,North,0,0.0,0.0,18,0.00,,---,0.00,VWS V14.01,2013-09-09 15:19:00,
2013-09-09 11:20:00,93.0,44.7,30.03,North,0,0.0,0.0,19,0.00,,---,0.00,VWS V14.01,2013-09-09 15:20:00,
2013-09-09 11:21:00,93.2,44.9,30.03,North,0,0.0,0.0,19,0.00,,---,0.00,VWS V14.01,2013-09-09 15:21:00,
2013-09-09 11:22:00,93.2,44.9,30.03,North,0,0.0,0.0,19,0.00,,---,0.00,VWS V14.01,2013-09-09 15:22:00,
2013-09-09 11:23:00,93.4,45.0,30.03,North,0,0.0,0.0,19,0.00,,---,0.00,VWS V14.01,2013-09-09 15:23:00,
2013-09-09 11:24:00,93.4,42.1,30.03,North,0,0.0,0.0,17,0.00,,---,0.00,VWS V14.01,2013-09-09 15:24:00,
2013-09-09 11:25:00,93.4,45.0,30.03,North,0,0.0,0.0,19,0.00,,---,0.00,VWS V14.01,2013-09-09 15:25:00,
2013-09-09 11:26:00,93.6,43.7,30.03,North,0,0.0,0.0,18,0.00,,---,0.00,VWS V14.01,2013-09-09 15:26:00,
2013-09-09 11:27:00,93.4,43.6,30.03,North,0,0.0,0.0,18,0.00,,---,0.00,VWS V14.01,2013-09-09 15:27:00,
2013-09-09 11:28:00,93.6,43.7,30.03,North,0,0.0,0.0,18,0.00,,---,0.00,VWS V14.01,2013-09-09 15:28:00,
2013-09-09 11:29:00,94.1,42.7,30.03,North,0,0.0,0.0,17,0.00,,---,0.00,VWS V14.01,2013-09-09 15:29:00,
2013-09-09 11:30:00,93.9,44.0,30.03,North,0,0.0,0.0,18,0.00,,---,0.00,VWS V14.01,2013-09-09 15:30:00,
2013-09-09 11:31:00,94.1,44.2,30.03,North,0,0.0,0.0,18,0.00,,---,0.00,VWS V14.01,2013-09-09 15:31:00,
2013-09-09 11:32:00,94.1,44.2,30.03,North,0,0.0,0.0,18,0.00,,---,0.00,VWS V14.01,2013-09-09 15:32:00,
2013-09-09 11:33:00,94.1,44.2,30.03,North,0,0.0,0.0,18,0.00,,---,0.00,VWS V14.01,2013-09-09 15:33:00,
2013-09-09 11:34:00,93.9,44.0,30.03,North,0,0.0,0.0,18,0.00,,---,0.00,VWS V14.01,2013-09-09 15:34:00,
2013-09-09 11:35:00,93.7,42.4,30.03,North,0,0.0,0.0,17,0.00,,---,0.00,VWS V14.01,2013-09-09 15:35:00,
2013-09-09 11:36:00,93.4,42.1,30.03,North,0,0.0,0.0,17,0.00,,---,0.00,VWS V14.01,2013-09-09 15:36:00,
2013-09-09 11:37:00,93.4,43.6,30.03,North,0,0.0,0.0,18,0.00,,---,0.00,VWS V14.01,2013-09-09 15:37:00,
2013-09-09 11:38:00,93.6,43.7,30.03,North,0,0.0,0.0,18,0.00,,---,0.00,VWS V14.01,2013-09-09 15:38:00,
2013-09-09 11:39:00,93.9,42.5,30.03,North,0,0.0,0.0,17,0.00,,---,0.00,VWS V14.01,2013-09-09 15:39:00,
2013-09-09 11:40:00,94.1,44.2,30.03,North,0,0.0,0.0,18,0.00,,---,0.00,VWS V14.01,2013-09-09 15:40:00,
2013-09-09 11:41:00,94.1,42.7,30.03,North,0,0.0,0.0,17,0.00,,---,0.00,VWS V14.01,2013-09-09 15:41:00,
2013-09-09 11:42:00,93.7,42.4,30.03,North,0,0.0,0.0,17,0.00,,---,0.00,VWS V14.01,2013-09-09 15:42:00,
2013-09-09 11:43:00,93.7,42.4,30.03,North,0,0.0,0.0,17,0.00,,---,0.00,VWS V14.01,2013-09-09 15:43:00,
2013-09-09 11:44:00,94.1,42.7,30.03,North,0,0.0,0.0,17,0.00,,---,0.00,VWS V14.01,2013-09-09 15:44:00,
2013-09-09 11:45:00,93.7,42.4,30.03,North,0,0.0,0.0,17,0.00,,---,0.00,VWS V14.01,2013-09-09 15:45:00,
2013-09-09 11:46:00,93.9,44.0,30.03,North,0,0.0,0.0,18,0.00,,---,0.00,VWS V14.01,2013-09-09 15:46:00,
2013-09-09 11:47:00,93.9,42.5,30.03,North,0,0.0,0.0,17,0.00,,---,0.00,VWS V14.01,2013-09-09 15:47:00,
2013-09-09 11:48:00,94.1,42.7,30.03,North,0,0.0,0.0,17,0.00,,---,0.00,VWS V14.01,2013-09-09 15:48:00,
2013-09-09 11:49:00,94.8,43.3,30.03,North,0,0.0,0.0,17,0.00,,---,0.00,VWS V14.01,2013-09-09 15:49:00,
2013-09-09 11:50:00,93.7,42.4,30.03,North,0,0.0,0.0,17,0.00,,---,0.00,VWS V14.01,2013-09-09 15:50:00,
2013-09-09 11:51:00,93.9,42.5,30.03,North,0,0.0,0.0,17,0.00,,---,0.00,VWS V14.01,2013-09-09 15:51:00,
2013-09-09 11:52:00,94.1,42.7,30.03,North,0,0.0,0.0,17,0.00,,---,0.00,VWS V14.01,2013-09-09 15:52:00,
2013-09-09 11:53:00,94.3,42.8,30.03,North,0,0.0,0.0,17,0.00,,---,0.00,VWS V14.01,2013-09-09 15:53:00,
2013-09-09 11:54:00,92.5,42.9,30.03,North,0,0.0,0.0,18,0.00,,---,0.00,VWS V14.01,2013-09-09 15:54:00,
2013-09-09 11:55:00,94.3,42.8,30.03,North,0,0.0,0.0,17,0.00,,---,0.00,VWS V14.01,2013-09-09 15:55:00,
2013-09-09 11:56:00,94.3,42.8,30.03,North,0,0.0,0.0,17,0.00,,---,0.00,VWS V14.01,2013-09-09 15:56:00,
2013-09-09 11:57:00,94.5,43.0,30.03,North,0,0.0,0.0,17,0.00,,---,0.00,VWS V14.01,2013-09-09 15:57:00,
2013-09-09 11:58:00,94.8,43.3,30.03,North,0,0.0,0.0,17,0.00,,---,0.00,VWS V14.01,2013-09-09 15:58:00,
2013-09-09 11:59:00,94.6,43.1,30.03,North,0,0.0,0.0,17,0.00,,---,0.00,VWS V14.01,2013-09-09 15:59:00,
2013-09-09 12:00:00,95.0,41.8,30.03,North,0,0.0,0.0,16,0.00,,---,0.00,VWS V14.01,2013-09-09 16:00:00,
2013-09-09 12:01:00,94.8,43.3,30.03,North,0,0.0,0.0,17,0.00,,---,0.00,VWS V14.01,2013-09-09 16:01:00,
2013-09-09 12:02:00,95.0,41.8,30.03,North,0,0.0,0.0,16,0.00,,---,0.00,VWS V14.01,2013-09-09 16:02:00,
2013-09-09 12:03:00,93.9,41.0,30.03,North,0,0.0,0.0,16,0.00,,---,0.00,VWS V14.01,2013-09-09 16:03:00,
2013-09-09 12:04:00,94.8,43.3,30.03,North,0,0.0,0.0,17,0.00,,---,0.00,VWS V14.01,2013-09-09 16:04:00,
2013-09-09 12:05:00,92.8,41.7,30.03,North,0,0.0,0.0,17,0.00,,---,0.00,VWS V14.01,2013-09-09 16:05:00,
2013-09-09 12:06:00,92.5,42.9,30.03,North,0,0.0,0.0,18,0.00,,---,0.00,VWS V14.01,2013-09-09 16:06:00,
2013-09-09 12:07:00,92.8,43.2,30.03,North,0,0.0,0.0,18,0.00,,---,0.00,VWS V14.01,2013-09-09 16:07:00,
2013-09-09 12:08:00,93.4,42.1,30.03,North,0,0.0,0.0,17,0.00,,---,0.00,VWS V14.01,2013-09-09 16:08:00,
2013-09-09 12:09:00,95.9,42.5,30.03,North,0,0.0,0.0,16,0.00,,---,0.00,VWS V14.01,2013-09-09 16:09:00,
2013-09-09 12:10:00,94.3,42.8,30.03,North,0,0.0,0.0,17,0.00,,---,0.00,VWS V14.01,2013-09-09 16:10:00,
2013-09-09 12:11:00,94.6,43.1,30.03,North,0,0.0,0.0,17,0.00,,---,0.00,VWS V14.01,2013-09-09 16:11:00,
2013-09-09 12:12:00,95.2,42.0,30.03,North,0,0.0,0.0,16,0.00,,---,0.00,VWS V14.01,2013-09-09 16:12:00,
2013-09-09 12:13:00,95.4,42.1,30.03,North,0,0.0,0.0,16,0.00,,---,0.00,VWS V14.01,2013-09-09 16:13:00,
2013-09-09 12:14:00,96.6,43.1,30.03,North,0,0.0,0.0,16,0.00,,---,0.00,VWS V14.01,2013-09-09 16:14:00,
2013-09-09 12:15:00,95.0,41.8,30.03,North,0,0.0,0.0,16,0.00,,---,0.00,VWS V14.01,2013-09-09 16:15:00,
2013-09-09 12:16:00,94.8,43.3,30.03,North,0,0.0,0.0,17,0.00,,---,0.00,VWS V14.01,2013-09-09 16:16:00,
2013-09-09 12:17:00,94.8,41.7,30.03,North,0,0.0,0.0,16,0.00,,---,0.00,VWS V14.01,2013-09-09 16:17:00,
2013-09-09 12:18:00,95.2,42.0,30.03,North,0,0.0,0.0,16,0.00,,---,0.00,VWS V14.01,2013-09-09 16:18:00,
2013-09-09 12:19:00,96.3,39.4,30.03,North,0,0.0,0.0,14,0.00,,---,0.00,VWS V14.01,2013-09-09 16:19:00,
2013-09-09 12:20:00,95.7,42.4,30.03,North,0,0.0,0.0,16,0.00,,---,0.00,VWS V14.01,2013-09-09 16:20:00,
2013-09-09 12:21:00,95.9,42.5,30.03,North,0,0.0,0.0,16,0.00,,---,0.00,VWS V14.01,2013-09-09 16:21:00,
2013-09-09 12:22:00,95.7,42.4,30.03,North,0,0.0,0.0,16,0.00,,---,0.00,VWS V14.01,2013-09-09 16:22:00,
2013-09-09 12:23:00,95.9,42.5,30.03,North,0,0.0,0.0,16,0.00,,---,0.00,VWS V14.01,2013-09-09 16:23:00,
2013-09-09 12:24:00,96.4,39.5,30.03,North,0,0.0,0.0,14,0.00,,---,0.00,VWS V14.01,2013-09-09 16:24:00,
2013-09-09 12:25:00,96.6,43.1,30.03,North,0,0.0,0.0,16,0.00,,---,0.00,VWS V14.01,2013-09-09 16:25:00,
2013-09-09 12:26:00,96.6,43.1,30.03,North,0,0.0,0.0,16,0.00,,---,0.00,VWS V14.01,2013-09-09 16:26:00,
2013-09-09 12:27:00,96.6,43.1,30.03,North,0,0.0,0.0,16,0.00,,---,0.00,VWS V14.01,2013-09-09 16:27:00,
2013-09-09 12:28:00,97.0,43.4,30.03,North,0,0.0,0.0,16,0.00,,---,0.00,VWS V14.01,2013-09-09 16:28:00,
2013-09-09 12:29:00,95.9,39.1,30.03,North,0,0.0,0.0,14,0.00,,---,0.00,VWS V14.01,2013-09-09 16:29:00,
2013-09-09 12:30:00,96.8,37.9,30.03,North,0,0.0,0.0,13,0.00,,---,0.00,VWS V14.01,2013-09-09 16:30:00,
2013-09-09 12:31:00,96.3,39.4,30.03,North,0,0.0,0.0,14,0.00,,---,0.00,VWS V14.01,2013-09-09 16:31:00,
2013-09-09 12:32:00,96.4,39.5,30.03,North,0,0.0,0.0,14,0.00,,---,0.00,VWS V14.01,2013-09-09 16:32:00,
2013-09-09 12:33:00,96.8,37.9,30.03,North,0,0.0,0.0,13,0.00,,---,0.00,VWS V14.01,2013-09-09 16:33:00,
2013-09-09 12:34:00,93.7,37.4,30.03,North,0,0.0,0.0,14,0.00,,---,0.00,VWS V14.01,2013-09-09 16:34:00,
2013-09-09 12:35:00,96.8,37.9,30.03,North,0,0.0,0.0,13,0.00,,---,0.00,VWS V14.01,2013-09-09 16:35:00,
2013-09-09 12:36:00,96.4,39.5,30.03,North,0,0.0,0.0,14,0.00,,---,0.00,VWS V14.01,2013-09-09 16:36:00,
2013-09-09 12:37:00,96.8,37.9,30.03,North,0,0.0,0.0,13,0.00,,---,0.00,VWS V14.01,2013-09-09 16:37:00,
2013-09-09 12:38:00,95.9,39.1,30.03,North,0,0.0,0.0,14,0.00,,---,0.00,VWS V14.01,2013-09-09 16:38:00,
2013-09-09 12:39:00,95.0,38.4,30.03,North,0,0.0,0.0,14,0.00,,---,0.00,VWS V14.01,2013-09-09 16:39:00,
2013-09-09 12:40:00,95.9,39.1,30.03,North,0,0.0,0.0,14,0.00,,---,0.00,VWS V14.01,2013-09-09 16:40:00,
2013-09-09 12:41:00,95.9,39.1,30.03,North,0,0.0,0.0,14,0.00,,---,0.00,VWS V14.01,2013-09-09 16:41:00,
2013-09-09 12:42:00,95.4,38.7,30.03,North,0,0.0,0.0,14,0.00,,---,0.00,VWS V14.01,2013-09-09 16:42:00,
2013-09-09 12:43:00,94.6,38.1,30.03,North,0,0.0,0.0,14,0.00,,---,0.00,VWS V14.01,2013-09-09 16:43:00,
2013-09-09 12:44:00,96.3,39.4,30.03,North,0,0.0,0.0,14,0.00,,---,0.00,VWS V14.01,2013-09-09 16:44:00,
2013-09-09 12:45:00,93.9,37.5,30.03,North,0,0.0,0.0,14,0.00,,---,0.00,VWS V14.01,2013-09-09 16:45:00,
2013-09-09 12:46:00,93.7,37.4,30.03,North,0,0.0,0.0,14,0.00,,---,0.00,VWS V14.01,2013-09-09 16:46:00,
2013-09-09 12:47:00,93.2,37.0,30.03,North,0,0.0,0.0,14,0.00,,---,0.00,VWS V14.01,2013-09-09 16:47:00,
2013-09-09 12:48:00,96.4,39.5,30.03,North,0,0.0,0.0,14,0.00,,---,0.00,VWS V14.01,2013-09-09 16:48:00,
2013-09-09 12:49:00,93.4,37.1,30.03,North,0,0.0,0.0,14,0.00,,---,0.00,VWS V14.01,2013-09-09 16:49:00,
2013-09-09 12:50:00,94.5,38.0,30.03,North,0,0.0,0.0,14,0.00,,---,0.00,VWS V14.01,2013-09-09 16:50:00,
2013-09-09 12:51:00,95.0,38.4,30.03,North,0,0.0,0.0,14,0.00,,---,0.00,VWS V14.01,2013-09-09 16:51:00,
2013-09-09 12:52:00,95.2,38.5,30.03,North,0,0.0,0.0,14,0.00,,---,0.00,VWS V14.01,2013-09-09 16:52:00,
2013-09-09 12:53:00,95.5,38.8,30.03,North,0,0.0,0.0,14,0.00,,---,0.00,VWS V14.01,2013-09-09 16:53:00,
2013-09-09 12:54:00,95.9,39.1,30.03,North,0,0.0,0.0,14,0.00,,---,0.00,VWS V14.01,2013-09-09 16:54:00,
2013-09-09 12:55:00,96.3,39.4,30.03,North,0,0.0,0.0,14,0.00,,---,0.00,VWS V14.01,2013-09-09 16:55:00,
2013-09-09 12:56:00,96.3,39.4,30.03,North,0,0.0,0.0,14,0.00,,---,0.00,VWS V14.01,2013-09-09 16:56:00,
2013-09-09 12:57:00,95.9,39.1,30.03,North,0,0.0,0.0,14,0.00,,---,0.00,VWS V14.01,2013-09-09 16:57:00,
2013-09-09 12:58:00,95.4,38.7,30.03,North,0,0.0,0.0,14,0.00,,---,0.00,VWS V14.01,2013-09-09 16:58:00,
2013-09-09 12:59:00,96.1,39.2,30.03,North,0,0.0,0.0,14,0.00,,---,0.00,VWS V14.01,2013-09-09 16:59:00,
2013-09-09 13:00:00,96.4,39.5,30.03,North,0,0.0,0.0,14,0.00,,---,0.00,VWS V14.01,2013-09-09 17:00:00,
2013-09-09 13:01:00,96.4,39.5,30.03,North,0,0.0,0.0,14,0.00,,---,0.00,VWS V14.01,2013-09-09 17:01:00,
2013-09-09 13:02:00,96.8,37.9,30.03,North,0,0.0,0.0,13,0.00,,---,0.00,VWS V14.01,2013-09-09 17:02:00,
2013-09-09 13:03:00,96.3,33.3,30.03,North,0,0.0,0.0,11,0.00,,---,0.00,VWS V14.01,2013-09-09 17:03:00,
2013-09-09 13:04:00,97.2,38.2,30.03,North,0,0.0,0.0,13,0.00,,---,0.00,VWS V14.01,2013-09-09 17:04:00,
2013-09-09 13:05:00,95.7,39.0,30.03,North,0,0.0,0.0,14,0.00,,---,0.00,VWS V14.01,2013-09-09 17:05:00,
2013-09-09 13:06:00,95.5,38.8,30.03,North,0,0.0,0.0,14,0.00,,---,0.00,VWS V14.01,2013-09-09 17:06:00,
2013-09-09 13:07:00,95.5,38.8,30.03,North,0,0.0,0.0,14,0.00,,---,0.00,VWS V14.01,2013-09-09 17:07:00,
2013-09-09 13:08:00,95.5,32.7,30.03,North,0,0.0,0.0,11,0.00,,---,0.00,VWS V14.01,2013-09-09 17:08:00,
2013-09-09 13:09:00,95.2,38.5,30.03,North,0,0.0,0.0,14,0.00,,---,0.00,VWS V14.01,2013-09-09 17:09:00,
2013-09-09 13:10:00,95.2,38.5,30.03,North,0,0.0,0.0,14,0.00,,---,0.00,VWS V14.01,2013-09-09 17:10:00,
2013-09-09 13:11:00,95.4,38.7,30.03,North,0,0.0,0.0,14,0.00,,---,0.00,VWS V14.01,2013-09-09 17:11:00,
2013-09-09 13:12:00,95.5,38.8,30.03,North,0,0.0,0.0,14,0.00,,---,0.00,VWS V14.01,2013-09-09 17:12:00,
2013-09-09 13:13:00,95.5,38.8,30.03,North,0,0.0,0.0,14,0.00,,---,0.00,VWS V14.01,2013-09-09 17:13:00,
2013-09-09 13:14:00,96.1,39.2,30.03,North,0,0.0,0.0,14,0.00,,---,0.00,VWS V14.01,2013-09-09 17:14:00,
2013-09-09 13:15:00,96.4,39.5,30.03,North,0,0.0,0.0,14,0.00,,---,0.00,VWS V14.01,2013-09-09 17:15:00,
2013-09-09 13:16:00,96.3,33.3,30.03,North,0,0.0,0.0,11,0.00,,---,0.00,VWS V14.01,2013-09-09 17:16:00,
2013-09-09 13:17:00,96.3,33.3,30.03,North,0,0.0,0.0,11,0.00,,---,0.00,VWS V14.01,2013-09-09 17:17:00,
2013-09-09 13:18:00,96.6,33.6,30.00,North,0,0.0,0.0,11,0.00,,---,0.00,VWS V14.01,2013-09-09 17:18:00,
2013-09-09 13:19:00,95.5,32.7,30.03,North,0,0.0,0.0,11,0.00,,---,0.00,VWS V14.01,2013-09-09 17:19:00,
2013-09-09 13:20:00,95.5,32.7,30.03,North,0,0.0,0.0,11,0.00,,---,0.00,VWS V14.01,2013-09-09 17:20:00,
2013-09-09 13:21:00,95.5,32.7,30.03,North,0,0.0,0.0,11,0.00,,---,0.00,VWS V14.01,2013-09-09 17:21:00,
2013-09-09 13:22:00,95.5,32.7,30.03,North,0,0.0,0.0,11,0.00,,---,0.00,VWS V14.01,2013-09-09 17:22:00,
2013-09-09 13:23:00,97.9,34.5,30.00,North,0,0.0,0.0,11,0.00,,---,0.00,VWS V14.01,2013-09-09 17:23:00,
2013-09-09 13:24:00,94.6,38.1,30.03,North,0,0.0,0.0,14,0.00,,---,0.00,VWS V14.01,2013-09-09 17:24:00,
2013-09-09 13:25:00,95.2,38.5,30.03,North,0,0.0,0.0,14,0.00,,---,0.00,VWS V14.01,2013-09-09 17:25:00,
2013-09-09 13:26:00,95.5,38.8,30.03,North,0,0.0,0.0,14,0.00,,---,0.00,VWS V14.01,2013-09-09 17:26:00,
2013-09-09 13:27:00,95.9,39.1,30.03,North,0,0.0,0.0,14,0.00,,---,0.00,VWS V14.01,2013-09-09 17:27:00,
2013-09-09 13:28:00,95.4,32.6,30.00,North,0,0.0,0.0,11,0.00,,---,0.00,VWS V14.01,2013-09-09 17:28:00,
2013-09-09 13:29:00,96.6,33.6,30.03,North,0,0.0,0.0,11,0.00,,---,0.00,VWS V14.01,2013-09-09 17:29:00,
2013-09-09 13:30:00,97.0,33.8,30.03,North,0,0.0,0.0,11,0.00,,---,0.00,VWS V14.01,2013-09-09 17:30:00,
2013-09-09 13:31:00,96.6,33.6,30.00,North,0,0.0,0.0,11,0.00,,---,0.00,VWS V14.01,2013-09-09 17:31:00,
2013-09-09 13:32:00,96.8,33.7,30.00,North,0,0.0,0.0,11,0.00,,---,0.00,VWS V14.01,2013-09-09 17:32:00,
2013-09-09 13:33:00,96.6,33.6,30.00,North,0,0.0,0.0,11,0.00,,---,0.00,VWS V14.01,2013-09-09 17:33:00,
2013-09-09 13:34:00,97.5,34.2,30.00,North,0,0.0,0.0,11,0.00,,---,0.00,VWS V14.01,2013-09-09 17:34:00,
2013-09-09 13:35:00,97.9,34.5,30.00,North,0,0.0,0.0,11,0.00,,---,0.00,VWS V14.01,2013-09-09 17:35:00,
2013-09-09 13:36:00,97.9,34.5,30.00,North,0,0.0,0.0,11,0.00,,---,0.00,VWS V14.01,2013-09-09 17:36:00,
2013-09-09 13:37:00,97.9,34.5,30.00,North,0,0.0,0.0,11,0.00,,---,0.00,VWS V14.01,2013-09-09 17:37:00,
2013-09-09 13:38:00,96.8,33.7,30.00,North,0,0.0,0.0,11,0.00,,---,0.00,VWS V14.01,2013-09-09 17:38:00,
2013-09-09 13:39:00,97.9,34.5,30.00,North,0,0.0,0.0,11,0.00,,---,0.00,VWS V14.01,2013-09-09 17:39:00,
2013-09-09 13:40:00,97.9,34.5,30.00,North,0,0.0,0.0,11,0.00,,---,0.00,VWS V14.01,2013-09-09 17:40:00,
2013-09-09 13:41:00,95.4,32.6,30.00,North,0,0.0,0.0,11,0.00,,---,0.00,VWS V14.01,2013-09-09 17:41:00,
2013-09-09 13:42:00,95.5,32.7,30.00,North,0,0.0,0.0,11,0.00,,---,0.00,VWS V14.01,2013-09-09 17:42:00,
2013-09-09 13:43:00,95.0,32.3,30.00,North,0,0.0,0.0,11,0.00,,---,0.00,VWS V14.01,2013-09-09 17:43:00,
2013-09-09 13:44:00,96.8,33.7,30.00,North,0,0.0,0.0,11,0.00,,---,0.00,VWS V14.01,2013-09-09 17:44:00,
2013-09-09 13:45:00,96.8,33.7,30.00,North,0,0.0,0.0,11,0.00,,---,0.00,VWS V14.01,2013-09-09 17:45:00,
2013-09-09 13:46:00,96.6,33.6,30.00,North,0,0.0,0.0,11,0.00,,---,0.00,VWS V14.01,2013-09-09 17:46:00,
2013-09-09 13:47:00,96.8,33.7,30.00,North,0,0.0,0.0,11,0.00,,---,0.00,VWS V14.01,2013-09-09 17:47:00,
2013-09-09 13:48:00,94.3,37.8,30.00,North,0,0.0,0.0,14,0.00,,---,0.00,VWS V14.01,2013-09-09 17:48:00,
2013-09-09 13:49:00,96.8,33.7,30.00,North,0,0.0,0.0,11,0.00,,---,0.00,VWS V14.01,2013-09-09 17:49:00,
2013-09-09 13:50:00,96.8,33.7,30.00,North,0,0.0,0.0,11,0.00,,---,0.00,VWS V14.01,2013-09-09 17:50:00,
2013-09-09 13:51:00,96.8,33.7,30.00,North,0,0.0,0.0,11,0.00,,---,0.00,VWS V14.01,2013-09-09 17:51:00,
2013-09-09 13:52:00,94.1,31.6,30.00,North,0,0.0,0.0,11,0.00,,---,0.00,VWS V14.01,2013-09-09 17:52:00,
2013-09-09 13:53:00,95.2,38.5,30.00,North,0,0.0,0.0,14,0.00,,---,0.00,VWS V14.01,2013-09-09 17:53:00,
2013-09-09 13:54:00,95.0,32.3,30.00,North,0,0.0,0.0,11,0.00,,---,0.00,VWS V14.01,2013-09-09 17:54:00,
2013-09-09 13:55:00,95.0,32.3,30.00,North,0,0.0,0.0,11,0.00,,---,0.00,VWS V14.01,2013-09-09 17:55:00,
2013-09-09 13:56:00,95.0,32.3,30.00,North,0,0.0,0.0,11,0.00,,---,0.00,VWS V14.01,2013-09-09 17:56:00,
2013-09-09 13:57:00,95.0,32.3,30.00,North,0,0.0,0.0,11,0.00,,---,0.00,VWS V14.01,2013-09-09 17:57:00,
2013-09-09 13:58:00,93.7,31.4,30.00,North,0,0.0,0.0,11,0.00,,---,0.00,VWS V14.01,2013-09-09 17:58:00,
2013-09-09 13:59:00,95.0,32.3,30.00,North,0,0.0,0.0,11,0.00,,---,0.00,VWS V14.01,2013-09-09 17:59:00,
2013-09-09 14:00:00,94.1,31.6,30.00,North,0,0.0,0.0,11,0.00,,---,0.00,VWS V14.01,2013-09-09 18:00:00,
2013-09-09 14:01:00,94.3,37.8,30.00,North,0,0.0,0.0,14,0.00,,---,0.00,VWS V14.01,2013-09-09 18:01:00,
2013-09-09 14:02:00,94.6,38.1,30.00,North,0,0.0,0.0,14,0.00,,---,0.00,VWS V14.01,2013-09-09 18:02:00,
2013-09-09 14:03:00,94.8,38.2,30.00,North,0,0.0,0.0,14,0.00,,---,0.00,VWS V14.01,2013-09-09 18:03:00,
2013-09-09 14:04:00,95.2,38.5,30.00,North,0,0.0,0.0,14,0.00,,---,0.00,VWS V14.01,2013-09-09 18:04:00,
2013-09-09 14:05:00,95.2,38.5,30.00,North,0,0.0,0.0,14,0.00,,---,0.00,VWS V14.01,2013-09-09 18:05:00,
2013-09-09 14:06:00,95.2,38.5,30.00,North,0,0.0,0.0,14,0.00,,---,0.00,VWS V14.01,2013-09-09 18:06:00,
2013-09-09 14:07:00,95.2,38.5,30.00,North,0,0.0,0.0,14,0.00,,---,0.00,VWS V14.01,2013-09-09 18:07:00,
2013-09-09 14:08:00,94.6,38.1,30.00,North,0,0.0,0.0,14,0.00,,---,0.00,VWS V14.01,2013-09-09 18:08:00,
2013-09-09 14:09:00,95.2,38.5,30.00,North,0,0.0,0.0,14,0.00,,---,0.00,VWS V14.01,2013-09-09 18:09:00,
2013-09-09 14:10:00,95.2,38.5,30.00,North,0,0.0,0.0,14,0.00,,---,0.00,VWS V14.01,2013-09-09 18:10:00,
2013-09-09 14:11:00,93.7,31.4,30.00,North,0,0.0,0.0,11,0.00,,---,0.00,VWS V14.01,2013-09-09 18:11:00,
2013-09-09 14:12:00,94.5,38.0,30.00,North,0,0.0,0.0,14,0.00,,---,0.00,VWS V14.01,2013-09-09 18:12:00,
2013-09-09 14:13:00,96.8,33.7,30.00,North,0,0.0,0.0,11,0.00,,---,0.00,VWS V14.01,2013-09-09 18:13:00,
2013-09-09 14:14:00,94.8,38.2,30.00,North,0,0.0,0.0,14,0.00,,---,0.00,VWS V14.01,2013-09-09 18:14:00,
2013-09-09 14:15:00,94.8,38.2,30.00,North,0,0.0,0.0,14,0.00,,---,0.00,VWS V14.01,2013-09-09 18:15:00,
2013-09-09 14:16:00,94.8,38.2,30.00,North,0,0.0,0.0,14,0.00,,---,0.00,VWS V14.01,2013-09-09 18:16:00,
2013-09-09 14:17:00,94.8,38.2,30.00,North,0,0.0,0.0,14,0.00,,---,0.00,VWS V14.01,2013-09-09 18:17:00,
2013-09-09 14:18:00,97.9,34.5,29.97,North,0,0.0,0.0,11,0.00,,---,0.00,VWS V14.01,2013-09-09 18:18:00,
2013-09-09 14:19:00,94.8,38.2,30.00,North,0,0.0,0.0,14,0.00,,---,0.00,VWS V14.01,2013-09-09 18:19:00,
2013-09-09 14:20:00,94.3,37.8,30.00,North,0,0.0,0.0,14,0.00,,---,0.00,VWS V14.01,2013-09-09 18:20:00,
2013-09-09 14:21:00,94.6,38.1,30.00,North,0,0.0,0.0,14,0.00,,---,0.00,VWS V14.01,2013-09-09 18:21:00,
2013-09-09 14:22:00,95.4,38.7,30.00,North,0,0.0,0.0,14,0.00,,---,0.00,VWS V14.01,2013-09-09 18:22:00,
2013-09-09 14:23:00,98.2,34.8,29.97,North,0,0.0,0.0,11,0.00,,---,0.00,VWS V14.01,2013-09-09 18:23:00,
2013-09-09 14:24:00,96.4,39.5,30.00,North,0,0.0,0.0,14,0.00,,---,0.00,VWS V14.01,2013-09-09 18:24:00,
2013-09-09 14:25:00,96.8,33.7,30.00,North,0,0.0,0.0,11,0.00,,---,0.00,VWS V14.01,2013-09-09 18:25:00,
2013-09-09 14:26:00,96.8,33.7,30.00,North,0,0.0,0.0,11,0.00,,---,0.00,VWS V14.01,2013-09-09 18:26:00,
2013-09-09 14:27:00,97.2,34.0,30.00,North,0,0.0,0.0,11,0.00,,---,0.00,VWS V14.01,2013-09-09 18:27:00,
2013-09-09 14:28:00,99.0,33.0,29.97,North,0,0.0,0.0,10,0.00,,---,0.00,VWS V14.01,2013-09-09 18:28:00,
2013-09-09 14:29:00,97.5,34.2,30.00,North,0,0.0,0.0,11,0.00,,---,0.00,VWS V14.01,2013-09-09 18:29:00,
2013-09-09 14:30:00,97.9,34.5,30.00,North,0,0.0,0.0,11,0.00,,---,0.00,VWS V14.01,2013-09-09 18:30:00,
2013-09-09 14:31:00,98.2,34.8,29.97,North,0,0.0,0.0,11,0.00,,---,0.00,VWS V14.01,2013-09-09 18:31:00,
2013-09-09 14:32:00,98.2,34.8,29.97,North,0,0.0,0.0,11,0.00,,---,0.00,VWS V14.01,2013-09-09 18:32:00,
2013-09-09 14:33:00,99.3,33.2,29.97,North,0,0.0,0.0,10,0.00,,---,0.00,VWS V14.01,2013-09-09 18:33:00,
2013-09-09 14:34:00,98.2,34.8,29.97,North,0,0.0,0.0,11,0.00,,---,0.00,VWS V14.01,2013-09-09 18:34:00,
2013-09-09 14:35:00,97.9,34.5,29.97,North,0,0.0,0.0,11,0.00,,---,0.00,VWS V14.01,2013-09-09 18:35:00,
2013-09-09 14:36:00,98.6,32.7,29.97,North,0,0.0,0.0,10,0.00,,---,0.00,VWS V14.01,2013-09-09 18:36:00,
2013-09-09 14:37:00,98.6,32.7,29.97,North,0,0.0,0.0,10,0.00,,---,0.00,VWS V14.01,2013-09-09 18:37:00,
2013-09-09 14:38:00,99.7,33.5,29.97,North,0,0.0,0.0,10,0.00,,---,0.00,VWS V14.01,2013-09-09 18:38:00,
2013-09-09 14:39:00,98.6,32.7,29.97,North,0,0.0,0.0,10,0.00,,---,0.00,VWS V14.01,2013-09-09 18:39:00,
2013-09-09 14:40:00,98.6,32.7,29.97,North,0,0.0,0.0,10,0.00,,---,0.00,VWS V14.01,2013-09-09 18:40:00,
2013-09-09 14:41:00,99.0,33.0,29.97,North,0,0.0,0.0,10,0.00,,---,0.00,VWS V14.01,2013-09-09 18:41:00,
2013-09-09 14:42:00,99.1,33.1,29.97,North,0,0.0,0.0,10,0.00,,---,0.00,VWS V14.01,2013-09-09 18:42:00,
2013-09-09 14:43:00,96.4,33.4,29.97,North,0,0.0,0.0,11,0.00,,---,0.00,VWS V14.01,2013-09-09 18:43:00,
2013-09-09 14:44:00,99.3,33.2,29.97,North,0,0.0,0.0,10,0.00,,---,0.00,VWS V14.01,2013-09-09 18:44:00,
2013-09-09 14:45:00,99.3,33.2,29.97,North,0,0.0,0.0,10,0.00,,---,0.00,VWS V14.01,2013-09-09 18:45:00,
2013-09-09 14:46:00,99.3,33.2,29.97,North,0,0.0,0.0,10,0.00,,---,0.00,VWS V14.01,2013-09-09 18:46:00,
2013-09-09 14:47:00,99.5,33.4,29.97,North,0,0.0,0.0,10,0.00,,---,0.00,VWS V14.01,2013-09-09 18:47:00,
2013-09-09 14:48:00,97.7,34.4,29.94,North,0,0.0,0.0,11,0.00,,---,0.00,VWS V14.01,2013-09-09 18:48:00,
2013-09-09 14:49:00,99.7,33.5,29.97,North,0,0.0,0.0,10,0.00,,---,0.00,VWS V14.01,2013-09-09 18:49:00,
2013-09-09 14:50:00,99.7,33.5,29.97,North,0,0.0,0.0,10,0.00,,---,0.00,VWS V14.01,2013-09-09 18:50:00,
2013-09-09 14:51:00,99.7,33.5,29.97,North,0,0.0,0.0,10,0.00,,---,0.00,VWS V14.01,2013-09-09 18:51:00,
2013-09-09 14:52:00,99.7,33.5,29.97,North,0,0.0,0.0,10,0.00,,---,0.00,VWS V14.01,2013-09-09 18:52:00,
2013-09-09 14:53:00,98.2,34.8,29.94,North,0,0.0,0.0,11,0.00,,---,0.00,VWS V14.01,2013-09-09 18:53:00,
2013-09-09 14:54:00,99.7,33.5,29.97,North,0,0.0,0.0,10,0.00,,---,0.00,VWS V14.01,2013-09-09 18:54:00,
2013-09-09 14:55:00,99.7,33.5,29.97,North,0,0.0,0.0,10,0.00,,---,0.00,VWS V14.01,2013-09-09 18:55:00,
2013-09-09 14:56:00,96.4,33.4,29.97,North,0,0.0,0.0,11,0.00,,---,0.00,VWS V14.01,2013-09-09 18:56:00,
2013-09-09 14:57:00,96.8,33.7,29.97,North,0,0.0,0.0,11,0.00,,---,0.00,VWS V14.01,2013-09-09 18:57:00,
2013-09-09 14:58:00,99.5,33.4,29.94,North,0,0.0,0.0,10,0.00,,---,0.00,VWS V14.01,2013-09-09 18:58:00,
2013-09-09 14:59:00,96.6,33.6,29.97,North,0,0.0,0.0,11,0.00,,---,0.00,VWS V14.01,2013-09-09 18:59:00,
2013-09-09 15:00:00,97.7,34.4,29.97,North,0,0.0,0.0,11,0.00,,---,0.00,VWS V14.01,2013-09-09 19:00:00,
2013-09-09 15:01:00,98.1,34.7,29.94,North,0,0.0,0.0,11,0.00,,---,0.00,VWS V14.01,2013-09-09 19:01:00,
2013-09-09 15:02:00,98.1,34.7,29.94,North,0,0.0,0.0,11,0.00,,---,0.00,VWS V14.01,2013-09-09 19:02:00,
2013-09-09 15:03:00,99.9,33.6,29.97,North,0,0.0,0.0,10,0.00,,---,0.00,VWS V14.01,2013-09-09 19:03:00,
2013-09-09 15:04:00,98.6,32.7,29.94,North,0,0.0,0.0,10,0.00,,---,0.00,VWS V14.01,2013-09-09 19:04:00,
2013-09-09 15:05:00,98.1,34.7,29.94,North,0,0.0,0.0,11,0.00,,---,0.00,VWS V14.01,2013-09-09 19:05:00,
2013-09-09 15:06:00,98.2,34.8,29.94,North,0,0.0,0.0,11,0.00,,---,0.00,VWS V14.01,2013-09-09 19:06:00,
2013-09-09 15:07:00,98.8,32.8,29.94,North,0,0.0,0.0,10,0.00,,---,0.00,VWS V14.01,2013-09-09 19:07:00,
2013-09-09 15:08:00,100.6,34.2,29.97,North,0,0.0,0.0,10,0.00,,---,0.00,VWS V14.01,2013-09-09 19:08:00,
2013-09-09 15:09:00,99.5,33.4,29.94,North,0,0.0,0.0,10,0.00,,---,0.00,VWS V14.01,2013-09-09 19:09:00,
2013-09-09 15:10:00,99.5,33.4,29.94,North,0,0.0,0.0,10,0.00,,---,0.00,VWS V14.01,2013-09-09 19:10:00,
2013-09-09 15:11:00,99.5,33.4,29.94,North,0,0.0,0.0,10,0.00,,---,0.00,VWS V14.01,2013-09-09 19:11:00,
2013-09-09 15:12:00,99.0,33.0,29.94,North,0,0.0,0.0,10,0.00,,---,0.00,VWS V14.01,2013-09-09 19:12:00,
2013-09-09 15:13:00,99.9,33.6,29.97,North,0,0.0,0.0,10,0.00,,---,0.00,VWS V14.01,2013-09-09 19:13:00,
2013-09-09 15:14:00,99.3,33.2,29.94,North,0,0.0,0.0,10,0.00,,---,0.00,VWS V14.01,2013-09-09 19:14:00,
2013-09-09 15:15:00,99.5,33.4,29.94,North,0,0.0,0.0,10,0.00,,---,0.00,VWS V14.01,2013-09-09 19:15:00,
2013-09-09 15:16:00,100.0,33.8,29.97,North,0,0.0,0.0,10,0.00,,---,0.00,VWS V14.01,2013-09-09 19:16:00,
2013-09-09 15:17:00,100.4,34.0,29.97,North,0,0.0,0.0,10,0.00,,---,0.00,VWS V14.01,2013-09-09 19:17:00,
2013-09-09 15:18:00,100.9,34.5,29.97,North,0,0.0,0.0,10,0.00,,---,0.00,VWS V14.01,2013-09-09 19:18:00,
2013-09-09 15:19:00,100.8,34.3,29.97,North,0,0.0,0.0,10,0.00,,---,0.00,VWS V14.01,2013-09-09 19:19:00,
2013-09-09 15:20:00,100.6,34.2,29.97,North,0,0.0,0.0,10,0.00,,---,0.00,VWS V14.01,2013-09-09 19:20:00,
2013-09-09 15:21:00,100.6,34.2,29.97,North,0,0.0,0.0,10,0.00,,---,0.00,VWS V14.01,2013-09-09 19:21:00,
2013-09-09 15:22:00,100.6,34.2,29.97,North,0,0.0,0.0,10,0.00,,---,0.00,VWS V14.01,2013-09-09 19:22:00,
2013-09-09 15:23:00,100.8,34.3,29.97,North,0,0.0,0.0,10,0.00,,---,0.00,VWS V14.01,2013-09-09 19:23:00,
2013-09-09 15:24:00,100.4,34.0,29.97,North,0,0.0,0.0,10,0.00,,---,0.00,VWS V14.01,2013-09-09 19:24:00,
2013-09-09 15:25:00,100.2,33.9,29.97,North,0,0.0,0.0,10,0.00,,---,0.00,VWS V14.01,2013-09-09 19:25:00,
2013-09-09 15:26:00,99.9,33.6,29.97,North,0,0.0,0.0,10,0.00,,---,0.00,VWS V14.01,2013-09-09 19:26:00,
2013-09-09 15:27:00,100.0,33.8,29.97,North,0,0.0,0.0,10,0.00,,---,0.00,VWS V14.01,2013-09-09 19:27:00,
2013-09-09 15:28:00,100.6,34.2,29.97,North,0,0.0,0.0,10,0.00,,---,0.00,VWS V14.01,2013-09-09 19:28:00,
2013-09-09 15:29:00,100.9,34.5,29.97,North,0,0.0,0.0,10,0.00,,---,0.00,VWS V14.01,2013-09-09 19:29:00,
2013-09-09 15:30:00,100.9,34.5,29.97,North,0,0.0,0.0,10,0.00,,---,0.00,VWS V14.01,2013-09-09 19:30:00,
2013-09-09 15:31:00,100.6,34.2,29.97,North,0,0.0,0.0,10,0.00,,---,0.00,VWS V14.01,2013-09-09 19:31:00,
2013-09-09 15:32:00,100.9,34.5,29.97,North,0,0.0,0.0,10,0.00,,---,0.00,VWS V14.01,2013-09-09 19:32:00,
2013-09-09 15:33:00,100.2,33.9,29.97,North,0,0.0,0.0,10,0.00,,---,0.00,VWS V14.01,2013-09-09 19:33:00,
2013-09-09 15:34:00,100.8,34.3,29.97,North,0,0.0,0.0,10,0.00,,---,0.00,VWS V14.01,2013-09-09 19:34:00,
2013-09-09 15:35:00,100.8,34.3,29.97,North,0,0.0,0.0,10,0.00,,---,0.00,VWS V14.01,2013-09-09 19:35:00,
2013-09-09 15:36:00,100.8,34.3,29.97,North,0,0.0,0.0,10,0.00,,---,0.00,VWS V14.01,2013-09-09 19:36:00,
2013-09-09 15:37:00,101.1,34.6,29.97,North,0,0.0,0.0,10,0.00,,---,0.00,VWS V14.01,2013-09-09 19:37:00,
2013-09-09 15:38:00,99.0,33.0,29.97,North,0,0.0,0.0,10,0.00,,---,0.00,VWS V14.01,2013-09-09 19:38:00,
2013-09-09 15:39:00,100.6,34.2,29.97,North,0,0.0,0.0,10,0.00,,---,0.00,VWS V14.01,2013-09-09 19:39:00,
2013-09-09 15:40:00,100.6,34.2,29.97,North,0,0.0,0.0,10,0.00,,---,0.00,VWS V14.01,2013-09-09 19:40:00,
2013-09-09 15:41:00,100.6,34.2,29.97,North,0,0.0,0.0,10,0.00,,---,0.00,VWS V14.01,2013-09-09 19:41:00,
2013-09-09 15:42:00,100.2,33.9,29.97,North,0,0.0,0.0,10,0.00,,---,0.00,VWS V14.01,2013-09-09 19:42:00,
2013-09-09 15:43:00,99.0,33.0,29.97,North,0,0.0,0.0,10,0.00,,---,0.00,VWS V14.01,2013-09-09 19:43:00,
2013-09-09 15:44:00,100.2,33.9,29.97,North,0,0.0,0.0,10,0.00,,---,0.00,VWS V14.01,2013-09-09 19:44:00,
2013-09-09 15:45:00,100.2,33.9,29.97,North,0,0.0,0.0,10,0.00,,---,0.00,VWS V14.01,2013-09-09 19:45:00,
2013-09-09 15:46:00,100.2,33.9,29.97,North,0,0.0,0.0,10,0.00,,---,0.00,VWS V14.01,2013-09-09 19:46:00,
2013-09-09 15:47:00,100.2,33.9,29.97,North,0,0.0,0.0,10,0.00,,---,0.00,VWS V14.01,2013-09-09 19:47:00,
2013-09-09 15:48:00,99.3,33.2,29.97,North,0,0.0,0.0,10,0.00,,---,0.00,VWS V14.01,2013-09-09 19:48:00,
2013-09-09 15:49:00,99.0,33.0,29.97,North,0,0.0,0.0,10,0.00,,---,0.00,VWS V14.01,2013-09-09 19:49:00,
2013-09-09 15:50:00,99.0,33.0,29.97,North,0,0.0,0.0,10,0.00,,---,0.00,VWS V14.01,2013-09-09 19:50:00,
2013-09-09 15:51:00,99.0,33.0,29.97,North,0,0.0,0.0,10,0.00,,---,0.00,VWS V14.01,2013-09-09 19:51:00,
2013-09-09 15:52:00,99.0,33.0,29.97,North,0,0.0,0.0,10,0.00,,---,0.00,VWS V14.01,2013-09-09 19:52:00,
2013-09-09 15:53:00,99.5,33.4,29.97,North,0,0.0,0.0,10,0.00,,---,0.00,VWS V14.01,2013-09-09 19:53:00,
2013-09-09 15:54:00,99.0,33.0,29.97,North,0,0.0,0.0,10,0.00,,---,0.00,VWS V14.01,2013-09-09 19:54:00,
2013-09-09 15:55:00,99.0,33.0,29.97,North,0,0.0,0.0,10,0.00,,---,0.00,VWS V14.01,2013-09-09 19:55:00,
2013-09-09 15:56:00,99.0,33.0,29.97,North,0,0.0,0.0,10,0.00,,---,0.00,VWS V14.01,2013-09-09 19:56:00,
2013-09-09 15:57:00,99.0,33.0,29.97,North,0,0.0,0.0,10,0.00,,---,0.00,VWS V14.01,2013-09-09 19:57:00,
2013-09-09 15:58:00,98.4,34.9,29.97,North,0,0.0,0.0,11,0.00,,---,0.00,VWS V14.01,2013-09-09 19:58:00,
2013-09-09 15:59:00,99.0,33.0,29.97,North,0,0.0,0.0,10,0.00,,---,0.00,VWS V14.01,2013-09-09 19:59:00,
2013-09-09 16:00:00,99.3,33.2,29.97,North,0,0.0,0.0,10,0.00,,---,0.00,VWS V14.01,2013-09-09 20:00:00,
2013-09-09 16:01:00,99.3,33.2,29.97,North,0,0.0,0.0,10,0.00,,---,0.00,VWS V14.01,2013-09-09 20:01:00,
2013-09-09 16:02:00,99.5,33.4,29.97,North,0,0.0,0.0,10,0.00,,---,0.00,VWS V14.01,2013-09-09 20:02:00,
2013-09-09 16:03:00,98.4,34.9,29.97,North,0,0.0,0.0,11,0.00,,---,0.00,VWS V14.01,2013-09-09 20:03:00,
2013-09-09 16:04:00,99.5,33.4,29.97,North,0,0.0,0.0,10,0.00,,---,0.00,VWS V14.01,2013-09-09 20:04:00,
2013-09-09 16:05:00,99.5,33.4,29.97,North,0,0.0,0.0,10,0.00,,---,0.00,VWS V14.01,2013-09-09 20:05:00,
2013-09-09 16:06:00,99.5,33.4,29.97,North,0,0.0,0.0,10,0.00,,---,0.00,VWS V14.01,2013-09-09 20:06:00,
2013-09-09 16:07:00,99.5,33.4,29.97,North,0,0.0,0.0,10,0.00,,---,0.00,VWS V14.01,2013-09-09 20:07:00,
2013-09-09 16:08:00,98.2,34.8,29.97,North,0,0.0,0.0,11,0.00,,---,0.00,VWS V14.01,2013-09-09 20:08:00,
2013-09-09 16:09:00,97.9,34.5,29.97,North,0,0.0,0.0,11,0.00,,---,0.00,VWS V14.01,2013-09-09 20:09:00,
2013-09-09 16:10:00,98.4,34.9,29.97,North,0,0.0,0.0,11,0.00,,---,0.00,VWS V14.01,2013-09-09 20:10:00,
2013-09-09 16:11:00,98.4,34.9,29.97,North,0,0.0,0.0,11,0.00,,---,0.00,VWS V14.01,2013-09-09 20:11:00,
2013-09-09 16:12:00,98.4,34.9,29.97,North,0,0.0,0.0,11,0.00,,---,0.00,VWS V14.01,2013-09-09 20:12:00,
2013-09-09 16:13:00,98.2,34.8,29.97,North,0,0.0,0.0,11,0.00,,---,0.00,VWS V14.01,2013-09-09 20:13:00,
2013-09-09 16:14:00,98.4,34.9,29.97,North,0,0.0,0.0,11,0.00,,---,0.00,VWS V14.01,2013-09-09 20:14:00,
2013-09-09 16:15:00,98.4,34.9,29.97,North,0,0.0,0.0,11,0.00,,---,0.00,VWS V14.01,2013-09-09 20:15:00,
2013-09-09 16:16:00,98.2,34.8,29.97,North,0,0.0,0.0,11,0.00,,---,0.00,VWS V14.01,2013-09-09 20:16:00,
2013-09-09 16:17:00,98.2,34.8,29.97,North,0,0.0,0.0,11,0.00,,---,0.00,VWS V14.01,2013-09-09 20:17:00,
2013-09-09 16:18:00,98.2,34.8,29.97,North,0,0.0,0.0,11,0.00,,---,0.00,VWS V14.01,2013-09-09 20:18:00,
2013-09-09 16:19:00,98.2,34.8,29.97,North,0,0.0,0.0,11,0.00,,---,0.00,VWS V14.01,2013-09-09 20:19:00,
2013-09-09 16:20:00,98.2,34.8,29.97,North,0,0.0,0.0,11,0.00,,---,0.00,VWS V14.01,2013-09-09 20:20:00,
2013-09-09 16:21:00,98.2,34.8,29.97,North,0,0.0,0.0,11,0.00,,---,0.00,VWS V14.01,2013-09-09 20:21:00,
2013-09-09 16:22:00,98.2,34.8,29.97,North,0,0.0,0.0,11,0.00,,---,0.00,VWS V14.01,2013-09-09 20:22:00,
2013-09-09 16:23:00,98.2,34.8,29.97,North,0,0.0,0.0,11,0.00,,---,0.00,VWS V14.01,2013-09-09 20:23:00,
2013-09-09 16:24:00,98.2,34.8,29.97,North,0,0.0,0.0,11,0.00,,---,0.00,VWS V14.01,2013-09-09 20:24:00,
2013-09-09 16:25:00,98.2,34.8,29.97,North,0,0.0,0.0,11,0.00,,---,0.00,VWS V14.01,2013-09-09 20:25:00,
2013-09-09 16:26:00,98.2,34.8,29.97,North,0,0.0,0.0,11,0.00,,---,0.00,VWS V14.01,2013-09-09 20:26:00,
2013-09-09 16:27:00,98.2,34.8,29.97,North,0,0.0,0.0,11,0.00,,---,0.00,VWS V14.01,2013-09-09 20:27:00,
2013-09-09 16:28:00,98.2,34.8,29.97,North,0,0.0,0.0,11,0.00,,---,0.00,VWS V14.01,2013-09-09 20:28:00,
2013-09-09 16:29:00,98.2,34.8,29.97,North,0,0.0,0.0,11,0.00,,---,0.00,VWS V14.01,2013-09-09 20:29:00,
2013-09-09 16:30:00,98.2,34.8,29.97,North,0,0.0,0.0,11,0.00,,---,0.00,VWS V14.01,2013-09-09 20:30:00,
2013-09-09 16:31:00,98.2,34.8,29.97,North,0,0.0,0.0,11,0.00,,---,0.00,VWS V14.01,2013-09-09 20:31:00,
2013-09-09 16:32:00,98.2,34.8,29.97,North,0,0.0,0.0,11,0.00,,---,0.00,VWS V14.01,2013-09-09 20:32:00,
2013-09-09 16:33:00,98.2,34.8,29.97,North,0,0.0,0.0,11,0.00,,---,0.00,VWS V14.01,2013-09-09 20:33:00,
2013-09-09 16:34:00,98.2,34.8,29.97,North,0,0.0,0.0,11,0.00,,---,0.00,VWS V14.01,2013-09-09 20:34:00,
2013-09-09 16:35:00,98.2,34.8,29.97,North,0,0.0,0.0,11,0.00,,---,0.00,VWS V14.01,2013-09-09 20:35:00,
2013-09-09 16:36:00,98.2,34.8,29.97,North,0,0.0,0.0,11,0.00,,---,0.00,VWS V14.01,2013-09-09 20:36:00,
2013-09-09 16:37:00,98.2,34.8,29.97,North,0,0.0,0.0,11,0.00,,---,0.00,VWS V14.01,2013-09-09 20:37:00,
2013-09-09 16:38:00,98.2,34.8,29.97,North,0,0.0,0.0,11,0.00,,---,0.00,VWS V14.01,2013-09-09 20:38:00,
2013-09-09 16:39:00,98.2,34.8,29.97,North,0,0.0,0.0,11,0.00,,---,0.00,VWS V14.01,2013-09-09 20:39:00,
2013-09-09 16:40:00,98.2,34.8,29.97,North,0,0.0,0.0,11,0.00,,---,0.00,VWS V14.01,2013-09-09 20:40:00,
2013-09-09 16:41:00,98.2,34.8,29.97,North,0,0.0,0.0,11,0.00,,---,0.00,VWS V14.01,2013-09-09 20:41:00,
2013-09-09 16:42:00,98.2,34.8,29.97,North,0,0.0,0.0,11,0.00,,---,0.00,VWS V14.01,2013-09-09 20:42:00,
2013-09-09 16:43:00,98.2,34.8,29.97,North,0,0.0,0.0,11,0.00,,---,0.00,VWS V14.01,2013-09-09 20:43:00,
2013-09-09 16:44:00,98.2,34.8,29.97,North,0,0.0,0.0,11,0.00,,---,0.00,VWS V14.01,2013-09-09 20:44:00,
2013-09-09 16:45:00,98.2,34.8,29.97,North,0,0.0,0.0,11,0.00,,---,0.00,VWS V14.01,2013-09-09 20:45:00,
2013-09-09 16:46:00,98.2,34.8,29.97,North,0,0.0,0.0,11,0.00,,---,0.00,VWS V14.01,2013-09-09 20:46:00,
2013-09-09 16:47:00,98.2,34.8,29.97,North,0,0.0,0.0,11,0.00,,---,0.00,VWS V14.01,2013-09-09 20:47:00,
2013-09-09 16:48:00,98.2,34.8,29.97,North,0,0.0,0.0,11,0.00,,---,0.00,VWS V14.01,2013-09-09 20:48:00,
2013-09-09 16:49:00,98.2,34.8,29.97,North,0,0.0,0.0,11,0.00,,---,0.00,VWS V14.01,2013-09-09 20:49:00,
2013-09-09 16:50:00,98.2,34.8,29.97,North,0,0.0,0.0,11,0.00,,---,0.00,VWS V14.01,2013-09-09 20:50:00,
2013-09-09 16:51:00,98.2,34.8,29.97,North,0,0.0,0.0,11,0.00,,---,0.00,VWS V14.01,2013-09-09 20:51:00,
2013-09-09 16:52:00,98.2,34.8,29.97,North,0,0.0,0.0,11,0.00,,---,0.00,VWS V14.01,2013-09-09 20:52:00,
2013-09-09 16:53:00,98.2,34.8,29.97,North,0,0.0,0.0,11,0.00,,---,0.00,VWS V14.01,2013-09-09 20:53:00,
2013-09-09 16:54:00,98.2,34.8,29.97,North,0,0.0,0.0,11,0.00,,---,0.00,VWS V14.01,2013-09-09 20:54:00,
2013-09-09 16:55:00,98.2,34.8,29.97,North,0,0.0,0.0,11,0.00,,---,0.00,VWS V14.01,2013-09-09 20:55:00,
2013-09-09 16:56:00,98.2,34.8,29.97,North,0,0.0,0.0,11,0.00,,---,0.00,VWS V14.01,2013-09-09 20:56:00,
2013-09-09 16:57:00,98.2,34.8,29.97,North,0,0.0,0.0,11,0.00,,---,0.00,VWS V14.01,2013-09-09 20:57:00,
2013-09-09 16:58:00,98.2,34.8,29.97,North,0,0.0,0.0,11,0.00,,---,0.00,VWS V14.01,2013-09-09 20:58:00,
2013-09-09 16:59:00,98.2,34.8,29.97,North,0,0.0,0.0,11,0.00,,---,0.00,VWS V14.01,2013-09-09 20:59:00,
2013-09-09 17:00:00,98.2,34.8,29.97,North,0,0.0,0.0,11,0.00,,---,0.00,VWS V14.01,2013-09-09 21:00:00,
2013-09-09 17:01:00,98.2,34.8,29.97,North,0,0.0,0.0,11,0.00,,---,0.00,VWS V14.01,2013-09-09 21:01:00,
2013-09-09 17:02:00,98.2,34.8,29.97,North,0,0.0,0.0,11,0.00,,---,0.00,VWS V14.01,2013-09-09 21:02:00,
2013-09-09 17:03:00,98.2,34.8,29.94,North,0,0.0,0.0,11,0.00,,---,0.00,VWS V14.01,2013-09-09 21:03:00,
2013-09-09 17:04:00,98.2,34.8,29.97,North,0,0.0,0.0,11,0.00,,---,0.00,VWS V14.01,2013-09-09 21:04:00,
2013-09-09 17:05:00,98.2,34.8,29.97,North,0,0.0,0.0,11,0.00,,---,0.00,VWS V14.01,2013-09-09 21:05:00,
2013-09-09 17:06:00,98.2,34.8,29.97,North,0,0.0,0.0,11,0.00,,---,0.00,VWS V14.01,2013-09-09 21:06:00,
2013-09-09 17:07:00,98.2,34.8,29.97,North,0,0.0,0.0,11,0.00,,---,0.00,VWS V14.01,2013-09-09 21:07:00,
2013-09-09 17:08:00,98.2,34.8,29.94,North,0,0.0,0.0,11,0.00,,---,0.00,VWS V14.01,2013-09-09 21:08:00,
2013-09-09 17:09:00,98.2,34.8,29.97,North,0,0.0,0.0,11,0.00,,---,0.00,VWS V14.01,2013-09-09 21:09:00,
2013-09-09 17:10:00,98.2,34.8,29.97,North,0,0.0,0.0,11,0.00,,---,0.00,VWS V14.01,2013-09-09 21:10:00,
2013-09-09 17:11:00,98.2,34.8,29.97,North,0,0.0,0.0,11,0.00,,---,0.00,VWS V14.01,2013-09-09 21:11:00,
2013-09-09 17:12:00,98.2,34.8,29.97,North,0,0.0,0.0,11,0.00,,---,0.00,VWS V14.01,2013-09-09 21:12:00,
2013-09-09 17:13:00,98.2,34.8,29.94,North,0,0.0,0.0,11,0.00,,---,0.00,VWS V14.01,2013-09-09 21:13:00,
2013-09-09 17:14:00,98.2,34.8,29.97,North,0,0.0,0.0,11,0.00,,---,0.00,VWS V14.01,2013-09-09 21:14:00,
2013-09-09 17:15:00,98.2,34.8,29.97,North,0,0.0,0.0,11,0.00,,---,0.00,VWS V14.01,2013-09-09 21:15:00,
2013-09-09 17:16:00,98.2,34.8,29.94,North,0,0.0,0.0,11,0.00,,---,0.00,VWS V14.01,2013-09-09 21:16:00,
2013-09-09 17:17:00,98.2,34.8,29.94,North,0,0.0,0.0,11,0.00,,---,0.00,VWS V14.01,2013-09-09 21:17:00,
2013-09-09 17:18:00,98.2,34.8,29.94,North,0,0.0,0.0,11,0.00,,---,0.00,VWS V14.01,2013-09-09 21:18:00,
2013-09-09 17:19:00,98.2,34.8,29.94,North,0,0.0,0.0,11,0.00,,---,0.00,VWS V14.01,2013-09-09 21:19:00,
2013-09-09 17:20:00,98.2,34.8,29.94,North,0,0.0,0.0,11,0.00,,---,0.00,VWS V14.01,2013-09-09 21:20:00,
2013-09-09 17:21:00,98.2,34.8,29.94,North,0,0.0,0.0,11,0.00,,---,0.00,VWS V14.01,2013-09-09 21:21:00,
2013-09-09 17:22:00,98.2,34.8,29.94,North,0,0.0,0.0,11,0.00,,---,0.00,VWS V14.01,2013-09-09 21:22:00,
2013-09-09 17:23:00,98.2,34.8,29.94,North,0,0.0,0.0,11,0.00,,---,0.00,VWS V14.01,2013-09-09 21:23:00,
2013-09-09 17:24:00,98.2,34.8,29.94,North,0,0.0,0.0,11,0.00,,---,0.00,VWS V14.01,2013-09-09 21:24:00,
2013-09-09 17:25:00,98.2,34.8,29.94,North,0,0.0,0.0,11,0.00,,---,0.00,VWS V14.01,2013-09-09 21:25:00,
2013-09-09 17:26:00,98.2,34.8,29.94,North,0,0.0,0.0,11,0.00,,---,0.00,VWS V14.01,2013-09-09 21:26:00,
2013-09-09 17:27:00,98.2,34.8,29.94,North,0,0.0,0.0,11,0.00,,---,0.00,VWS V14.01,2013-09-09 21:27:00,
2013-09-09 17:28:00,98.2,34.8,29.94,North,0,0.0,0.0,11,0.00,,---,0.00,VWS V14.01,2013-09-09 21:28:00,
2013-09-09 17:29:00,98.2,34.8,29.94,North,0,0.0,0.0,11,0.00,,---,0.00,VWS V14.01,2013-09-09 21:29:00,
2013-09-09 17:30:00,98.2,34.8,29.94,North,0,0.0,0.0,11,0.00,,---,0.00,VWS V14.01,2013-09-09 21:30:00,
2013-09-09 17:31:00,98.2,34.8,29.94,North,0,0.0,0.0,11,0.00,,---,0.00,VWS V14.01,2013-09-09 21:31:00,
2013-09-09 17:32:00,98.2,34.8,29.94,North,0,0.0,0.0,11,0.00,,---,0.00,VWS V14.01,2013-09-09 21:32:00,
2013-09-09 17:33:00,100.8,34.3,29.94,North,0,0.0,0.0,10,0.00,,---,0.00,VWS V14.01,2013-09-09 21:33:00,
2013-09-09 17:34:00,98.2,34.8,29.94,North,0,0.0,0.0,11,0.00,,---,0.00,VWS V14.01,2013-09-09 21:34:00,
2013-09-09 17:35:00,98.2,34.8,29.94,North,0,0.0,0.0,11,0.00,,---,0.00,VWS V14.01,2013-09-09 21:35:00,
2013-09-09 17:36:00,98.2,34.8,29.94,North,0,0.0,0.0,11,0.00,,---,0.00,VWS V14.01,2013-09-09 21:36:00,
2013-09-09 17:37:00,98.2,34.8,29.94,North,0,0.0,0.0,11,0.00,,---,0.00,VWS V14.01,2013-09-09 21:37:00,
2013-09-09 17:38:00,99.5,33.4,29.94,North,0,0.0,0.0,10,0.00,,---,0.00,VWS V14.01,2013-09-09 21:38:00,
2013-09-09 17:39:00,98.2,34.8,29.94,North,0,0.0,0.0,11,0.00,,---,0.00,VWS V14.01,2013-09-09 21:39:00,
2013-09-09 17:40:00,98.2,34.8,29.94,North,0,0.0,0.0,11,0.00,,---,0.00,VWS V14.01,2013-09-09 21:40:00,
2013-09-09 17:41:00,100.6,34.2,29.94,North,0,0.0,0.0,10,0.00,,---,0.00,VWS V14.01,2013-09-09 21:41:00,
2013-09-09 17:42:00,100.6,34.2,29.94,North,0,0.0,0.0,10,0.00,,---,0.00,VWS V14.01,2013-09-09 21:42:00,
2013-09-09 17:43:00,99.5,33.4,29.94,North,0,0.0,0.0,10,0.00,,---,0.00,VWS V14.01,2013-09-09 21:43:00,
2013-09-09 17:44:00,100.8,34.3,29.94,North,0,0.0,0.0,10,0.00,,---,0.00,VWS V14.01,2013-09-09 21:44:00,
2013-09-09 17:45:00,100.8,34.3,29.94,North,0,0.0,0.0,10,0.00,,---,0.00,VWS V14.01,2013-09-09 21:45:00,
2013-09-09 17:46:00,100.8,34.3,29.94,North,0,0.0,0.0,10,0.00,,---,0.00,VWS V14.01,2013-09-09 21:46:00,
2013-09-09 17:47:00,100.8,34.3,29.94,North,0,0.0,0.0,10,0.00,,---,0.00,VWS V14.01,2013-09-09 21:47:00,
2013-09-09 17:48:00,99.5,33.4,29.94,North,0,0.0,0.0,10,0.00,,---,0.00,VWS V14.01,2013-09-09 21:48:00,
2013-09-09 17:49:00,100.8,34.3,29.94,North,0,0.0,0.0,10,0.00,,---,0.00,VWS V14.01,2013-09-09 21:49:00,
2013-09-09 17:50:00,99.5,33.4,29.94,North,0,0.0,0.0,10,0.00,,---,0.00,VWS V14.01,2013-09-09 21:50:00,
2013-09-09 17:51:00,99.5,33.4,29.94,North,0,0.0,0.0,10,0.00,,---,0.00,VWS V14.01,2013-09-09 21:51:00,
2013-09-09 17:52:00,99.5,33.4,29.94,North,0,0.0,0.0,10,0.00,,---,0.00,VWS V14.01,2013-09-09 21:52:00,
2013-09-09 17:53:00,99.5,33.4,29.94,North,0,0.0,0.0,10,0.00,,---,0.00,VWS V14.01,2013-09-09 21:53:00,
2013-09-09 17:54:00,99.5,33.4,29.94,North,0,0.0,0.0,10,0.00,,---,0.00,VWS V14.01,2013-09-09 21:54:00,
2013-09-09 17:55:00,99.5,33.4,29.94,North,0,0.0,0.0,10,0.00,,---,0.00,VWS V14.01,2013-09-09 21:55:00,
2013-09-09 17:56:00,99.5,33.4,29.94,North,0,0.0,0.0,10,0.00,,---,0.00,VWS V14.01,2013-09-09 21:56:00,
2013-09-09 17:57:00,99.5,33.4,29.94,North,0,0.0,0.0,10,0.00,,---,0.00,VWS V14.01,2013-09-09 21:57:00,
2013-09-09 17:58:00,99.5,33.4,29.94,North,0,0.0,0.0,10,0.00,,---,0.00,VWS V14.01,2013-09-09 21:58:00,
2013-09-09 17:59:00,99.5,33.4,29.94,North,0,0.0,0.0,10,0.00,,---,0.00,VWS V14.01,2013-09-09 21:59:00,
2013-09-09 18:00:00,99.5,33.4,29.94,North,0,0.0,0.0,10,0.00,,---,0.00,VWS V14.01,2013-09-09 22:00:00,
2013-09-09 18:01:00,99.5,33.4,29.94,North,0,0.0,0.0,10,0.00,,---,0.00,VWS V14.01,2013-09-09 22:01:00,
2013-09-09 18:02:00,99.5,33.4,29.94,North,0,0.0,0.0,10,0.00,,---,0.00,VWS V14.01,2013-09-09 22:02:00,
2013-09-09 18:03:00,99.5,33.4,29.94,North,0,0.0,0.0,10,0.00,,---,0.00,VWS V14.01,2013-09-09 22:03:00,
2013-09-09 18:04:00,99.5,33.4,29.94,North,0,0.0,0.0,10,0.00,,---,0.00,VWS V14.01,2013-09-09 22:04:00,
2013-09-09 18:05:00,99.5,33.4,29.94,North,0,0.0,0.0,10,0.00,,---,0.00,VWS V14.01,2013-09-09 22:05:00,
2013-09-09 18:06:00,99.5,33.4,29.94,North,0,0.0,0.0,10,0.00,,---,0.00,VWS V14.01,2013-09-09 22:06:00,
2013-09-09 18:07:00,99.5,33.4,29.94,North,0,0.0,0.0,10,0.00,,---,0.00,VWS V14.01,2013-09-09 22:07:00,
2013-09-09 18:08:00,99.5,33.4,29.94,North,0,0.0,0.0,10,0.00,,---,0.00,VWS V14.01,2013-09-09 22:08:00,
2013-09-09 18:09:00,99.5,33.4,29.94,North,0,0.0,0.0,10,0.00,,---,0.00,VWS V14.01,2013-09-09 22:09:00,
2013-09-09 18:10:00,99.5,33.4,29.94,North,0,0.0,0.0,10,0.00,,---,0.00,VWS V14.01,2013-09-09 22:10:00,
2013-09-09 18:11:00,99.5,33.4,29.94,North,0,0.0,0.0,10,0.00,,---,0.00,VWS V14.01,2013-09-09 22:11:00,
2013-09-09 18:12:00,92.8,32.8,29.94,North,0,0.0,0.0,12,0.00,,---,0.00,VWS V14.01,2013-09-09 22:12:00,
2013-09-09 18:13:00,99.5,33.4,29.94,North,0,0.0,0.0,10,0.00,,---,0.00,VWS V14.01,2013-09-09 22:13:00,
2013-09-09 18:14:00,99.5,33.4,29.94,North,0,0.0,0.0,10,0.00,,---,0.00,VWS V14.01,2013-09-09 22:14:00,
2013-09-09 18:15:00,99.5,33.4,29.94,North,0,0.0,0.0,10,0.00,,---,0.00,VWS V14.01,2013-09-09 22:15:00,
2013-09-09 18:16:00,99.5,33.4,29.94,North,0,0.0,0.0,10,0.00,,---,0.00,VWS V14.01,2013-09-09 22:16:00,
2013-09-09 18:17:00,92.5,32.5,29.94,North,0,0.0,0.0,12,0.00,,---,0.00,VWS V14.01,2013-09-09 22:17:00,
2013-09-09 18:18:00,99.5,33.4,29.94,North,0,0.0,0.0,10,0.00,,---,0.00,VWS V14.01,2013-09-09 22:18:00,
2013-09-09 18:19:00,99.5,33.4,29.94,North,0,0.0,0.0,10,0.00,,---,0.00,VWS V14.01,2013-09-09 22:19:00,
2013-09-09 18:20:00,99.5,33.4,29.94,North,0,0.0,0.0,10,0.00,,---,0.00,VWS V14.01,2013-09-09 22:20:00,
2013-09-09 18:21:00,99.5,33.4,29.94,North,0,0.0,0.0,10,0.00,,---,0.00,VWS V14.01,2013-09-09 22:21:00,
2013-09-09 18:22:00,92.1,32.3,29.94,North,0,0.0,0.0,12,0.00,,---,0.00,VWS V14.01,2013-09-09 22:22:00,
2013-09-09 18:23:00,99.5,33.4,29.94,North,0,0.0,0.0,10,0.00,,---,0.00,VWS V14.01,2013-09-09 22:23:00,
2013-09-09 18:24:00,99.5,33.4,29.94,North,0,0.0,0.0,10,0.00,,---,0.00,VWS V14.01,2013-09-09 22:24:00,
2013-09-09 18:25:00,92.8,32.8,29.94,North,0,0.0,0.0,12,0.00,,---,0.00,VWS V14.01,2013-09-09 22:25:00,
2013-09-09 18:26:00,92.7,32.7,29.94,North,0,0.0,0.0,12,0.00,,---,0.00,VWS V14.01,2013-09-09 22:26:00,
2013-09-09 18:27:00,92.1,32.3,29.94,North,0,0.0,0.0,12,0.00,,---,0.00,VWS V14.01,2013-09-09 22:27:00,
2013-09-09 18:28:00,92.5,32.5,29.94,North,0,0.0,0.0,12,0.00,,---,0.00,VWS V14.01,2013-09-09 22:28:00,
2013-09-09 18:29:00,92.5,32.5,29.94,North,0,0.0,0.0,12,0.00,,---,0.00,VWS V14.01,2013-09-09 22:29:00,
2013-09-09 18:30:00,92.5,32.5,29.94,North,0,0.0,0.0,12,0.00,,---,0.00,VWS V14.01,2013-09-09 22:30:00,
2013-09-09 18:31:00,92.5,32.5,29.94,North,0,0.0,0.0,12,0.00,,---,0.00,VWS V14.01,2013-09-09 22:31:00,
2013-09-09 18:32:00,92.5,32.5,29.94,North,0,0.0,0.0,12,0.00,,---,0.00,VWS V14.01,2013-09-09 22:32:00,
2013-09-09 18:33:00,92.3,32.4,29.94,North,0,0.0,0.0,12,0.00,,---,0.00,VWS V14.01,2013-09-09 22:33:00,
2013-09-09 18:34:00,91.9,32.1,29.94,North,0,0.0,0.0,12,0.00,,---,0.00,VWS V14.01,2013-09-09 22:34:00,
2013-09-09 18:35:00,92.1,32.3,29.94,North,0,0.0,0.0,12,0.00,,---,0.00,VWS V14.01,2013-09-09 22:35:00,
2013-09-09 18:36:00,92.1,32.3,29.94,North,0,0.0,0.0,12,0.00,,---,0.00,VWS V14.01,2013-09-09 22:36:00,
2013-09-09 18:37:00,92.8,32.8,29.94,North,0,0.0,0.0,12,0.00,,---,0.00,VWS V14.01,2013-09-09 22:37:00,
2013-09-09 18:38:00,92.1,32.3,29.94,North,0,0.0,0.0,12,0.00,,---,0.00,VWS V14.01,2013-09-09 22:38:00,
2013-09-09 18:39:00,92.1,32.3,29.94,North,0,0.0,0.0,12,0.00,,---,0.00,VWS V14.01,2013-09-09 22:39:00,
2013-09-09 18:40:00,92.1,32.3,29.94,North,0,0.0,0.0,12,0.00,,---,0.00,VWS V14.01,2013-09-09 22:40:00,
2013-09-09 18:41:00,92.1,32.3,29.94,North,0,0.0,0.0,12,0.00,,---,0.00,VWS V14.01,2013-09-09 22:41:00,
2013-09-09 18:42:00,92.5,32.5,29.94,North,0,0.0,0.0,12,0.00,,---,0.00,VWS V14.01,2013-09-09 22:42:00,
2013-09-09 18:43:00,92.1,32.3,29.94,North,0,0.0,0.0,12,0.00,,---,0.00,VWS V14.01,2013-09-09 22:43:00,
2013-09-09 18:44:00,92.5,32.5,29.94,North,0,0.0,0.0,12,0.00,,---,0.00,VWS V14.01,2013-09-09 22:44:00,
2013-09-09 18:45:00,92.5,32.5,29.94,North,0,0.0,0.0,12,0.00,,---,0.00,VWS V14.01,2013-09-09 22:45:00,
2013-09-09 18:46:00,92.5,32.5,29.94,North,0,0.0,0.0,12,0.00,,---,0.00,VWS V14.01,2013-09-09 22:46:00,
2013-09-09 18:47:00,91.8,32.0,29.94,North,0,0.0,0.0,12,0.00,,---,0.00,VWS V14.01,2013-09-09 22:47:00,
2013-09-09 18:48:00,92.5,32.5,29.94,North,0,0.0,0.0,12,0.00,,---,0.00,VWS V14.01,2013-09-09 22:48:00,
2013-09-09 18:49:00,92.8,32.8,29.94,North,0,0.0,0.0,12,0.00,,---,0.00,VWS V14.01,2013-09-09 22:49:00,
2013-09-09 18:50:00,92.8,32.8,29.94,North,0,0.0,0.0,12,0.00,,---,0.00,VWS V14.01,2013-09-09 22:50:00,
2013-09-09 18:51:00,92.8,32.8,29.94,North,0,0.0,0.0,12,0.00,,---,0.00,VWS V14.01,2013-09-09 22:51:00,
2013-09-09 18:52:00,91.8,32.0,29.94,North,0,0.0,0.0,12,0.00,,---,0.00,VWS V14.01,2013-09-09 22:52:00,
2013-09-09 18:53:00,92.8,32.8,29.94,North,0,0.0,0.0,12,0.00,,---,0.00,VWS V14.01,2013-09-09 22:53:00,
2013-09-09 18:54:00,92.5,32.5,29.94,North,0,0.0,0.0,12,0.00,,---,0.00,VWS V14.01,2013-09-09 22:54:00,
2013-09-09 18:55:00,92.5,32.5,29.94,North,0,0.0,0.0,12,0.00,,---,0.00,VWS V14.01,2013-09-09 22:55:00,
2013-09-09 18:56:00,92.5,32.5,29.94,North,0,0.0,0.0,12,0.00,,---,0.00,VWS V14.01,2013-09-09 22:56:00,
2013-09-09 18:57:00,91.8,32.0,29.94,North,0,0.0,0.0,12,0.00,,---,0.00,VWS V14.01,2013-09-09 22:57:00,
2013-09-09 18:58:00,92.1,32.3,29.94,North,0,0.0,0.0,12,0.00,,---,0.00,VWS V14.01,2013-09-09 22:58:00,
2013-09-09 18:59:00,92.1,32.3,29.94,North,0,0.0,0.0,12,0.00,,---,0.00,VWS V14.01,2013-09-09 22:59:00,
2013-09-09 19:00:00,91.8,32.0,29.94,North,0,0.0,0.0,12,0.00,,---,0.00,VWS V14.01,2013-09-09 23:00:00,
2013-09-09 19:01:00,91.8,32.0,29.94,North,0,0.0,0.0,12,0.00,,---,0.00,VWS V14.01,2013-09-09 23:01:00,
2013-09-09 19:02:00,91.2,31.6,29.94,North,0,0.0,0.0,12,0.00,,---,0.00,VWS V14.01,2013-09-09 23:02:00,
2013-09-09 19:03:00,91.8,32.0,29.94,North,0,0.0,0.0,12,0.00,,---,0.00,VWS V14.01,2013-09-09 23:03:00,
2013-09-09 19:04:00,91.8,32.0,29.94,North,0,0.0,0.0,12,0.00,,---,0.00,VWS V14.01,2013-09-09 23:04:00,
2013-09-09 19:05:00,91.8,32.0,29.94,North,0,0.0,0.0,12,0.00,,---,0.00,VWS V14.01,2013-09-09 23:05:00,
2013-09-09 19:06:00,91.8,32.0,29.94,North,0,0.0,0.0,12,0.00,,---,0.00,VWS V14.01,2013-09-09 23:06:00,
2013-09-09 19:07:00,90.3,36.5,29.94,North,0,0.0,0.0,15,0.00,,---,0.00,VWS V14.01,2013-09-09 23:07:00,
2013-09-09 19:08:00,91.8,32.0,29.94,North,0,0.0,0.0,12,0.00,,---,0.00,VWS V14.01,2013-09-09 23:08:00,
2013-09-09 19:09:00,91.8,32.0,29.94,North,0,0.0,0.0,12,0.00,,---,0.00,VWS V14.01,2013-09-09 23:09:00,
2013-09-09 19:10:00,91.2,31.6,29.94,North,0,0.0,0.0,12,0.00,,---,0.00,VWS V14.01,2013-09-09 23:10:00,
2013-09-09 19:11:00,91.2,31.6,29.94,North,0,0.0,0.0,12,0.00,,---,0.00,VWS V14.01,2013-09-09 23:11:00,
2013-09-09 19:12:00,89.6,35.9,29.94,North,0,0.0,0.0,15,0.00,,---,0.00,VWS V14.01,2013-09-09 23:12:00,
2013-09-09 19:13:00,91.2,31.6,29.94,North,0,0.0,0.0,12,0.00,,---,0.00,VWS V14.01,2013-09-09 23:13:00,
2013-09-09 19:14:00,91.2,31.6,29.94,North,0,0.0,0.0,12,0.00,,---,0.00,VWS V14.01,2013-09-09 23:14:00,
2013-09-09 19:15:00,91.2,31.6,29.94,North,0,0.0,0.0,12,0.00,,---,0.00,VWS V14.01,2013-09-09 23:15:00,
2013-09-09 19:16:00,90.9,36.9,29.94,North,0,0.0,0.0,15,0.00,,---,0.00,VWS V14.01,2013-09-09 23:16:00,
2013-09-09 19:17:00,89.2,40.2,29.94,North,0,0.0,0.0,18,0.00,,---,0.00,VWS V14.01,2013-09-09 23:17:00,
2013-09-09 19:18:00,90.7,36.7,29.94,North,0,0.0,0.0,15,0.00,,---,0.00,VWS V14.01,2013-09-09 23:18:00,
2013-09-09 19:19:00,90.5,36.6,29.94,North,0,0.0,0.0,15,0.00,,---,0.00,VWS V14.01,2013-09-09 23:19:00,
2013-09-09 19:20:00,90.3,36.5,29.94,North,0,0.0,0.0,15,0.00,,---,0.00,VWS V14.01,2013-09-09 23:20:00,
2013-09-09 19:21:00,90.3,36.5,29.94,North,0,0.0,0.0,15,0.00,,---,0.00,VWS V14.01,2013-09-09 23:21:00,
2013-09-09 19:22:00,88.3,39.5,29.97,North,0,0.0,0.0,18,0.00,,---,0.00,VWS V14.01,2013-09-09 23:22:00,
2013-09-09 19:23:00,90.0,36.2,29.94,North,0,0.0,0.0,15,0.00,,---,0.00,VWS V14.01,2013-09-09 23:23:00,
2013-09-09 19:24:00,90.0,36.2,29.94,North,0,0.0,0.0,15,0.00,,---,0.00,VWS V14.01,2013-09-09 23:24:00,
2013-09-09 19:25:00,89.6,35.9,29.94,North,0,0.0,0.0,15,0.00,,---,0.00,VWS V14.01,2013-09-09 23:25:00,
2013-09-09 19:26:00,89.6,35.9,29.94,North,0,0.0,0.0,15,0.00,,---,0.00,VWS V14.01,2013-09-09 23:26:00,
2013-09-09 19:27:00,87.8,39.1,29.97,North,0,0.0,0.0,18,0.00,,---,0.00,VWS V14.01,2013-09-09 23:27:00,
2013-09-09 19:28:00,89.2,40.2,29.94,North,0,0.0,0.0,18,0.00,,---,0.00,VWS V14.01,2013-09-09 23:28:00,
2013-09-09 19:29:00,89.2,40.2,29.94,North,0,0.0,0.0,18,0.00,,---,0.00,VWS V14.01,2013-09-09 23:29:00,
2013-09-09 19:30:00,89.2,40.2,29.94,North,0,0.0,0.0,18,0.00,,---,0.00,VWS V14.01,2013-09-09 23:30:00,
2013-09-09 19:31:00,89.2,40.2,29.97,North,0,0.0,0.0,18,0.00,,---,0.00,VWS V14.01,2013-09-09 23:31:00,
2013-09-09 19:32:00,87.4,40.2,29.97,North,0,0.0,0.0,19,0.00,,---,0.00,VWS V14.01,2013-09-09 23:32:00,
2013-09-09 19:33:00,88.5,39.7,29.97,North,0,0.0,0.0,18,0.00,,---,0.00,VWS V14.01,2013-09-09 23:33:00,
2013-09-09 19:34:00,88.3,39.5,29.97,North,0,0.0,0.0,18,0.00,,---,0.00,VWS V14.01,2013-09-09 23:34:00,
2013-09-09 19:35:00,88.3,39.5,29.97,North,0,0.0,0.0,18,0.00,,---,0.00,VWS V14.01,2013-09-09 23:35:00,
2013-09-09 19:36:00,88.2,39.4,29.97,North,0,0.0,0.0,18,0.00,,---,0.00,VWS V14.01,2013-09-09 23:36:00,
2013-09-09 19:37:00,87.1,39.9,29.97,North,0,0.0,0.0,19,0.00,,---,0.00,VWS V14.01,2013-09-09 23:37:00,
2013-09-09 19:38:00,88.0,39.2,29.97,North,0,0.0,0.0,18,0.00,,---,0.00,VWS V14.01,2013-09-09 23:38:00,
2013-09-09 19:39:00,87.8,39.1,29.97,North,0,0.0,0.0,18,0.00,,---,0.00,VWS V14.01,2013-09-09 23:39:00,
2013-09-09 19:40:00,87.8,39.1,29.97,North,0,0.0,0.0,18,0.00,,---,0.00,VWS V14.01,2013-09-09 23:40:00,
2013-09-09 19:41:00,87.8,39.1,29.97,North,0,0.0,0.0,18,0.00,,---,0.00,VWS V14.01,2013-09-09 23:41:00,
2013-09-09 19:42:00,86.7,39.6,29.97,North,0,0.0,0.0,19,0.00,,---,0.00,VWS V14.01,2013-09-09 23:42:00,
2013-09-09 19:43:00,87.6,40.3,29.97,North,0,0.0,0.0,19,0.00,,---,0.00,VWS V14.01,2013-09-09 23:43:00,
2013-09-09 19:44:00,87.4,40.2,29.97,North,0,0.0,0.0,19,0.00,,---,0.00,VWS V14.01,2013-09-09 23:44:00,
2013-09-09 19:45:00,87.4,40.2,29.97,North,0,0.0,0.0,19,0.00,,---,0.00,VWS V14.01,2013-09-09 23:45:00,
2013-09-09 19:46:00,87.3,40.0,29.97,North,0,0.0,0.0,19,0.00,,---,0.00,VWS V14.01,2013-09-09 23:46:00,
2013-09-09 19:47:00,86.4,39.3,29.97,North,0,0.0,0.0,19,0.00,,---,0.00,VWS V14.01,2013-09-09 23:47:00,
2013-09-09 19:48:00,87.1,39.9,29.97,North,0,0.0,0.0,19,0.00,,---,0.00,VWS V14.01,2013-09-09 23:48:00,
2013-09-09 19:49:00,87.1,39.9,29.97,North,0,0.0,0.0,19,0.00,,---,0.00,VWS V14.01,2013-09-09 23:49:00,
2013-09-09 19:50:00,87.1,39.9,29.97,North,0,0.0,0.0,19,0.00,,---,0.00,VWS V14.01,2013-09-09 23:50:00,
2013-09-09 19:51:00,87.1,39.9,29.97,North,0,0.0,0.0,19,0.00,,---,0.00,VWS V14.01,2013-09-09 23:51:00,
2013-09-09 19:52:00,86.0,40.3,29.97,North,0,0.0,0.0,20,0.00,,---,0.00,VWS V14.01,2013-09-09 23:52:00,
2013-09-09 19:53:00,86.9,39.7,29.97,North,0,0.0,0.0,19,0.00,,---,0.00,VWS V14.01,2013-09-09 23:53:00,
2013-09-09 19:54:00,86.9,39.7,29.97,North,0,0.0,0.0,19,0.00,,---,0.00,VWS V14.01,2013-09-09 23:54:00,
2013-09-09 19:55:00,86.7,39.6,29.97,North,0,0.0,0.0,19,0.00,,---,0.00,VWS V14.01,2013-09-09 23:55:00,
2013-09-09 19:56:00,86.7,39.6,29.97,North,0,0.0,0.0,19,0.00,,---,0.00,VWS V14.01,2013-09-09 23:56:00,
2013-09-09 19:57:00,85.6,40.0,29.97,North,0,0.0,0.0,20,0.00,,---,0.00,VWS V14.01,2013-09-09 23:57:00,
2013-09-09 19:58:00,86.5,39.4,29.97,North,0,0.0,0.0,19,0.00,,---,0.00,VWS V14.01,2013-09-09 23:58:00,
2013-09-09 19:59:00,86.4,39.3,29.97,North,0,0.0,0.0,19,0.00,,---,0.00,VWS V14.01,2013-09-09 23:59:00,
2013-09-09 20:00:00,86.4,39.3,29.97,North,0,0.0,0.0,19,0.00,,---,0.00,VWS V14.01,2013-09-10 00:00:00,
2013-09-09 20:01:00,86.4,39.3,29.97,North,0,0.0,0.0,19,0.00,,---,0.00,VWS V14.01,2013-09-10 00:01:00,
2013-09-09 20:02:00,85.3,41.0,29.97,North,0,0.0,0.0,21,0.00,,---,0.00,VWS V14.01,2013-09-10 00:02:00,
2013-09-09 20:03:00,86.0,39.0,29.97,North,0,0.0,0.0,19,0.00,,---,0.00,VWS V14.01,2013-09-10 00:03:00,
2013-09-09 20:04:00,86.0,40.3,29.97,North,0,0.0,0.0,20,0.00,,---,0.00,VWS V14.01,2013-09-10 00:04:00,
2013-09-09 20:05:00,86.0,40.3,29.97,North,0,0.0,0.0,20,0.00,,---,0.00,VWS V14.01,2013-09-10 00:05:00,
2013-09-09 20:06:00,85.8,40.2,29.97,North,0,0.0,0.0,20,0.00,,---,0.00,VWS V14.01,2013-09-10 00:06:00,
2013-09-09 20:07:00,84.9,40.7,29.97,North,0,0.0,0.0,21,0.00,,---,0.00,VWS V14.01,2013-09-10 00:07:00,
2013-09-09 20:08:00,85.6,40.0,29.97,North,0,0.0,0.0,20,0.00,,---,0.00,VWS V14.01,2013-09-10 00:08:00,
2013-09-09 20:09:00,85.6,40.0,29.97,North,0,0.0,0.0,20,0.00,,---,0.00,VWS V14.01,2013-09-10 00:09:00,
2013-09-09 20:10:00,85.6,40.0,29.97,North,0,0.0,0.0,20,0.00,,---,0.00,VWS V14.01,2013-09-10 00:10:00,
2013-09-09 20:11:00,85.5,41.1,29.97,North,0,0.0,0.0,21,0.00,,---,0.00,VWS V14.01,2013-09-10 00:11:00,
2013-09-09 20:12:00,84.7,40.5,29.97,North,0,0.0,0.0,21,0.00,,---,0.00,VWS V14.01,2013-09-10 00:12:00,
2013-09-09 20:13:00,85.3,41.0,29.97,North,0,0.0,0.0,21,0.00,,---,0.00,VWS V14.01,2013-09-10 00:13:00,
2013-09-09 20:14:00,85.3,41.0,29.97,North,0,0.0,0.0,21,0.00,,---,0.00,VWS V14.01,2013-09-10 00:14:00,
2013-09-09 20:15:00,85.3,41.0,29.97,North,0,0.0,0.0,21,0.00,,---,0.00,VWS V14.01,2013-09-10 00:15:00,
2013-09-09 20:16:00,85.1,40.8,29.97,North,0,0.0,0.0,21,0.00,,---,0.00,VWS V14.01,2013-09-10 00:16:00,
2013-09-09 20:17:00,84.4,41.4,29.97,North,0,0.0,0.0,22,0.00,,---,0.00,VWS V14.01,2013-09-10 00:17:00,
2013-09-09 20:18:00,85.1,40.8,29.97,North,0,0.0,0.0,21,0.00,,---,0.00,VWS V14.01,2013-09-10 00:18:00,
2013-09-09 20:19:00,84.9,40.7,29.97,North,0,0.0,0.0,21,0.00,,---,0.00,VWS V14.01,2013-09-10 00:19:00,
2013-09-09 20:20:00,84.9,40.7,29.97,North,0,0.0,0.0,21,0.00,,---,0.00,VWS V14.01,2013-09-10 00:20:00,
2013-09-09 20:21:00,84.7,40.5,29.97,North,0,0.0,0.0,21,0.00,,---,0.00,VWS V14.01,2013-09-10 00:21:00,
2013-09-09 20:22:00,84.2,42.4,29.94,North,0,0.0,0.0,23,0.00,,---,0.00,VWS V14.01,2013-09-10 00:22:00,
2013-09-09 20:23:00,84.7,40.5,29.97,North,0,0.0,0.0,21,0.00,,---,0.00,VWS V14.01,2013-09-10 00:23:00,
2013-09-09 20:24:00,84.7,40.5,29.97,North,0,0.0,0.0,21,0.00,,---,0.00,VWS V14.01,2013-09-10 00:24:00,
2013-09-09 20:25:00,84.7,40.5,29.97,North,0,0.0,0.0,21,0.00,,---,0.00,VWS V14.01,2013-09-10 00:25:00,
2013-09-09 20:26:00,84.6,41.6,29.97,North,0,0.0,0.0,22,0.00,,---,0.00,VWS V14.01,2013-09-10 00:26:00,
2013-09-09 20:27:00,83.8,42.1,29.94,North,0,0.0,0.0,23,0.00,,---,0.00,VWS V14.01,2013-09-10 00:27:00,
2013-09-09 20:28:00,84.4,41.4,29.97,North,0,0.0,0.0,22,0.00,,---,0.00,VWS V14.01,2013-09-10 00:28:00,
2013-09-09 20:29:00,84.4,41.4,29.97,North,0,0.0,0.0,22,0.00,,---,0.00,VWS V14.01,2013-09-10 00:29:00,
2013-09-09 20:30:00,84.4,41.4,29.97,North,0,0.0,0.0,22,0.00,,---,0.00,VWS V14.01,2013-09-10 00:30:00,
2013-09-09 20:31:00,84.4,42.6,29.94,North,0,0.0,0.0,23,0.00,,---,0.00,VWS V14.01,2013-09-10 00:31:00,
2013-09-09 20:32:00,83.7,43.1,29.94,North,0,0.0,0.0,24,0.00,,---,0.00,VWS V14.01,2013-09-10 00:32:00,
2013-09-09 20:33:00,84.2,42.4,29.94,North,0,0.0,0.0,23,0.00,,---,0.00,VWS V14.01,2013-09-10 00:33:00,
2013-09-09 20:34:00,84.2,42.4,29.94,North,0,0.0,0.0,23,0.00,,---,0.00,VWS V14.01,2013-09-10 00:34:00,
2013-09-09 20:35:00,84.2,42.4,29.94,North,0,0.0,0.0,23,0.00,,---,0.00,VWS V14.01,2013-09-10 00:35:00,
2013-09-09 20:36:00,84.0,42.3,29.94,North,0,0.0,0.0,23,0.00,,---,0.00,VWS V14.01,2013-09-10 00:36:00,
2013-09-09 20:37:00,83.5,45.0,29.97,North,0,0.0,0.0,26,0.00,,---,0.00,VWS V14.01,2013-09-10 00:37:00,
2013-09-09 20:38:00,84.0,42.3,29.94,North,0,0.0,0.0,23,0.00,,---,0.00,VWS V14.01,2013-09-10 00:38:00,
2013-09-09 20:39:00,84.0,42.3,29.94,North,0,0.0,0.0,23,0.00,,---,0.00,VWS V14.01,2013-09-10 00:39:00,
2013-09-09 20:40:00,83.8,42.1,29.94,North,0,0.0,0.0,23,0.00,,---,0.00,VWS V14.01,2013-09-10 00:40:00,
2013-09-09 20:41:00,83.8,43.2,29.94,North,0,0.0,0.0,24,0.00,,---,0.00,VWS V14.01,2013-09-10 00:41:00,
2013-09-09 20:42:00,83.1,44.7,29.97,North,0,0.0,0.0,26,0.00,,---,0.00,VWS V14.01,2013-09-10 00:42:00,
2013-09-09 20:43:00,83.8,43.2,29.94,North,0,0.0,0.0,24,0.00,,---,0.00,VWS V14.01,2013-09-10 00:43:00,
2013-09-09 20:44:00,83.7,43.1,29.94,North,0,0.0,0.0,24,0.00,,---,0.00,VWS V14.01,2013-09-10 00:44:00,
2013-09-09 20:45:00,83.7,43.1,29.94,North,0,0.0,0.0,24,0.00,,---,0.00,VWS V14.01,2013-09-10 00:45:00,
2013-09-09 20:46:00,83.7,43.1,29.97,North,0,0.0,0.0,24,0.00,,---,0.00,VWS V14.01,2013-09-10 00:46:00,
2013-09-09 20:47:00,82.9,44.6,29.97,North,0,0.0,0.0,26,0.00,,---,0.00,VWS V14.01,2013-09-10 00:47:00,
2013-09-09 20:48:00,83.5,42.9,29.97,North,0,0.0,0.0,24,0.00,,---,0.00,VWS V14.01,2013-09-10 00:48:00,
2013-09-09 20:49:00,83.5,45.0,29.97,North,0,0.0,0.0,26,0.00,,---,0.00,VWS V14.01,2013-09-10 00:49:00,
2013-09-09 20:50:00,83.3,43.8,29.97,North,0,0.0,0.0,25,0.00,,---,0.00,VWS V14.01,2013-09-10 00:50:00,
2013-09-09 20:51:00,83.3,43.8,29.97,North,0,0.0,0.0,25,0.00,,---,0.00,VWS V14.01,2013-09-10 00:51:00,
2013-09-09 20:52:00,82.6,44.3,29.97,North,0,0.0,0.0,26,0.00,,---,0.00,VWS V14.01,2013-09-10 00:52:00,
2013-09-09 20:53:00,83.3,43.8,29.97,North,0,0.0,0.0,25,0.00,,---,0.00,VWS V14.01,2013-09-10 00:53:00,
2013-09-09 20:54:00,83.1,43.7,29.97,North,0,0.0,0.0,25,0.00,,---,0.00,VWS V14.01,2013-09-10 00:54:00,
2013-09-09 20:55:00,83.1,44.7,29.97,North,0,0.0,0.0,26,0.00,,---,0.00,VWS V14.01,2013-09-10 00:55:00,
2013-09-09 20:56:00,83.1,44.7,29.97,North,0,0.0,0.0,26,0.00,,---,0.00,VWS V14.01,2013-09-10 00:56:00,
2013-09-09 20:57:00,82.4,45.1,29.97,North,0,0.0,0.0,27,0.00,,---,0.00,VWS V14.01,2013-09-10 00:57:00,
2013-09-09 20:58:00,82.9,44.6,29.97,North,0,0.0,0.0,26,0.00,,---,0.00,VWS V14.01,2013-09-10 00:58:00,
2013-09-09 20:59:00,82.9,44.6,29.97,North,0,0.0,0.0,26,0.00,,---,0.00,VWS V14.01,2013-09-10 00:59:00,
2013-09-09 21:00:00,82.9,44.6,29.97,North,0,0.0,0.0,26,0.00,,---,0.00,VWS V14.01,2013-09-10 01:00:00,
2013-09-09 21:01:00,82.8,44.4,29.97,North,0,0.0,0.0,26,0.00,,---,0.00,VWS V14.01,2013-09-10 01:01:00,
2013-09-09 21:02:00,82.2,45.9,29.97,North,0,0.0,0.0,28,0.00,,---,0.00,VWS V14.01,2013-09-10 01:02:00,
2013-09-09 21:03:00,82.8,44.4,29.97,North,0,0.0,0.0,26,0.00,,---,0.00,VWS V14.01,2013-09-10 01:03:00,
2013-09-09 21:04:00,82.6,44.3,29.97,North,0,0.0,0.0,26,0.00,,---,0.00,VWS V14.01,2013-09-10 01:04:00,
2013-09-09 21:05:00,82.6,44.3,29.97,North,0,0.0,0.0,26,0.00,,---,0.00,VWS V14.01,2013-09-10 01:05:00,
2013-09-09 21:06:00,82.6,44.3,29.97,North,0,0.0,0.0,26,0.00,,---,0.00,VWS V14.01,2013-09-10 01:06:00,
2013-09-09 21:07:00,82.0,45.8,29.97,North,0,0.0,0.0,28,0.00,,---,0.00,VWS V14.01,2013-09-10 01:07:00,
2013-09-09 21:08:00,82.4,46.1,29.97,North,0,0.0,0.0,28,0.00,,---,0.00,VWS V14.01,2013-09-10 01:08:00,
2013-09-09 21:09:00,82.4,46.1,29.97,North,0,0.0,0.0,28,0.00,,---,0.00,VWS V14.01,2013-09-10 01:09:00,
2013-09-09 21:10:00,82.4,45.1,29.97,North,0,0.0,0.0,27,0.00,,---,0.00,VWS V14.01,2013-09-10 01:10:00,
2013-09-09 21:11:00,82.4,46.1,29.97,North,0,0.0,0.0,28,0.00,,---,0.00,VWS V14.01,2013-09-10 01:11:00,
2013-09-09 21:12:00,81.9,46.5,29.97,North,0,0.0,0.0,29,0.00,,---,0.00,VWS V14.01,2013-09-10 01:12:00,
2013-09-09 21:13:00,82.4,46.1,29.97,North,0,0.0,0.0,28,0.00,,---,0.00,VWS V14.01,2013-09-10 01:13:00,
2013-09-09 21:14:00,82.2,45.9,29.97,North,0,0.0,0.0,28,0.00,,---,0.00,VWS V14.01,2013-09-10 01:14:00,
2013-09-09 21:15:00,82.2,45.9,29.97,North,0,0.0,0.0,28,0.00,,---,0.00,VWS V14.01,2013-09-10 01:15:00,
2013-09-09 21:16:00,82.2,45.9,29.97,North,0,0.0,0.0,28,0.00,,---,0.00,VWS V14.01,2013-09-10 01:16:00,
2013-09-09 21:17:00,81.7,46.4,29.97,North,0,0.0,0.0,29,0.00,,---,0.00,VWS V14.01,2013-09-10 01:17:00,
2013-09-09 21:18:00,82.2,45.9,29.97,North,0,0.0,0.0,28,0.00,,---,0.00,VWS V14.01,2013-09-10 01:18:00,
2013-09-09 21:19:00,82.0,45.8,29.97,North,0,0.0,0.0,28,0.00,,---,0.00,VWS V14.01,2013-09-10 01:19:00,
2013-09-09 21:20:00,82.0,45.8,29.97,North,0,0.0,0.0,28,0.00,,---,0.00,VWS V14.01,2013-09-10 01:20:00,
2013-09-09 21:21:00,82.0,46.7,29.97,North,0,0.0,0.0,29,0.00,,---,0.00,VWS V14.01,2013-09-10 01:21:00,
2013-09-09 21:22:00,81.7,46.4,29.97,North,0,0.0,0.0,29,0.00,,---,0.00,VWS V14.01,2013-09-10 01:22:00,
2013-09-09 21:23:00,81.9,46.5,29.97,North,0,0.0,0.0,29,0.00,,---,0.00,VWS V14.01,2013-09-10 01:23:00,
2013-09-09 21:24:00,81.9,46.5,29.97,North,0,0.0,0.0,29,0.00,,---,0.00,VWS V14.01,2013-09-10 01:24:00,
2013-09-09 21:25:00,81.9,46.5,29.97,North,0,0.0,0.0,29,0.00,,---,0.00,VWS V14.01,2013-09-10 01:25:00,
2013-09-09 21:26:00,81.9,46.5,29.97,North,0,0.0,0.0,29,0.00,,---,0.00,VWS V14.01,2013-09-10 01:26:00,
2013-09-09 21:27:00,81.5,47.1,29.97,North,0,0.0,0.0,30,0.00,,---,0.00,VWS V14.01,2013-09-10 01:27:00,
2013-09-09 21:28:00,81.7,46.4,29.97,North,0,0.0,0.0,29,0.00,,---,0.00,VWS V14.01,2013-09-10 01:28:00,
2013-09-09 21:29:00,81.7,46.4,29.97,North,0,0.0,0.0,29,0.00,,---,0.00,VWS V14.01,2013-09-10 01:29:00,
2013-09-09 21:30:00,81.7,46.4,29.97,North,0,0.0,0.0,29,0.00,,---,0.00,VWS V14.01,2013-09-10 01:30:00,
2013-09-09 21:31:00,81.7,46.4,29.97,North,0,0.0,0.0,29,0.00,,---,0.00,VWS V14.01,2013-09-10 01:31:00,
2013-09-09 21:32:00,81.3,47.0,29.97,North,0,0.0,0.0,30,0.00,,---,0.00,VWS V14.01,2013-09-10 01:32:00,
2013-09-09 21:33:00,81.7,46.4,29.97,North,0,0.0,0.0,29,0.00,,---,0.00,VWS V14.01,2013-09-10 01:33:00,
2013-09-09 21:34:00,81.7,46.4,29.97,North,0,0.0,0.0,29,0.00,,---,0.00,VWS V14.01,2013-09-10 01:34:00,
2013-09-09 21:35:00,81.7,46.4,29.97,North,0,0.0,0.0,29,0.00,,---,0.00,VWS V14.01,2013-09-10 01:35:00,
2013-09-09 21:36:00,81.7,46.4,29.97,North,0,0.0,0.0,29,0.00,,---,0.00,VWS V14.01,2013-09-10 01:36:00,
2013-09-09 21:37:00,81.1,46.8,30.00,North,0,0.0,0.0,30,0.00,,---,0.00,VWS V14.01,2013-09-10 01:37:00,
2013-09-09 21:38:00,81.5,47.1,29.97,North,0,0.0,0.0,30,0.00,,---,0.00,VWS V14.01,2013-09-10 01:38:00,
2013-09-09 21:39:00,81.5,47.1,29.97,North,0,0.0,0.0,30,0.00,,---,0.00,VWS V14.01,2013-09-10 01:39:00,
2013-09-09 21:40:00,81.5,47.1,29.97,North,0,0.0,0.0,30,0.00,,---,0.00,VWS V14.01,2013-09-10 01:40:00,
2013-09-09 21:41:00,81.5,47.1,29.97,North,0,0.0,0.0,30,0.00,,---,0.00,VWS V14.01,2013-09-10 01:41:00,
2013-09-09 21:42:00,81.1,46.8,30.00,North,0,0.0,0.0,30,0.00,,---,0.00,VWS V14.01,2013-09-10 01:42:00,
2013-09-09 21:43:00,81.3,47.0,29.97,North,0,0.0,0.0,30,0.00,,---,0.00,VWS V14.01,2013-09-10 01:43:00,
2013-09-09 21:44:00,81.3,47.0,29.97,North,0,0.0,0.0,30,0.00,,---,0.00,VWS V14.01,2013-09-10 01:44:00,
2013-09-09 21:45:00,81.3,47.0,29.97,North,0,0.0,0.0,30,0.00,,---,0.00,VWS V14.01,2013-09-10 01:45:00,
2013-09-09 21:46:00,81.3,47.0,30.00,North,0,0.0,0.0,30,0.00,,---,0.00,VWS V14.01,2013-09-10 01:46:00,
2013-09-09 21:47:00,81.0,47.5,30.00,North,0,0.0,0.0,31,0.00,,---,0.00,VWS V14.01,2013-09-10 01:47:00,
2013-09-09 21:48:00,81.3,47.0,30.00,North,0,0.0,0.0,30,0.00,,---,0.00,VWS V14.01,2013-09-10 01:48:00,
2013-09-09 21:49:00,81.1,46.8,30.00,North,0,0.0,0.0,30,0.00,,---,0.00,VWS V14.01,2013-09-10 01:49:00,
2013-09-09 21:50:00,81.1,46.8,30.00,North,0,0.0,0.0,30,0.00,,---,0.00,VWS V14.01,2013-09-10 01:50:00,
2013-09-09 21:51:00,81.1,46.8,30.00,North,0,0.0,0.0,30,0.00,,---,0.00,VWS V14.01,2013-09-10 01:51:00,
2013-09-09 21:52:00,81.0,46.6,30.00,North,0,0.0,0.0,30,0.00,,---,0.00,VWS V14.01,2013-09-10 01:52:00,
2013-09-09 21:53:00,81.1,46.8,30.00,North,0,0.0,0.0,30,0.00,,---,0.00,VWS V14.01,2013-09-10 01:53:00,
2013-09-09 21:54:00,81.1,46.8,30.00,North,0,0.0,0.0,30,0.00,,---,0.00,VWS V14.01,2013-09-10 01:54:00,
2013-09-09 21:55:00,81.1,46.8,30.00,North,0,0.0,0.0,30,0.00,,---,0.00,VWS V14.01,2013-09-10 01:55:00,
2013-09-09 21:56:00,81.1,46.8,30.00,North,0,0.0,0.0,30,0.00,,---,0.00,VWS V14.01,2013-09-10 01:56:00,
2013-09-09 21:57:00,80.8,47.4,30.00,North,0,0.0,0.0,31,0.00,,---,0.00,VWS V14.01,2013-09-10 01:57:00,
2013-09-09 21:58:00,81.0,46.6,30.00,North,0,0.0,0.0,30,0.00,,---,0.00,VWS V14.01,2013-09-10 01:58:00,
2013-09-09 21:59:00,81.0,47.5,30.00,North,0,0.0,0.0,31,0.00,,---,0.00,VWS V14.01,2013-09-10 01:59:00,
2013-09-09 22:00:00,81.0,47.5,30.00,North,0,0.0,0.0,31,0.00,,---,0.00,VWS V14.01,2013-09-10 02:00:00,
2013-09-09 22:01:00,81.0,47.5,30.00,North,0,0.0,0.0,31,0.00,,---,0.00,VWS V14.01,2013-09-10 02:01:00,
2013-09-09 22:02:00,80.8,48.2,30.00,North,0,0.0,0.0,32,0.00,,---,0.00,VWS V14.01,2013-09-10 02:02:00,
2013-09-09 22:03:00,81.0,47.5,30.00,North,0,0.0,0.0,31,0.00,,---,0.00,VWS V14.01,2013-09-10 02:03:00,
2013-09-09 22:04:00,81.0,46.6,30.00,North,0,0.0,0.0,30,0.00,,---,0.00,VWS V14.01,2013-09-10 02:04:00,
2013-09-09 22:05:00,81.0,47.5,30.00,North,0,0.0,0.0,31,0.00,,---,0.00,VWS V14.01,2013-09-10 02:05:00,
2013-09-09 22:06:00,81.0,47.5,30.00,North,0,0.0,0.0,31,0.00,,---,0.00,VWS V14.01,2013-09-10 02:06:00,
2013-09-09 22:07:00,80.8,48.2,30.03,North,0,0.0,0.0,32,0.00,,---,0.00,VWS V14.01,2013-09-10 02:07:00,
2013-09-09 22:08:00,80.8,47.4,30.00,North,0,0.0,0.0,31,0.00,,---,0.00,VWS V14.01,2013-09-10 02:08:00,
2013-09-09 22:09:00,81.0,47.5,30.00,North,0,0.0,0.0,31,0.00,,---,0.00,VWS V14.01,2013-09-10 02:09:00,
2013-09-09 22:10:00,80.8,47.4,30.00,North,0,0.0,0.0,31,0.00,,---,0.00,VWS V14.01,2013-09-10 02:10:00,
2013-09-09 22:11:00,81.0,47.5,30.00,North,0,0.0,0.0,31,0.00,,---,0.00,VWS V14.01,2013-09-10 02:11:00,
2013-09-09 22:12:00,80.8,48.2,30.03,North,0,0.0,0.0,32,0.00,,---,0.00,VWS V14.01,2013-09-10 02:12:00,
2013-09-09 22:13:00,80.8,47.4,30.00,North,0,0.0,0.0,31,0.00,,---,0.00,VWS V14.01,2013-09-10 02:13:00,
2013-09-09 22:14:00,80.8,48.2,30.00,North,0,0.0,0.0,32,0.00,,---,0.00,VWS V14.01,2013-09-10 02:14:00,
2013-09-09 22:15:00,80.8,47.4,30.00,North,0,0.0,0.0,31,0.00,,---,0.00,VWS V14.01,2013-09-10 02:15:00,
2013-09-09 22:16:00,80.8,47.4,30.03,North,0,0.0,0.0,31,0.00,,---,0.00,VWS V14.01,2013-09-10 02:16:00,
2013-09-09 22:17:00,80.8,49.8,30.03,North,0,0.0,0.0,34,0.00,,---,0.00,VWS V14.01,2013-09-10 02:17:00,
2013-09-09 22:18:00,80.8,48.2,30.03,North,0,0.0,0.0,32,0.00,,---,0.00,VWS V14.01,2013-09-10 02:18:00,
2013-09-09 22:19:00,80.8,47.4,30.03,North,0,0.0,0.0,31,0.00,,---,0.00,VWS V14.01,2013-09-10 02:19:00,
2013-09-09 22:20:00,80.8,48.2,30.03,North,0,0.0,0.0,32,0.00,,---,0.00,VWS V14.01,2013-09-10 02:20:00,
2013-09-09 22:21:00,80.8,48.2,30.03,North,0,0.0,0.0,32,0.00,,---,0.00,VWS V14.01,2013-09-10 02:21:00,
2013-09-09 22:22:00,80.6,48.9,30.03,North,0,0.0,0.0,33,0.00,,---,0.00,VWS V14.01,2013-09-10 02:22:00,
2013-09-09 22:23:00,80.8,48.2,30.03,North,0,0.0,0.0,32,0.00,,---,0.00,VWS V14.01,2013-09-10 02:23:00,
2013-09-09 22:24:00,80.8,48.2,30.03,North,0,0.0,0.0,32,0.00,,---,0.00,VWS V14.01,2013-09-10 02:24:00,
2013-09-09 22:25:00,80.8,48.2,30.03,North,0,0.0,0.0,32,0.00,,---,0.00,VWS V14.01,2013-09-10 02:25:00,
2013-09-09 22:26:00,80.8,48.2,30.03,North,0,0.0,0.0,32,0.00,,---,0.00,VWS V14.01,2013-09-10 02:26:00,
2013-09-09 22:27:00,80.6,49.7,30.03,North,0,0.0,0.0,34,0.00,,---,0.00,VWS V14.01,2013-09-10 02:27:00,
2013-09-09 22:28:00,80.6,48.9,30.03,North,0,0.0,0.0,33,0.00,,---,0.00,VWS V14.01,2013-09-10 02:28:00,
2013-09-09 22:29:00,80.8,49.8,30.03,North,0,0.0,0.0,34,0.00,,---,0.00,VWS V14.01,2013-09-10 02:29:00,
2013-09-09 22:30:00,80.8,49.0,30.03,North,0,0.0,0.0,33,0.00,,---,0.00,VWS V14.01,2013-09-10 02:30:00,
2013-09-09 22:31:00,80.6,48.9,30.03,North,0,0.0,0.0,33,0.00,,---,0.00,VWS V14.01,2013-09-10 02:31:00,
2013-09-09 22:32:00,80.4,50.3,30.03,North,0,0.0,0.0,35,0.00,,---,0.00,VWS V14.01,2013-09-10 02:32:00,
2013-09-09 22:33:00,80.6,48.9,30.03,North,0,0.0,0.0,33,0.00,,---,0.00,VWS V14.01,2013-09-10 02:33:00,
2013-09-09 22:34:00,80.8,49.8,30.03,North,0,0.0,0.0,34,0.00,,---,0.00,VWS V14.01,2013-09-10 02:34:00,
2013-09-09 22:35:00,80.6,48.9,30.03,North,0,0.0,0.0,33,0.00,,---,0.00,VWS V14.01,2013-09-10 02:35:00,
2013-09-09 22:36:00,80.6,48.9,30.03,North,0,0.0,0.0,33,0.00,,---,0.00,VWS V14.01,2013-09-10 02:36:00,
2013-09-09 22:37:00,80.4,50.3,30.03,North,0,0.0,0.0,35,0.00,,---,0.00,VWS V14.01,2013-09-10 02:37:00,
2013-09-09 22:38:00,80.6,49.7,30.03,North,0,0.0,0.0,34,0.00,,---,0.00,VWS V14.01,2013-09-10 02:38:00,
2013-09-09 22:39:00,80.6,49.7,30.03,North,0,0.0,0.0,34,0.00,,---,0.00,VWS V14.01,2013-09-10 02:39:00,
2013-09-09 22:40:00,80.6,49.7,30.03,North,0,0.0,0.0,34,0.00,,---,0.00,VWS V14.01,2013-09-10 02:40:00,
2013-09-09 22:41:00,80.6,49.7,30.03,North,0,0.0,0.0,34,0.00,,---,0.00,VWS V14.01,2013-09-10 02:41:00,
2013-09-09 22:42:00,80.2,50.9,30.03,North,0,0.0,0.0,36,0.00,,---,0.00,VWS V14.01,2013-09-10 02:42:00,
2013-09-09 22:43:00,80.6,50.5,30.03,North,0,0.0,0.0,35,0.00,,---,0.00,VWS V14.01,2013-09-10 02:43:00,
2013-09-09 22:44:00,80.4,50.3,30.03,North,0,0.0,0.0,35,0.00,,---,0.00,VWS V14.01,2013-09-10 02:44:00,
2013-09-09 22:45:00,80.4,50.3,30.03,North,0,0.0,0.0,35,0.00,,---,0.00,VWS V14.01,2013-09-10 02:45:00,
2013-09-09 22:46:00,80.4,50.3,30.03,North,0,0.0,0.0,35,0.00,,---,0.00,VWS V14.01,2013-09-10 02:46:00,
2013-09-09 22:47:00,80.1,50.7,30.03,North,0,0.0,0.0,36,0.00,,---,0.00,VWS V14.01,2013-09-10 02:47:00,
2013-09-09 22:48:00,80.4,50.3,30.03,North,0,0.0,0.0,35,0.00,,---,0.00,VWS V14.01,2013-09-10 02:48:00,
2013-09-09 22:49:00,80.4,50.3,30.03,North,0,0.0,0.0,35,0.00,,---,0.00,VWS V14.01,2013-09-10 02:49:00,
2013-09-09 22:50:00,80.4,50.3,30.03,North,0,0.0,0.0,35,0.00,,---,0.00,VWS V14.01,2013-09-10 02:50:00,
2013-09-09 22:51:00,80.2,50.1,30.03,North,0,0.0,0.0,35,0.00,,---,0.00,VWS V14.01,2013-09-10 02:51:00,
2013-09-09 22:52:00,79.9,51.3,30.03,North,0,0.0,0.0,37,0.00,,---,0.00,VWS V14.01,2013-09-10 02:52:00,
2013-09-09 22:53:00,80.2,50.9,30.03,North,0,0.0,0.0,36,0.00,,---,0.00,VWS V14.01,2013-09-10 02:53:00,
2013-09-09 22:54:00,80.2,50.9,30.03,North,0,0.0,0.0,36,0.00,,---,0.00,VWS V14.01,2013-09-10 02:54:00,
2013-09-09 22:55:00,80.2,50.9,30.03,North,0,0.0,0.0,36,0.00,,---,0.00,VWS V14.01,2013-09-10 02:55:00,
2013-09-09 22:56:00,80.2,50.9,30.03,North,0,0.0,0.0,36,0.00,,---,0.00,VWS V14.01,2013-09-10 02:56:00,
2013-09-09 22:57:00,79.9,51.3,30.03,North,0,0.0,0.0,37,0.00,,---,0.00,VWS V14.01,2013-09-10 02:57:00,
2013-09-09 22:58:00,80.1,50.7,30.03,North,0,0.0,0.0,36,0.00,,---,0.00,VWS V14.01,2013-09-10 02:58:00,
2013-09-09 22:59:00,80.1,50.7,30.03,North,0,0.0,0.0,36,0.00,,---,0.00,VWS V14.01,2013-09-10 02:59:00,
2013-09-09 23:00:00,80.1,50.7,30.03,North,0,0.0,0.0,36,0.00,,---,0.00,VWS V14.01,2013-09-10 03:00:00,
2013-09-09 23:01:00,80.1,50.7,30.03,North,0,0.0,0.0,36,0.00,,---,0.00,VWS V14.01,2013-09-10 03:01:00,
2013-09-09 23:02:00,79.9,51.3,30.03,North,0,0.0,0.0,37,0.00,,---,0.00,VWS V14.01,2013-09-10 03:02:00,
2013-09-09 23:03:00,79.9,50.6,30.03,North,0,0.0,0.0,36,0.00,,---,0.00,VWS V14.01,2013-09-10 03:03:00,
2013-09-09 23:04:00,79.9,50.6,30.03,North,0,0.0,0.0,36,0.00,,---,0.00,VWS V14.01,2013-09-10 03:04:00,
2013-09-09 23:05:00,79.9,51.3,30.03,North,0,0.0,0.0,37,0.00,,---,0.00,VWS V14.01,2013-09-10 03:05:00,
2013-09-09 23:06:00,79.9,51.3,30.03,North,0,0.0,0.0,37,0.00,,---,0.00,VWS V14.01,2013-09-10 03:06:00,
2013-09-09 23:07:00,79.7,51.9,30.03,North,0,0.0,0.0,38,0.00,,---,0.00,VWS V14.01,2013-09-10 03:07:00,
2013-09-09 23:08:00,79.9,50.6,30.03,North,0,0.0,0.0,36,0.00,,---,0.00,VWS V14.01,2013-09-10 03:08:00,
2013-09-09 23:09:00,79.9,51.3,30.03,North,0,0.0,0.0,37,0.00,,---,0.00,VWS V14.01,2013-09-10 03:09:00,
2013-09-09 23:10:00,79.9,51.3,30.03,North,0,0.0,0.0,37,0.00,,---,0.00,VWS V14.01,2013-09-10 03:10:00,
2013-09-09 23:11:00,79.9,51.3,30.03,North,0,0.0,0.0,37,0.00,,---,0.00,VWS V14.01,2013-09-10 03:11:00,
2013-09-09 23:12:00,79.5,51.7,30.03,North,0,0.0,0.0,38,0.00,,---,0.00,VWS V14.01,2013-09-10 03:12:00,
2013-09-09 23:13:00,79.9,51.3,30.03,North,0,0.0,0.0,37,0.00,,---,0.00,VWS V14.01,2013-09-10 03:13:00,
2013-09-09 23:14:00,79.9,51.3,30.03,North,0,0.0,0.0,37,0.00,,---,0.00,VWS V14.01,2013-09-10 03:14:00,
2013-09-09 23:15:00,79.9,52.0,30.03,North,0,0.0,0.0,38,0.00,,---,0.00,VWS V14.01,2013-09-10 03:15:00,
2013-09-09 23:16:00,79.9,51.3,30.03,North,0,0.0,0.0,37,0.00,,---,0.00,VWS V14.01,2013-09-10 03:16:00,
2013-09-09 23:17:00,79.5,52.4,30.03,North,0,0.0,0.0,39,0.00,,---,0.00,VWS V14.01,2013-09-10 03:17:00,
2013-09-09 23:18:00,79.7,51.2,30.03,North,0,0.0,0.0,37,0.00,,---,0.00,VWS V14.01,2013-09-10 03:18:00,
2013-09-09 23:19:00,79.7,51.2,30.03,North,0,0.0,0.0,37,0.00,,---,0.00,VWS V14.01,2013-09-10 03:19:00,
2013-09-09 23:20:00,79.7,51.9,30.03,North,0,0.0,0.0,38,0.00,,---,0.00,VWS V14.01,2013-09-10 03:20:00,
2013-09-09 23:21:00,79.7,51.9,30.03,North,0,0.0,0.0,38,0.00,,---,0.00,VWS V14.01,2013-09-10 03:21:00,
2013-09-09 23:22:00,79.3,53.0,30.03,North,0,0.0,0.0,40,0.00,,---,0.00,VWS V14.01,2013-09-10 03:22:00,
2013-09-09 23:23:00,79.7,52.6,30.03,North,0,0.0,0.0,39,0.00,,---,0.00,VWS V14.01,2013-09-10 03:23:00,
2013-09-09 23:24:00,79.5,51.7,30.03,North,0,0.0,0.0,38,0.00,,---,0.00,VWS V14.01,2013-09-10 03:24:00,
2013-09-09 23:25:00,79.5,51.7,30.03,North,0,0.0,0.0,38,0.00,,---,0.00,VWS V14.01,2013-09-10 03:25:00,
2013-09-09 23:26:00,79.5,51.7,30.03,North,0,0.0,0.0,38,0.00,,---,0.00,VWS V14.01,2013-09-10 03:26:00,
2013-09-09 23:27:00,79.2,52.8,30.03,North,0,0.0,0.0,40,0.00,,---,0.00,VWS V14.01,2013-09-10 03:27:00,
2013-09-09 23:28:00,79.5,52.4,30.03,North,0,0.0,0.0,39,0.00,,---,0.00,VWS V14.01,2013-09-10 03:28:00,
2013-09-09 23:29:00,79.5,52.4,30.03,North,0,0.0,0.0,39,0.00,,---,0.00,VWS V14.01,2013-09-10 03:29:00,
2013-09-09 23:30:00,79.5,52.4,30.03,North,0,0.0,0.0,39,0.00,,---,0.00,VWS V14.01,2013-09-10 03:30:00,
2013-09-09 23:31:00,79.3,53.0,30.03,North,0,0.0,0.0,40,0.00,,---,0.00,VWS V14.01,2013-09-10 03:31:00,
2013-09-09 23:32:00,79.0,52.6,30.03,North,0,0.0,0.0,40,0.00,,---,0.00,VWS V14.01,2013-09-10 03:32:00,
2013-09-09 23:33:00,79.3,52.3,30.03,North,0,0.0,0.0,39,0.00,,---,0.00,VWS V14.01,2013-09-10 03:33:00,
2013-09-09 23:34:00,79.3,52.3,30.03,North,0,0.0,0.0,39,0.00,,---,0.00,VWS V14.01,2013-09-10 03:34:00,
2013-09-09 23:35:00,79.3,53.0,30.03,North,0,0.0,0.0,40,0.00,,---,0.00,VWS V14.01,2013-09-10 03:35:00,
2013-09-09 23:36:00,79.2,52.8,30.03,North,0,0.0,0.0,40,0.00,,---,0.00,VWS V14.01,2013-09-10 03:36:00,
2013-09-09 23:37:00,78.8,52.5,30.00,North,0,0.0,0.0,40,0.00,,---,0.00,VWS V14.01,2013-09-10 03:37:00,
2013-09-09 23:38:00,79.2,52.8,30.03,North,0,0.0,0.0,40,0.00,,---,0.00,VWS V14.01,2013-09-10 03:38:00,
2013-09-09 23:39:00,79.2,52.8,30.03,North,0,0.0,0.0,40,0.00,,---,0.00,VWS V14.01,2013-09-10 03:39:00,
2013-09-09 23:40:00,79.2,52.8,30.03,North,0,0.0,0.0,40,0.00,,---,0.00,VWS V14.01,2013-09-10 03:40:00,
2013-09-09 23:41:00,79.0,52.6,30.03,North,0,0.0,0.0,40,0.00,,---,0.00,VWS V14.01,2013-09-10 03:41:00,
2013-09-09 23:42:00,78.8,53.8,30.00,North,0,0.0,0.0,42,0.00,,---,0.00,VWS V14.01,2013-09-10 03:42:00,
2013-09-09 23:43:00,79.0,52.6,30.03,North,0,0.0,0.0,40,0.00,,---,0.00,VWS V14.01,2013-09-10 03:43:00,
2013-09-09 23:44:00,79.0,52.6,30.03,North,0,0.0,0.0,40,0.00,,---,0.00,VWS V14.01,2013-09-10 03:44:00,
2013-09-09 23:45:00,79.0,53.3,30.03,North,0,0.0,0.0,41,0.00,,---,0.00,VWS V14.01,2013-09-10 03:45:00,
2013-09-09 23:46:00,78.8,53.8,30.00,North,0,0.0,0.0,42,0.00,,---,0.00,VWS V14.01,2013-09-10 03:46:00,
2013-09-09 23:47:00,78.8,52.5,30.00,North,0,0.0,0.0,40,0.00,,---,0.00,VWS V14.01,2013-09-10 03:47:00,
2013-09-09 23:48:00,78.8,52.5,30.00,North,0,0.0,0.0,40,0.00,,---,0.00,VWS V14.01,2013-09-10 03:48:00,
2013-09-09 23:49:00,78.8,52.5,30.00,North,0,0.0,0.0,40,0.00,,---,0.00,VWS V14.01,2013-09-10 03:49:00,
2013-09-09 23:50:00,78.8,53.1,30.00,North,0,0.0,0.0,41,0.00,,---,0.00,VWS V14.01,2013-09-10 03:50:00,
2013-09-09 23:51:00,78.6,53.6,30.03,North,0,0.0,0.0,42,0.00,,---,0.00,VWS V14.01,2013-09-10 03:51:00,
2013-09-09 23:52:00,78.8,53.1,30.00,North,0,0.0,0.0,41,0.00,,---,0.00,VWS V14.01,2013-09-10 03:52:00,
2013-09-09 23:53:00,78.8,53.1,30.00,North,0,0.0,0.0,41,0.00,,---,0.00,VWS V14.01,2013-09-10 03:53:00,
2013-09-09 23:54:00,78.8,53.8,30.00,North,0,0.0,0.0,42,0.00,,---,0.00,VWS V14.01,2013-09-10 03:54:00,
2013-09-09 23:55:00,78.8,53.1,30.00,North,0,0.0,0.0,41,0.00,,---,0.00,VWS V14.01,2013-09-10 03:55:00,
2013-09-09 23:56:00,78.4,54.1,30.03,North,0,0.0,0.0,43,0.00,,---,0.00,VWS V14.01,2013-09-10 03:56:00,
2013-09-09 23:57:00,78.8,53.1,30.00,North,0,0.0,0.0,41,0.00,,---,0.00,VWS V14.01,2013-09-10 03:57:00,
2013-09-09 23:58:00,78.8,53.8,30.00,North,0,0.0,0.0,42,0.00,,---,0.00,VWS V14.01,2013-09-10 03:58:00,
2013-09-09 23:59:00,78.8,53.8,30.00,North,0,0.0,0.0,42,0.00,,---,0.00,VWS V14.01,2013-09-10 03:59:00,